GEFSNGP_500_meanwind_000.txt.gz
Wind_Speed
4 2 17 28 32 35 37 33 19 23 28 24 22 18 15 13 12 12 13 15 17 20 22 22 23 24 25 27 28 28 30 31 34 36 40 43 45 48 50 52 55 59 64 68
11 12 17 24 31 35 25 14 19 31 34 26 20 16 12 9 9 9 10 11 14 17 19 20 21 23 25 26 27 28 31 33 36 39 42 44 46 48 51 54 59 64 69 69
13 9 17 16 19 20 10 19 32 28 17 15 17 15 14 13 11 10 9 10 13 15 16 18 21 23 25 25 27 30 33 36 39 42 44 46 47 49 53 58 63 68 68 64
20 17 20 19 18 20 23 23 20 14 15 18 18 15 14 15 15 14 14 15 17 17 18 20 22 23 24 26 29 32 35 39 42 44 46 46 48 52 57 62 66 66 63 64
16 17 18 17 18 21 22 20 21 21 21 19 16 15 14 16 16 15 14 14 16 18 19 21 22 23 25 28 31 35 38 41 43 43 44 47 51 56 60 64 63 61 62 66
8 12 14 13 14 17 18 18 16 15 16 15 16 17 18 18 14 12 14 16 18 19 20 21 23 25 28 31 33 36 37 38 40 43 46 50 55 59 61 59 58 60 65 71
4 5 7 10 11 13 16 15 16 17 17 17 18 19 19 17 15 16 18 18 18 18 20 22 25 27 30 32 34 36 38 40 43 46 50 53 56 58 56 56 59 64 68 73
5 4 6 7 9 11 12 13 15 17 18 19 18 17 17 17 17 17 17 16 17 19 21 24 27 30 32 34 36 38 41 43 46 49 52 54 53 53 55 58 62 66 70 76
11 11 9 8 9 12 14 13 14 16 17 18 18 18 17 16 15 16 16 18 20 23 26 27 29 31 33 36 38 41 43 45 47 50 51 50 51 53 57 60 64 69 74 81
15 13 10 10 8 9 11 13 13 15 16 18 17 16 14 13 14 16 19 21 22 24 26 28 31 33 36 38 39 41 43 46 48 47 48 50 52 55 59 63 69 75 81 87
16 14 13 12 10 11 9 10 14 13 14 16 16 14 13 13 14 15 17 19 22 25 28 30 32 34 35 36 38 42 44 45 45 46 48 50 54 57 63 69 75 81 87 92
19 18 16 12 13 14 13 13 14 13 11 11 11 12 11 12 14 16 18 21 24 27 29 31 32 33 35 38 40 41 42 44 46 47 49 52 56 63 70 76 82 87 92 95
23 24 23 19 18 16 15 16 16 14 11 8 9 11 12 14 17 18 21 25 27 29 29 30 32 34 37 38 39 41 43 45 46 48 52 56 61 67 74 80 85 90 93 97
18 21 25 23 20 17 15 13 13 11 9 9 11 13 15 17 19 22 25 27 28 28 29 31 34 35 37 38 40 43 44 45 48 52 56 61 67 73 78 83 87 92 95 96
16 17 18 19 20 18 14 12 10 10 11 12 15 17 18 20 23 26 27 28 28 30 32 33 34 36 38 40 42 43 45 48 52 56 60 66 72 77 82 86 90 94 94 86
17 17 16 16 17 17 14 13 13 14 15 16 19 22 24 26 27 28 28 29 30 31 33 34 36 38 40 41 43 45 47 51 55 60 66 71 77 81 85 88 92 92 84 72
14 15 15 15 15 15 16 16 17 19 21 23 24 26 27 28 28 28 29 30 30 32 34 36 38 39 41 42 44 47 50 54 60 66 70 75 80 83 87 91 92 83 71 61
14 14 15 16 18 19 20 21 23 24 25 25 26 27 26 26 26 27 28 30 32 34 35 37 38 40 41 43 45 49 54 61 66 70 74 78 82 85 89 90 82 69 60 53
18 18 19 21 21 22 22 23 24 24 25 25 24 24 24 25 26 28 29 31 33 34 35 37 38 39 42 45 49 54 60 64 69 72 76 81 84 88 89 82 69 60 54 47
24 24 24 24 23 23 22 22 22 22 22 23 23 24 25 26 27 29 30 31 33 34 36 36 38 41 45 49 54 59 63 67 71 75 79 82 86 88 82 70 61 56 47 37
25 25 25 24 24 24 23 22 22 22 22 23 24 25 26 27 28 29 31 32 33 34 36 38 41 44 49 54 58 62 66 69 73 77 81 84 87 82 69 61 56 48 36 26
24 24 24 25 25 24 23 22 22 23 23 24 25 26 26 28 29 30 31 32 33 35 37 41 45 50 54 58 62 65 69 73 76 80 84 86 81 67 60 55 49 39 27 17
23 23 24 23 23 23 23 23 23 24 25 25 26 27 29 29 29 30 31 32 35 38 41 46 50 54 58 62 65 69 73 76 79 84 86 81 67 59 54 47 40 30 19 5
23 24 24 24 24 24 24 24 24 25 25 26 27 27 27 27 28 29 32 35 39 43 47 51 54 58 62 66 69 72 76 79 84 86 80 67 60 55 47 38 31 21 6 7
23 23 23 24 24 24 24 24 24 25 25 25 25 25 25 27 30 33 36 40 45 48 51 55 59 62 65 68 71 74 79 84 85 77 66 61 56 48 39 29 22 9 8 16
23 23 23 23 23 22 22 22 22 21 22 24 25 26 28 31 34 39 43 46 49 52 55 58 61 64 66 69 73 78 84 84 76 66 62 56 47 40 31 21 9 8 19 23
22 21 20 20 19 19 20 20 21 22 24 26 28 30 33 37 40 43 46 49 52 55 58 60 63 65 68 72 78 83 83 74 65 61 55 47 39 30 18 5 8 21 27 27

GEFSNGP_500_meanwind_006.txt.gz
Wind_Speed
23 20 19 17 15 13 14 13 13 11 13 20 21 26 31 33 33 34 37 38 38 37 35 34 34 35 35 35 35 34 32 30 29 30 32 34 35 37 40 44 47 51 53 53
16 14 10 7 4 3 6 8 9 10 18 23 27 30 31 31 31 32 33 33 32 32 31 32 33 33 33 33 32 30 27 26 27 30 31 32 35 39 43 47 50 52 52 55
15 13 11 8 5 6 8 9 12 19 26 28 30 29 29 28 28 28 29 29 29 28 28 28 28 28 28 27 25 24 23 25 27 28 30 34 38 42 46 49 51 53 56 59
15 15 13 8 7 9 11 16 21 26 29 29 26 25 24 23 22 24 24 24 23 22 21 21 21 20 20 20 20 21 23 24 26 30 34 38 41 45 48 50 53 55 58 62
15 16 16 16 15 15 19 23 26 27 27 27 24 23 20 18 17 17 17 16 16 15 14 14 14 15 16 17 18 20 23 26 29 33 37 41 44 47 49 52 54 57 60 63
12 14 16 19 21 22 24 26 23 21 20 21 20 19 17 15 13 12 11 11 11 11 10 11 12 13 15 17 19 22 25 29 32 36 39 42 45 48 50 52 55 58 61 61
9 9 10 12 14 16 17 18 16 15 14 15 15 14 13 12 11 10 9 9 9 9 10 11 13 15 17 19 21 25 28 31 34 37 40 43 46 48 51 54 56 57 58 60
7 8 7 7 7 9 9 10 10 10 11 11 12 12 12 13 13 12 11 11 10 11 12 13 15 17 19 21 24 27 30 33 36 39 41 44 46 49 52 53 54 55 57 60
6 6 7 7 7 6 6 7 8 9 10 11 12 13 13 13 13 12 11 11 11 12 14 15 17 19 21 24 27 29 32 34 37 39 42 45 48 50 51 51 53 55 58 63
11 10 9 8 7 5 4 5 7 8 10 11 12 13 13 13 12 12 12 12 13 13 14 16 18 20 22 25 28 31 34 36 38 40 43 45 47 48 49 51 53 57 62 68
15 14 12 10 7 5 5 4 5 7 8 10 12 13 14 14 14 14 14 13 13 13 14 15 18 21 25 28 31 33 34 36 39 41 43 44 46 47 49 53 57 62 67 72
16 16 14 11 7 6 6 5 5 6 6 6 8 11 13 15 15 14 14 13 13 13 15 18 22 26 28 30 31 33 35 38 39 41 43 44 46 49 52 56 62 67 72 78
15 16 15 12 10 9 8 7 7 8 7 6 6 8 10 12 12 12 12 12 14 17 20 24 27 29 30 31 33 35 37 38 40 41 42 44 47 50 55 61 67 72 77 82
16 17 17 16 15 13 12 10 9 10 9 9 8 7 7 8 9 10 12 15 18 22 25 28 30 31 31 33 35 36 38 39 40 41 43 46 49 54 59 64 70 75 80 85
20 20 20 19 19 19 18 16 13 12 11 11 10 9 8 8 10 13 16 20 23 26 28 30 31 31 32 34 35 36 37 38 40 42 45 49 54 59 64 69 73 78 83 88
20 20 19 18 17 17 17 16 14 13 12 11 11 10 11 13 16 19 22 25 27 28 29 29 30 31 33 34 35 36 37 39 41 45 49 54 59 64 68 72 77 83 87 87
13 14 15 14 12 12 13 13 13 14 13 12 13 14 17 19 22 25 26 28 28 28 28 29 30 31 33 34 35 36 38 40 44 49 54 58 63 67 71 76 82 87 87 80
8 10 11 11 11 12 13 14 15 15 16 16 18 20 22 25 26 27 28 28 28 27 27 28 30 31 33 34 35 37 40 44 49 53 58 62 66 70 75 81 86 86 78 66
10 11 11 11 11 11 12 13 15 17 18 20 22 24 25 26 26 27 27 27 27 27 28 29 30 32 33 34 37 40 44 48 52 57 61 65 70 74 80 86 85 78 66 55
14 14 13 13 13 13 14 15 17 19 21 22 23 24 25 26 26 26 27 27 27 27 28 30 31 31 33 36 40 44 48 52 56 61 64 68 73 79 85 85 77 66 54 44
18 19 19 18 18 18 19 20 22 23 23 23 24 25 26 26 27 27 27 27 27 28 29 29 30 32 36 39 43 47 51 56 60 64 68 72 79 84 84 77 65 54 44 32
20 21 22 23 23 24 24 24 24 25 25 25 26 26 27 27 27 27 27 28 28 28 28 30 32 36 39 43 47 51 56 60 64 67 72 78 83 83 75 64 54 44 32 18
20 21 22 23 24 24 24 25 25 25 26 26 26 27 27 27 27 28 28 28 27 28 29 32 35 38 42 46 51 55 59 63 67 71 77 82 81 74 63 54 44 33 18 5
20 21 21 22 22 22 23 24 25 25 26 26 26 26 27 28 28 28 27 26 27 29 32 34 38 42 46 50 55 59 62 66 70 76 81 80 73 63 53 44 32 17 3 9
22 23 23 23 23 23 23 24 24 25 26 26 27 27 28 28 27 26 25 26 29 31 34 38 42 46 50 54 58 61 65 69 75 80 80 72 62 52 41 30 17 3 11 16
24 24 24 24 24 24 24 24 25 26 26 27 27 27 27 26 25 25 26 29 32 35 38 42 46 50 53 56 60 63 67 73 79 80 73 62 51 39 27 15 4 12 17 17
27 27 26 26 25 25 25 26 27 27 27 27 26 25 25 25 26 27 29 33 36 39 43 46 50 52 55 58 62 66 72 77 79 74 63 50 38 25 13 3 11 17 18 15

GEFSNGP_500_meanwind_012.txt.gz
Wind_Speed
11 14 18 20 21 21 21 21 19 13 11 9 13 14 15 17 22 29 35 40 42 42 40 39 39 39 40 41 40 38 37 36 35 35 36 37 38 38 38 38 38 41 44 46
9 12 15 17 18 17 16 15 12 8 5 4 5 5 9 13 16 23 31 36 38 38 37 37 37 38 38 37 36 35 34 34 34 35 37 37 37 37 37 37 40 42 44 47
6 9 12 15 14 13 12 11 9 7 6 4 4 6 9 13 15 21 27 31 34 35 35 35 35 34 34 33 32 32 32 32 34 35 35 35 34 34 36 38 40 43 46 50
9 10 14 13 12 12 11 9 8 8 8 10 11 11 13 16 20 24 26 28 29 30 30 30 30 30 29 28 28 28 30 31 32 32 31 31 32 34 36 39 42 45 48 52
11 12 11 11 12 12 11 10 10 10 10 11 14 15 17 19 21 22 23 25 25 26 25 25 25 25 25 25 26 27 28 28 28 28 28 30 32 34 37 41 44 47 50 53
8 9 10 9 10 11 12 13 14 14 13 12 12 14 16 18 19 20 20 21 23 23 23 24 24 23 23 23 23 23 24 24 24 26 28 30 33 36 40 43 45 48 51 53
4 5 6 6 6 8 11 12 13 13 13 13 12 13 14 14 14 15 16 17 18 19 19 18 18 18 18 19 19 19 20 22 23 25 28 32 35 39 41 44 46 49 52 54
4 3 2 2 2 4 6 6 8 9 9 10 10 11 12 12 12 11 12 13 13 14 14 14 14 14 14 15 16 18 19 21 24 27 31 34 37 39 41 44 47 49 52 54
8 7 5 5 4 3 2 2 2 2 3 3 4 4 4 5 6 6 8 9 9 10 11 11 12 13 13 14 15 17 19 23 26 29 32 35 37 39 42 45 47 49 51 53
11 10 9 8 7 7 6 6 5 4 3 3 2 2 2 3 4 5 6 7 8 9 9 10 10 11 12 13 15 18 21 25 28 31 33 35 37 40 43 45 47 49 51 54
16 13 12 11 9 8 8 7 5 4 4 4 4 5 5 6 7 7 7 8 8 8 8 9 10 11 12 14 17 21 25 28 30 31 33 36 39 41 43 45 46 49 52 56
18 16 14 13 11 10 8 6 5 4 4 5 5 5 5 6 7 7 7 7 7 8 10 11 12 13 15 19 23 25 28 29 30 32 35 37 39 41 42 45 48 51 55 60
17 15 14 13 12 11 10 8 6 4 5 5 5 5 5 6 7 7 8 8 9 10 11 12 14 16 20 23 26 27 28 30 32 34 36 38 39 41 44 48 52 55 60 65
17 15 13 13 13 12 12 10 9 7 7 6 6 5 5 5 7 7 8 8 9 10 11 14 17 20 23 25 26 28 29 31 33 35 36 37 39 43 46 50 55 60 65 70
17 16 14 14 14 14 14 13 12 12 10 8 7 6 5 5 5 6 6 8 10 12 14 17 20 22 24 25 27 29 31 32 34 35 36 39 42 45 49 54 58 63 68 74
18 18 17 16 15 15 15 16 15 14 13 11 10 8 7 6 6 6 8 10 13 16 18 20 21 23 24 26 27 29 31 33 33 35 38 42 45 49 54 58 63 68 73 79
18 19 19 19 18 17 16 15 14 13 12 11 10 9 8 8 8 10 12 15 16 18 20 21 22 23 25 26 28 30 32 32 34 38 41 45 49 53 58 62 67 73 79 82
13 15 16 16 16 15 14 13 11 10 10 10 9 9 9 10 12 13 15 17 18 19 20 21 22 24 26 28 29 30 31 34 37 41 44 48 52 57 61 66 72 78 82 78
10 10 11 12 13 13 12 11 11 10 9 9 9 10 11 13 15 16 17 18 19 20 21 22 23 25 27 28 29 31 34 37 40 44 47 51 56 60 66 72 78 81 77 67
10 10 10 11 12 12 11 11 10 9 9 10 11 12 14 15 17 18 18 19 20 21 21 23 24 26 27 28 30 33 37 40 43 46 50 55 60 65 71 77 80 76 65 50
13 12 12 12 12 12 12 11 11 12 12 14 15 16 17 18 18 19 20 20 21 21 22 24 25 26 27 30 33 36 39 42 46 49 54 59 64 70 76 78 74 64 48 32
16 16 16 16 15 15 15 15 15 16 17 18 18 19 19 19 19 20 20 20 21 22 23 24 25 27 29 32 36 39 42 45 49 54 59 64 70 75 77 73 63 47 31 16
19 19 19 19 19 19 18 18 19 19 19 19 19 19 19 19 19 19 19 20 21 22 23 24 26 29 32 36 38 42 45 49 54 59 64 69 74 77 73 63 47 31 16 2
20 21 21 21 21 21 20 20 20 19 19 19 19 19 19 19 19 19 20 21 22 22 23 26 29 32 35 38 42 45 49 54 59 64 69 74 77 74 63 47 30 15 2 6
21 21 21 21 21 22 21 21 20 20 20 20 19 19 20 20 20 21 21 21 21 23 25 28 31 35 38 41 45 49 53 58 63 69 74 77 74 64 48 30 14 3 7 9
23 22 22 22 23 22 22 21 21 21 21 20 20 20 21 21 22 22 21 21 22 24 27 30 33 37 41 44 48 52 56 62 68 74 77 75 65 48 30 14 4 8 10 10
26 26 25 24 24 23 23 22 22 22 21 21 21 22 22 23 22 21 20 21 23 25 28 32 36 40 43 47 51 55 60 67 73 76 74 64 48 30 14 4 9 12 11 9

GEFSNGP_500_meanwind_018.txt.gz
Wind_Speed
17 17 15 14 15 17 22 26 30 31 34 37 38 37 34 32 30 29 27 26 24 24 25 31 36 39 40 39 38 38 38 37 37 35 34 33 33 33 34 35 36 37 39 41
14 13 12 11 11 14 18 22 26 30 31 34 35 32 28 24 21 18 15 13 14 17 22 28 32 34 35 35 35 34 33 32 31 31 31 30 31 32 32 34 36 39 41 43
13 11 8 6 8 12 16 20 24 27 29 31 30 29 26 20 13 8 3 4 10 16 21 25 28 31 31 31 30 29 28 27 27 27 28 28 30 30 33 35 37 41 44 44
10 8 6 4 7 11 15 18 22 25 28 29 29 28 24 21 15 10 8 10 14 18 21 23 26 27 27 26 25 24 23 23 25 28 30 30 31 32 34 36 39 41 43 43
7 6 5 3 6 10 13 16 20 23 26 28 28 27 24 22 19 15 15 16 18 20 21 22 23 23 22 22 22 22 22 23 26 28 28 29 31 33 35 37 39 40 41 43
7 6 5 4 6 9 12 15 18 21 23 25 25 25 24 22 21 19 18 18 19 19 19 19 19 19 19 19 20 21 23 25 27 29 30 31 30 32 34 35 37 39 41 44
8 7 6 5 6 8 10 14 16 18 20 21 22 22 22 21 19 17 15 15 17 17 17 17 16 16 17 18 21 24 25 26 26 25 25 25 27 30 32 34 37 40 43 45
9 9 9 8 8 9 11 14 15 17 18 18 18 18 18 17 16 13 12 11 11 12 14 16 16 17 17 18 18 19 19 18 18 19 21 23 26 29 33 36 39 41 43 45
11 11 11 11 11 12 13 14 14 15 15 14 14 15 14 14 13 12 10 9 7 7 8 10 10 11 11 12 12 12 13 15 16 19 21 24 28 32 35 37 39 41 43 44
14 13 13 12 13 13 13 13 14 13 13 12 12 12 11 10 9 9 8 8 7 6 6 5 5 4 4 5 6 9 12 14 17 20 24 28 31 34 36 38 39 41 42 44
17 16 16 15 14 14 14 13 12 12 10 11 11 11 10 7 6 5 4 4 4 4 4 3 2 0 2 5 8 10 13 16 20 24 28 30 32 34 36 38 40 41 43 45
19 18 17 16 16 15 14 13 12 10 9 9 10 10 9 7 5 3 1 1 2 1 1 0 2 4 6 8 10 13 17 20 24 27 29 31 33 35 37 38 40 41 44 48
20 19 18 17 15 14 13 13 11 10 9 9 10 10 9 7 5 2 1 2 2 2 3 4 5 7 9 12 15 18 21 24 26 28 30 32 33 35 37 38 41 44 47 51
20 19 18 17 16 14 14 13 12 11 10 10 10 10 8 6 4 3 3 3 4 4 5 6 8 11 13 16 19 21 23 25 27 29 31 32 34 35 38 40 44 47 51 55
20 19 18 18 16 15 15 14 13 12 12 12 12 10 8 7 5 4 5 5 5 6 8 10 12 15 17 19 21 23 25 27 28 30 31 33 35 37 40 44 47 51 55 59
18 18 18 18 17 16 15 15 15 14 14 14 13 11 9 8 7 6 6 7 8 9 12 14 16 17 19 21 23 25 26 28 29 31 32 34 37 40 44 48 51 55 60 64
17 17 18 19 18 17 16 15 15 15 15 15 13 11 9 9 8 8 9 10 11 13 15 16 18 19 21 23 24 26 28 29 30 31 34 37 40 44 48 52 56 60 65 69
16 17 18 19 19 19 18 17 16 16 15 14 12 11 10 9 10 10 11 13 14 16 17 19 20 21 23 24 26 27 28 29 31 34 36 40 44 48 52 56 61 66 70 72
16 16 16 17 18 19 18 18 17 16 15 13 12 12 11 11 11 12 13 15 16 18 19 20 21 23 24 26 27 27 28 30 33 36 39 43 47 52 57 62 66 70 73 72
15 15 14 14 15 16 17 17 17 16 15 14 13 12 12 12 13 14 16 17 18 20 21 22 23 24 25 26 27 28 29 32 35 38 42 47 52 57 62 66 71 73 71 65
15 15 14 14 14 15 16 16 16 16 15 15 14 14 14 14 16 17 18 19 20 21 22 23 24 25 26 26 27 28 31 34 37 41 46 51 56 60 65 69 71 70 63 53
15 15 15 15 16 16 16 16 16 16 16 16 16 16 16 17 18 19 19 20 21 21 22 23 25 26 26 26 28 30 33 36 40 44 49 54 58 62 66 69 68 61 50 35
15 16 17 17 17 17 17 17 17 17 18 18 18 18 18 19 19 20 20 20 21 22 23 24 25 26 26 27 29 31 35 38 43 47 51 56 59 62 65 65 59 48 34 20
16 17 19 20 20 20 20 20 20 20 20 20 20 20 20 20 20 20 21 21 22 23 24 25 26 26 26 28 30 33 36 40 44 49 54 57 59 61 61 56 46 33 21 10
18 18 19 20 21 22 22 22 21 21 21 21 21 21 21 21 21 21 21 22 23 24 25 26 26 26 27 29 31 34 38 42 46 51 54 56 58 58 54 45 33 22 12 4
21 21 22 22 22 22 23 23 22 22 22 22 22 22 22 22 22 22 23 23 24 25 26 25 25 26 27 29 32 35 39 43 48 52 54 56 56 52 43 32 23 14 7 3
25 25 25 25 25 25 25 25 24 24 24 23 23 23 23 23 23 24 24 25 26 26 25 25 25 26 27 30 33 37 40 45 49 52 54 54 51 43 32 23 16 10 5 3

GEFSNGP_500_meanwind_024.txt.gz
Wind_Speed
12 11 11 11 11 10 7 5 6 11 16 20 23 25 28 31 33 34 35 34 31 27 22 19 20 23 25 27 29 31 33 34 38 43 45 45 45 43 40 38 37 36 36 36
12 11 10 10 9 7 5 4 7 11 16 20 23 25 28 29 29 30 30 28 24 19 13 9 10 13 17 20 22 24 25 28 32 35 38 39 38 36 35 34 34 33 34 34
11 10 10 8 7 5 2 4 8 13 16 19 21 25 26 27 27 28 27 24 21 17 12 6 1 5 9 14 18 20 23 26 28 30 32 32 31 31 31 32 31 32 33 33
10 9 8 8 6 4 2 4 8 13 17 19 21 23 25 26 26 25 23 21 18 15 13 11 10 9 11 14 17 19 21 23 26 27 28 27 28 27 28 28 30 32 33 36
9 9 8 8 6 5 4 5 8 12 15 18 20 22 23 24 24 22 20 18 16 14 12 12 13 14 15 17 18 19 20 22 23 23 23 24 25 26 27 28 31 35 37 38
9 9 9 8 7 6 4 5 8 11 14 16 18 20 21 21 21 20 18 16 14 12 12 12 13 15 16 18 18 19 19 18 18 20 21 22 22 25 27 29 31 31 33 34
11 10 10 9 8 7 6 6 8 10 12 14 17 18 19 19 19 18 17 14 13 12 11 11 11 12 14 14 15 15 14 13 14 16 17 19 21 23 24 25 26 27 29 32
12 12 11 10 9 8 7 7 8 9 11 12 14 16 16 16 16 15 15 13 12 11 10 9 9 9 10 9 9 9 8 8 10 12 14 16 16 18 19 21 23 26 30 34
14 13 12 11 10 9 8 8 8 8 9 11 13 14 14 14 13 12 11 12 11 10 9 9 8 6 6 5 5 5 6 6 6 7 9 10 12 15 18 22 26 29 33 36
16 16 14 13 11 10 10 9 9 8 9 10 11 12 13 12 11 10 8 8 8 9 9 8 8 7 6 5 3 2 1 1 3 6 8 11 14 18 22 26 29 32 35 38
18 18 17 15 14 12 12 11 10 9 9 9 9 10 11 11 10 9 7 5 4 5 6 6 6 5 4 3 3 2 3 5 7 10 13 16 19 22 25 28 31 34 37 39
18 20 19 17 16 14 13 12 12 11 10 9 8 9 10 10 9 8 7 5 4 3 3 3 3 3 4 4 5 6 8 10 13 16 18 21 23 26 29 31 33 35 38 41
19 20 19 18 18 16 15 14 13 12 11 11 10 9 10 10 9 8 7 6 5 4 4 5 5 6 7 8 10 12 14 16 18 20 22 24 26 28 30 32 34 37 40 44
19 20 20 20 20 18 16 15 15 14 13 13 12 11 11 11 10 9 8 7 7 6 6 7 8 9 11 12 14 16 18 19 21 22 24 26 28 30 32 34 37 40 44 49
20 21 22 22 21 19 18 17 17 16 15 14 14 13 13 12 11 10 10 9 8 8 9 10 11 12 14 16 17 19 20 22 23 25 27 28 30 31 33 36 40 44 49 53
21 22 22 23 22 21 20 19 18 17 17 16 15 15 14 13 12 11 11 10 10 11 12 13 14 15 17 18 20 21 22 23 25 27 28 29 31 33 36 39 43 48 52 56
21 22 22 23 22 22 21 20 19 18 17 16 16 15 15 14 13 12 12 12 12 13 14 15 16 17 19 20 21 22 24 25 27 28 29 31 33 35 38 42 46 50 54 57
20 21 21 21 21 20 20 21 21 20 18 17 17 16 16 15 14 14 14 14 14 14 15 16 18 19 20 22 23 24 25 27 28 29 31 32 35 37 41 44 48 52 55 58
18 19 19 20 20 20 20 21 21 21 20 19 18 18 17 16 16 15 15 15 15 16 17 18 19 20 22 23 24 25 27 28 29 31 32 34 36 39 42 46 49 53 56 58
17 18 18 18 18 18 19 20 20 21 21 20 19 19 19 18 17 16 16 16 16 17 18 19 20 22 23 23 25 26 28 29 31 32 33 35 38 41 44 47 50 53 56 55
15 16 17 18 17 17 17 18 19 19 20 21 21 20 20 19 19 18 17 17 18 19 20 21 21 22 23 24 26 27 29 30 32 33 35 37 39 42 45 48 51 54 54 51
14 14 15 16 17 17 16 17 18 19 21 22 22 21 21 20 20 19 19 19 20 21 21 22 22 23 24 26 27 29 30 31 32 34 36 38 40 43 46 49 52 53 51 44
13 14 14 15 16 17 17 17 18 19 20 21 21 21 21 20 20 20 20 21 21 22 22 23 24 25 26 27 29 30 31 32 33 35 36 38 41 44 47 50 52 50 44 35
13 14 15 16 17 18 18 19 19 20 20 21 21 21 21 21 21 22 22 22 23 23 24 24 25 26 27 29 30 31 31 32 34 35 36 39 42 45 48 50 50 45 36 29
17 17 17 17 17 18 19 20 20 20 20 20 21 21 21 22 23 23 23 24 24 25 26 26 27 28 29 30 31 31 32 32 34 35 37 40 43 46 49 50 46 39 32 26
22 21 21 21 20 20 20 21 21 22 23 23 23 23 24 24 25 26 25 25 26 27 27 28 28 29 30 30 31 31 31 32 34 36 38 41 44 46 48 48 42 34 28 24
27 27 26 25 25 24 23 23 23 23 23 23 24 24 25 26 27 27 27 28 28 28 28 29 29 30 30 30 30 30 31 32 34 36 39 42 45 47 47 44 38 31 26 24

GEFSNGP_500_meanwind_030.txt.gz
Wind_Speed
11 12 12 12 13 13 13 12 12 11 11 11 12 14 16 19 21 24 25 25 27 28 30 33 35 36 36 34 31 28 27 28 31 34 39 42 45 47 49 51 51 51 52 52
11 11 12 13 13 12 12 12 11 11 10 10 11 13 16 19 21 22 23 24 25 25 27 29 32 33 32 28 24 21 18 18 20 23 27 30 33 35 37 39 41 42 44 45
12 12 13 13 13 12 12 12 12 11 10 9 10 12 15 18 20 21 22 22 23 23 23 25 27 29 28 24 20 16 13 11 12 15 19 20 22 24 27 29 31 33 35 37
13 13 14 13 13 13 13 13 13 12 10 9 10 12 14 17 19 21 20 21 21 21 21 23 24 24 24 22 18 14 10 6 5 7 10 14 17 18 20 22 24 26 29 33
15 15 14 14 14 14 15 15 14 12 10 9 10 12 15 17 19 20 19 19 19 19 19 20 20 20 20 19 17 16 11 6 3 3 7 9 12 15 17 19 21 23 25 27
16 15 16 15 15 16 16 15 14 12 10 9 10 13 15 17 18 18 19 18 18 18 16 17 17 18 17 17 17 17 15 12 9 9 7 7 8 10 13 15 16 18 21 24
17 16 16 16 16 17 17 15 14 12 11 11 11 13 15 16 17 17 18 18 17 16 15 14 14 15 15 14 15 15 15 13 11 8 6 6 6 6 7 10 12 15 19 22
18 18 17 17 17 17 17 16 14 13 12 12 13 14 14 15 16 16 16 16 15 14 14 13 12 12 12 13 14 14 14 12 9 7 5 4 2 1 2 5 8 11 14 17
19 19 18 18 18 18 17 16 16 15 14 14 14 14 14 15 15 15 14 14 13 13 12 12 11 11 11 11 12 12 12 13 12 10 8 6 5 4 4 6 9 12 15 18
20 20 20 20 19 19 18 17 17 16 16 15 15 14 14 14 14 13 13 13 12 12 11 10 10 10 11 11 11 11 11 11 10 10 9 8 8 8 9 11 14 16 19 22
21 21 21 21 21 20 20 19 19 18 18 17 17 16 15 15 14 13 13 12 12 11 10 9 9 9 9 10 10 10 11 11 11 11 11 11 11 12 14 15 17 19 21 23
21 22 22 22 24 23 23 22 21 20 19 19 18 17 17 16 15 14 14 13 12 11 10 9 9 9 9 10 11 11 12 12 13 13 13 14 15 16 17 18 20 21 23 26
22 23 23 24 25 25 24 24 22 21 21 20 20 19 18 17 16 16 15 14 13 12 11 10 9 9 10 11 12 13 14 14 15 15 16 16 18 19 20 21 23 24 26 29
22 22 23 24 25 26 26 25 25 23 22 22 22 21 20 19 18 17 17 15 14 13 12 12 11 11 11 12 13 14 15 16 17 17 18 19 20 21 22 24 25 27 29 32
22 22 23 24 25 26 27 27 26 25 24 24 23 23 22 21 20 19 18 17 16 15 14 13 13 13 13 14 15 16 17 18 19 19 20 21 22 24 25 26 28 30 33 36
22 23 23 24 25 26 27 27 27 27 26 25 24 23 22 21 20 19 18 18 17 16 15 15 15 15 16 16 17 18 19 20 21 22 22 24 25 26 28 29 31 33 36 38
21 22 23 23 24 26 27 28 27 27 27 26 25 24 23 22 21 20 19 18 17 17 17 16 16 17 17 18 18 20 21 22 23 23 25 26 27 29 31 32 34 36 38 40
21 22 23 23 24 25 26 27 27 27 27 27 26 25 24 22 21 20 19 19 18 18 18 18 18 18 18 19 20 21 22 23 24 26 27 28 30 31 33 34 36 37 40 42
20 20 21 22 23 24 25 26 26 26 26 26 26 25 24 23 22 21 20 20 19 19 18 18 19 19 20 21 22 23 24 25 26 28 29 31 32 34 35 36 37 38 41 43
19 19 19 20 21 22 22 23 24 25 25 25 25 24 24 24 23 22 21 21 21 20 20 20 20 21 21 22 23 24 25 26 28 29 31 32 34 35 36 37 38 40 42 44
16 17 17 18 18 19 20 21 22 23 23 24 24 24 24 24 23 23 22 22 22 22 21 22 22 22 23 23 24 25 26 27 29 31 32 34 35 36 37 37 39 41 43 45
13 14 14 15 16 17 18 19 20 21 21 22 23 23 23 24 23 23 23 23 23 23 22 22 22 23 24 24 25 26 27 29 30 32 33 34 35 36 37 38 40 42 44 46
12 12 12 13 14 15 16 17 18 19 20 21 21 22 23 23 23 24 24 24 24 23 22 22 23 24 24 25 26 27 28 30 31 33 34 35 36 36 37 39 41 43 45 47
14 14 14 15 15 15 16 16 17 18 19 20 20 21 22 22 23 24 24 24 24 23 23 24 24 25 25 26 27 28 29 31 32 33 35 35 36 36 38 40 42 44 46 48
19 19 19 19 19 19 19 19 19 19 19 19 20 20 21 22 23 23 23 23 23 24 24 25 26 27 27 28 29 30 31 32 33 34 35 35 36 37 38 41 43 45 47 49
22 22 22 23 23 23 22 22 22 22 21 22 22 22 22 22 23 23 24 24 24 25 26 27 27 28 29 29 30 31 31 32 33 34 34 35 36 37 39 42 44 46 47 49
25 25 25 25 24 24 25 25 25 25 24 24 24 25 25 26 26 26 26 26 26 27 27 28 28 29 29 29 30 31 32 32 33 34 34 35 36 38 40 43 44 46 48 49

GEFSNGP_500_meanwind_036.txt.gz
Wind_Speed
16 16 17 18 19 19 20 20 21 20 19 17 17 17 17 16 16 17 18 19 21 22 23 23 23 24 24 24 26 29 31 32 33 34 34 34 32 30 29 29 31 33 36 39
16 17 17 17 17 18 18 19 19 19 18 17 16 16 15 14 14 15 17 18 20 21 21 21 21 21 21 22 24 25 27 28 28 28 28 28 26 23 21 21 22 25 27 29
16 16 16 16 16 17 17 18 19 18 17 17 16 15 14 13 13 14 16 17 18 19 19 19 19 19 20 20 21 22 23 24 24 24 24 23 20 18 16 15 16 18 19 20
15 16 16 15 16 16 17 17 17 17 17 17 16 15 13 13 13 14 15 16 16 16 17 17 17 18 18 18 18 19 20 21 21 21 21 19 17 15 12 10 8 9 10 12
16 16 15 15 16 16 16 17 17 17 17 17 16 15 14 14 14 14 15 15 15 15 16 16 16 16 16 15 16 17 17 18 18 18 18 16 15 13 11 8 6 4 4 6
17 17 17 16 17 17 17 17 17 18 18 18 17 16 15 14 14 13 14 14 15 15 15 15 15 15 14 14 14 15 15 16 16 16 16 15 14 13 11 10 8 5 3 3
19 18 18 17 18 18 18 17 18 18 19 18 18 17 16 15 14 14 13 14 14 14 14 14 14 13 13 13 13 13 14 14 14 15 15 14 14 13 11 10 8 6 5 4
20 20 19 18 18 19 18 18 18 19 19 19 19 18 16 15 15 14 13 13 13 13 13 13 13 13 12 12 12 12 13 13 14 14 14 14 14 13 12 11 9 8 7 7
20 20 20 20 20 19 20 20 20 20 20 20 20 19 17 16 16 15 14 14 14 14 14 13 13 13 12 12 12 12 13 13 14 14 14 14 13 13 12 11 11 10 10 10
20 20 21 21 20 21 21 21 22 22 22 21 20 20 19 18 17 16 15 15 15 14 14 14 13 13 13 12 12 12 13 13 14 14 14 14 13 13 13 13 13 13 13 13
21 21 21 21 21 22 22 23 23 23 23 22 21 21 20 19 18 17 17 16 16 16 15 14 14 14 14 14 13 13 13 14 15 15 15 14 14 14 14 15 15 15 16 17
21 21 21 21 22 22 23 23 24 24 24 24 23 22 21 20 19 19 18 17 17 17 16 15 15 15 15 15 15 15 15 15 16 16 16 16 16 16 17 17 18 18 19 20
22 22 21 21 22 22 23 24 24 25 25 25 24 24 23 22 21 20 20 19 18 18 18 17 17 16 16 16 16 16 16 17 17 17 18 18 18 18 19 19 20 21 22 24
22 22 22 22 22 23 23 24 24 24 25 26 26 25 24 23 23 22 21 21 20 20 19 19 18 18 17 17 17 18 18 18 18 19 19 19 19 20 21 22 23 24 25 27
23 22 22 22 22 23 24 24 24 25 25 26 26 26 26 25 24 24 23 22 22 21 21 20 19 19 19 19 19 19 19 19 20 20 20 21 21 22 23 24 25 26 28 30
22 21 22 22 23 23 24 25 25 25 25 26 26 27 27 27 26 25 24 23 23 22 21 21 20 20 20 20 21 21 21 21 21 21 21 22 23 24 25 26 27 29 30 32
21 20 21 22 22 23 24 25 25 26 26 26 27 27 27 27 27 26 25 25 24 23 22 22 21 21 21 21 22 22 22 22 22 22 23 24 25 26 27 28 29 31 32 33
19 19 20 21 22 22 23 24 25 25 25 26 26 27 27 27 27 27 26 26 25 24 23 23 22 22 22 22 23 23 24 24 23 24 24 25 26 27 28 30 31 32 33 34
18 18 19 20 21 22 22 23 24 25 25 25 26 26 27 27 27 27 27 26 25 24 23 23 23 23 24 24 24 24 24 24 24 25 25 26 27 28 30 31 32 33 34 35
18 18 18 19 20 20 21 22 23 24 24 25 25 26 26 27 27 26 26 26 26 26 25 25 24 24 25 25 24 25 25 25 25 26 27 27 28 29 30 32 33 34 35 36
17 18 18 19 19 19 20 20 21 22 23 23 24 25 25 26 26 25 25 26 26 26 26 26 26 25 25 25 25 25 25 25 25 26 27 28 28 30 31 32 33 34 35 37
17 17 18 18 18 17 18 18 19 19 20 21 22 23 24 24 25 25 25 26 26 26 26 26 26 26 26 26 26 26 26 26 26 26 27 28 29 31 32 33 34 35 36 37
17 17 17 16 17 17 17 17 18 18 19 19 20 20 21 22 23 24 25 26 26 26 26 26 26 26 26 26 26 26 26 26 27 27 28 29 30 32 33 34 34 35 36 38
16 16 16 16 16 17 17 17 17 18 18 19 20 20 20 21 22 23 24 24 25 25 26 26 27 27 27 27 27 27 27 27 28 28 29 30 31 32 33 34 35 36 37 39
17 17 17 17 18 18 19 19 19 19 19 20 21 21 21 22 22 22 23 24 24 25 26 26 27 27 27 27 28 28 28 28 29 29 31 32 32 33 33 34 35 37 38 40
19 19 20 20 20 21 21 21 21 21 21 21 21 21 22 22 23 23 23 24 24 25 26 26 27 27 28 28 28 29 29 29 29 30 31 31 32 33 33 35 36 37 38 40
22 22 22 22 22 22 22 23 23 23 23 23 22 22 22 22 23 23 24 25 25 26 26 27 27 27 28 28 29 29 30 30 30 31 31 31 32 33 34 35 36 37 39 41

GEFSNGP_500_meanwind_042.txt.gz
Wind_Speed
18 19 20 21 21 21 21 21 24 26 27 24 24 24 24 25 26 25 24 24 23 23 23 24 24 25 26 27 27 27 27 28 28 29 30 31 32 33 34 35 35 36 36 35
17 18 19 20 21 21 21 21 22 24 24 23 23 23 24 24 24 23 22 22 21 21 21 22 22 22 23 24 25 25 26 27 28 28 29 30 31 31 31 32 32 33 32 31
16 17 18 18 18 19 19 20 22 22 22 22 21 22 23 22 22 22 21 20 20 19 19 19 20 20 21 22 23 24 25 26 26 27 28 29 29 29 29 29 30 29 28 26
16 16 16 15 16 17 18 20 20 20 21 21 20 21 22 22 21 20 19 19 17 17 17 17 18 19 19 20 21 22 23 24 25 26 26 26 26 26 26 26 26 26 25 24
15 15 14 14 15 16 16 17 18 19 20 20 20 21 21 21 20 19 18 16 16 16 16 16 17 17 18 19 20 21 21 22 22 23 23 23 23 24 24 24 24 23 22 22
15 15 15 13 14 15 16 16 17 18 18 19 20 20 20 20 19 17 16 15 15 15 15 15 16 16 17 18 18 19 19 19 20 20 21 21 21 22 22 22 22 21 20 20
16 16 15 14 15 16 16 15 16 17 18 18 19 19 20 19 18 17 16 15 15 15 15 15 15 16 16 17 17 17 18 18 19 19 19 20 20 21 21 21 20 20 20 20
18 18 16 17 17 17 16 16 17 17 18 18 19 19 19 19 18 17 16 16 15 15 15 15 15 16 16 17 17 17 17 18 18 19 19 19 20 20 20 20 20 20 20 20
21 20 19 19 19 18 18 18 18 18 19 19 19 20 20 20 19 19 18 17 17 17 16 16 16 16 17 17 18 18 18 18 19 19 19 20 20 21 21 21 21 21 20 20
22 21 21 20 20 20 20 20 20 20 20 21 21 21 22 21 21 20 20 19 18 18 18 18 18 18 18 18 19 19 19 19 20 20 20 21 21 21 22 21 21 21 21 21
25 24 23 22 21 21 21 21 21 21 22 22 22 23 23 23 22 22 21 21 20 20 20 19 19 19 19 20 20 20 20 21 21 22 22 22 22 22 23 23 23 22 22 23
27 27 26 24 24 23 22 22 22 22 22 23 23 24 24 24 24 24 23 22 22 22 21 21 21 21 21 21 21 22 22 22 23 23 23 23 24 24 24 24 24 24 24 25
29 29 28 26 25 24 23 23 23 23 24 24 24 24 25 25 25 25 25 24 24 23 23 23 23 23 23 22 23 23 23 24 24 24 24 25 25 26 26 26 26 27 27 27
32 30 29 27 26 25 24 23 23 24 24 25 25 26 26 26 26 26 26 26 25 25 25 25 25 25 25 25 24 24 25 25 25 25 26 26 27 27 27 28 28 28 29 29
33 32 30 29 27 26 25 24 24 24 25 25 26 26 26 26 26 27 27 27 27 27 26 26 26 26 26 26 26 26 26 26 26 26 27 27 28 28 29 29 29 29 30 31
33 33 31 30 28 27 26 25 25 25 25 26 26 26 27 27 27 27 28 28 29 28 28 28 28 28 27 27 27 27 27 27 27 27 28 28 28 29 29 30 30 31 31 32
32 32 31 29 28 27 26 25 25 25 26 26 27 27 27 28 28 28 29 29 29 29 30 30 30 29 29 28 28 28 27 27 28 28 29 29 29 30 30 31 31 31 32 33
29 29 28 27 27 25 25 24 24 25 25 26 26 27 28 28 28 29 29 29 29 29 30 30 30 30 30 29 29 28 28 28 29 29 30 30 30 31 31 31 32 32 33 34
22 24 24 24 24 23 22 22 23 23 24 24 25 26 26 27 28 28 28 29 29 29 30 30 30 30 30 30 29 29 29 29 29 30 30 31 31 32 32 32 32 33 33 34
18 20 21 21 21 21 21 21 22 22 22 23 24 24 25 26 27 28 28 28 28 29 30 30 30 30 30 30 30 30 31 31 31 31 31 31 32 32 32 32 32 33 34 35
17 18 19 19 20 20 20 21 21 21 22 22 23 23 24 25 26 27 27 28 29 29 30 30 30 30 30 30 31 31 31 31 32 32 32 32 32 32 32 32 33 34 34 36
16 17 17 18 19 19 19 20 20 21 21 21 21 22 23 24 25 26 27 27 28 28 28 29 29 30 30 30 30 31 31 32 33 32 32 32 31 32 32 33 33 34 35 37
16 17 17 18 18 18 18 19 19 20 20 20 20 21 21 22 23 24 25 26 26 26 26 27 28 28 29 30 30 30 31 32 32 32 31 31 32 32 33 33 34 35 36 37
17 17 18 18 18 18 18 18 18 19 19 20 20 20 21 21 22 23 24 24 25 25 26 26 26 27 28 28 28 29 30 30 30 31 31 32 32 33 33 34 35 36 37 38
18 18 19 19 19 19 19 19 19 18 19 19 19 20 21 21 22 22 22 23 24 24 25 25 26 26 26 27 28 28 29 29 29 30 31 31 32 33 33 34 35 36 37 38
20 20 20 20 20 20 20 20 20 20 20 20 21 21 22 22 22 22 22 22 22 23 23 24 25 26 27 28 28 28 28 29 29 30 31 31 32 33 34 35 36 37 38 39
23 23 22 22 22 22 22 23 23 23 24 24 24 24 24 23 23 23 23 23 23 23 23 23 23 24 24 25 26 27 28 29 30 30 31 32 33 33 34 35 36 37 38 39

GEFSNGP_500_meanwind_048.txt.gz
Wind_Speed
19 19 20 20 21 22 22 22 23 22 23 23 24 24 25 25 26 28 30 30 31 31 30 30 30 29 29 28 28 28 29 29 29 29 30 30 30 30 30 31 31 32 33 34
19 19 19 19 20 20 21 21 21 22 22 21 22 23 23 24 25 26 26 27 27 27 26 26 26 26 26 26 26 26 25 25 25 26 26 27 27 28 28 29 30 31 31 32
18 19 19 17 17 19 19 19 21 21 19 22 21 21 23 25 25 24 24 23 23 23 23 23 23 23 23 23 23 22 22 22 23 23 24 24 25 25 26 27 28 29 29 29
15 17 17 15 16 17 17 19 19 19 21 21 20 20 22 24 24 23 22 21 21 21 21 21 21 21 21 20 20 20 20 20 21 21 21 22 22 23 24 25 26 26 27 27
15 15 14 14 15 15 15 16 18 18 19 20 19 20 21 22 22 21 21 20 20 20 20 20 20 20 20 19 18 18 18 18 18 18 19 20 20 21 22 23 24 25 26 26
15 15 14 14 15 14 14 15 15 16 17 17 17 18 19 21 20 20 20 20 20 20 20 20 19 19 19 18 17 17 16 16 17 17 18 18 19 21 22 23 24 24 25 25
15 15 14 14 14 14 14 13 14 14 15 16 17 18 19 19 19 20 20 21 21 20 20 20 19 18 18 18 17 16 16 16 16 17 18 19 20 21 22 23 24 24 25 25
17 16 15 15 15 15 14 14 14 14 15 16 17 17 18 18 19 20 21 21 21 20 20 19 19 18 17 17 16 16 16 16 17 17 18 19 21 22 23 24 24 25 26 26
18 18 17 17 17 16 16 16 16 16 16 16 17 17 18 19 19 20 21 21 21 21 21 20 19 19 18 17 17 17 17 18 18 19 20 21 22 23 24 24 25 26 26 27
20 20 20 20 19 18 17 17 17 17 16 17 17 17 18 19 20 20 21 22 22 22 22 21 21 20 20 19 19 19 19 19 20 20 21 22 23 24 24 25 26 26 27 28
23 23 23 22 22 21 20 19 19 18 18 18 19 19 20 20 21 21 22 23 23 23 23 23 23 22 22 21 21 21 21 21 21 22 23 24 25 25 25 26 27 27 28 29
25 25 26 24 24 24 23 22 21 21 20 20 21 21 22 23 23 24 24 25 25 25 25 25 25 24 24 24 24 24 24 23 24 24 25 25 26 26 27 27 28 28 29 29
28 28 28 26 26 25 25 25 25 23 22 22 22 22 23 24 24 25 26 27 27 27 27 27 27 27 27 26 26 26 26 27 27 27 27 27 28 28 28 29 29 29 30 30
29 30 29 27 27 27 27 26 26 25 25 24 23 23 24 24 25 26 26 27 28 28 28 29 29 29 29 29 29 29 29 29 29 29 30 30 30 30 30 30 30 31 31 31
29 30 29 28 28 29 29 28 28 27 26 25 25 24 24 24 25 26 27 27 28 29 29 30 31 31 31 31 31 31 31 31 31 31 31 31 31 31 31 32 32 32 32 33
26 28 29 30 30 30 30 29 28 28 27 26 26 26 25 25 25 26 27 28 28 29 30 31 31 32 32 33 33 33 33 33 33 33 33 33 33 32 32 33 33 34 34 34
22 24 27 28 29 29 30 30 30 29 28 27 26 26 26 26 26 27 27 28 29 30 31 31 32 33 33 33 33 34 35 35 34 34 34 34 34 33 33 34 34 34 35 35
18 20 22 24 27 28 29 30 29 28 28 28 27 26 26 25 25 26 27 28 28 29 31 31 32 33 33 33 34 34 34 34 34 34 34 34 34 34 34 34 35 35 35 36
13 14 15 18 21 24 26 27 27 27 26 26 25 24 24 24 24 24 25 26 27 28 29 30 31 32 32 33 33 33 34 34 33 34 34 35 35 35 35 36 36 36 37 37
11 11 12 13 14 17 20 24 25 25 25 24 23 23 23 23 23 23 24 25 26 27 28 29 30 31 32 32 33 33 33 33 33 34 34 34 34 35 35 36 37 37 38 38
12 12 13 14 14 15 16 18 20 21 22 22 22 22 22 22 22 23 23 24 24 25 27 28 29 30 31 31 32 32 32 32 32 33 33 33 34 34 35 36 37 37 37 37
13 13 13 14 15 15 16 17 18 20 20 21 21 21 21 22 22 22 23 23 24 24 25 26 27 28 29 29 30 30 30 31 31 31 31 32 33 33 34 35 35 36 36 36
14 14 15 15 15 16 17 18 19 19 19 20 20 21 21 21 21 22 22 23 23 23 24 24 25 26 27 28 28 29 29 29 29 30 31 31 31 32 33 34 34 34 35 37
17 17 17 18 18 18 19 19 20 20 20 21 21 21 21 20 20 20 21 21 22 22 23 23 24 25 25 25 26 27 27 28 28 29 29 29 30 31 32 32 33 34 36 37
20 20 19 20 20 20 20 21 21 21 21 22 21 21 20 20 20 20 20 21 21 22 23 24 24 24 24 24 24 25 25 26 27 27 28 29 30 31 31 32 33 34 35 36
23 23 23 22 22 22 22 22 22 22 23 23 22 22 21 21 21 21 22 23 24 24 24 24 24 25 24 24 25 25 25 26 26 27 27 28 29 29 31 32 33 35 36 37
26 26 26 25 25 25 24 24 24 24 24 24 24 23 23 23 23 24 24 25 25 26 26 26 26 26 25 25 25 26 26 26 27 27 28 29 30 31 32 33 34 35 36 37

GEFSNGP_500_meanwind_054.txt.gz
Wind_Speed
22 23 25 25 26 27 29 28 28 24 23 21 24 27 27 28 28 29 30 31 32 33 35 36 38 39 39 39 40 40 40 40 40 39 39 38 38 37 37 36 35 35 34 34
21 23 24 24 24 25 26 26 26 25 22 21 25 27 27 28 29 29 30 31 32 33 34 34 36 37 37 37 37 37 37 37 37 36 35 35 35 34 33 32 32 31 31 31
21 22 23 22 22 24 25 24 26 25 21 24 26 26 26 27 29 29 31 32 32 33 33 34 35 35 35 35 34 34 33 33 33 33 33 32 31 30 30 29 29 29 28 28
19 21 21 20 21 23 23 23 24 24 22 24 26 26 26 26 27 28 29 31 32 31 32 32 32 32 32 32 32 32 31 31 31 30 30 29 28 28 27 27 26 26 26 26
18 19 19 20 20 21 21 21 23 22 22 23 24 24 23 24 26 26 27 28 29 28 28 29 29 29 29 30 30 30 29 28 28 28 27 27 26 26 25 24 24 24 24 25
17 17 17 18 19 19 20 21 21 21 20 21 21 21 21 25 26 26 26 26 26 26 26 27 27 27 27 27 27 27 26 26 26 26 25 25 24 23 23 22 22 23 23 24
18 18 17 18 18 19 20 20 19 20 19 19 19 20 22 23 23 24 24 24 24 25 25 25 25 25 25 26 25 25 25 25 25 24 24 23 22 22 21 21 22 23 24 25
20 19 19 19 19 19 19 19 19 19 18 18 18 19 20 21 21 21 22 22 23 23 24 24 24 24 24 24 24 24 24 24 24 24 23 23 22 22 22 22 23 24 25 26
21 21 21 21 21 21 20 20 20 19 19 18 18 18 19 19 20 20 20 21 21 21 21 23 23 24 24 24 24 23 23 23 23 23 23 23 22 23 23 23 24 25 27 27
22 22 23 23 23 22 22 21 21 21 20 20 20 19 19 20 20 20 20 21 21 21 21 22 23 23 23 23 24 24 24 24 24 24 24 24 24 24 25 25 26 28 29 29
25 25 25 24 24 24 24 23 23 23 22 22 21 21 20 20 20 20 20 21 21 21 22 22 23 23 24 24 24 24 25 25 25 25 25 25 26 26 27 28 28 29 30 31
27 27 27 26 27 27 26 26 25 25 24 24 23 22 22 21 21 21 21 22 22 22 23 23 24 24 24 25 25 26 26 26 27 27 27 28 28 28 29 30 30 31 32 32
28 28 28 27 28 29 29 28 28 27 27 26 25 25 24 24 23 23 23 23 24 24 25 25 25 26 27 27 27 27 28 28 29 29 30 30 31 31 32 32 33 33 34 34
29 28 28 29 29 30 30 30 30 29 29 29 28 28 27 26 26 25 25 24 25 25 26 27 27 28 28 28 29 29 30 30 31 32 32 32 33 33 34 35 35 35 36 36
27 27 28 29 30 31 31 31 31 31 30 30 30 29 29 29 28 27 26 26 26 26 27 27 28 29 29 29 30 30 31 31 32 33 33 34 34 35 35 36 36 37 37 37
25 26 27 28 29 31 32 32 32 32 32 31 31 30 30 30 29 29 28 28 27 27 27 27 27 28 29 29 30 31 31 32 33 33 34 35 35 36 36 36 36 37 37 38
22 22 23 24 26 27 29 30 31 32 32 32 32 32 31 31 30 30 29 29 28 28 28 28 28 29 29 30 31 31 32 32 33 33 34 34 34 35 35 35 36 36 37 38
20 21 22 22 22 23 25 26 27 29 32 33 32 32 32 32 31 30 30 29 29 28 28 28 28 28 29 30 30 31 32 32 32 33 33 34 34 34 35 35 35 36 36 37
20 21 20 20 19 20 21 22 24 26 29 30 30 31 31 31 30 29 29 28 28 27 27 27 27 28 28 29 30 30 31 32 32 33 33 34 34 35 35 35 35 35 36 36
21 21 19 19 19 19 19 20 21 22 24 25 26 27 28 29 29 28 28 27 26 26 25 26 26 27 27 28 29 30 31 31 32 33 34 34 35 35 35 35 34 34 35 36
22 21 20 19 19 19 18 18 18 19 20 21 22 24 25 27 28 27 26 25 25 25 25 25 25 26 27 27 28 29 30 31 31 32 32 33 33 33 34 34 34 34 35 35
24 23 22 21 20 20 19 19 19 19 19 20 21 22 23 25 26 27 26 26 25 25 25 25 25 26 27 27 28 28 29 29 29 29 29 30 31 31 32 32 33 33 33 34
26 24 23 22 21 21 21 21 21 20 20 20 21 22 22 22 23 25 25 26 26 25 25 25 25 25 26 26 27 27 27 28 28 28 28 29 29 29 30 30 31 32 32 33
27 26 25 24 23 22 23 23 22 22 22 22 23 23 22 22 23 23 24 25 25 25 24 25 25 25 25 25 26 26 27 27 28 28 28 29 29 29 29 30 31 32 32 33
28 27 26 25 24 24 24 24 24 24 24 23 24 24 24 24 24 24 24 24 24 24 24 24 24 24 25 25 25 26 26 27 28 29 29 29 29 29 29 30 31 31 32 32
30 29 27 26 25 24 24 24 24 24 24 24 24 24 24 24 24 24 24 24 25 25 25 24 24 24 24 25 26 26 27 27 27 28 28 28 28 28 29 29 30 30 31 33
30 30 29 28 28 27 26 25 25 25 26 26 26 25 25 25 25 25 25 25 26 26 26 25 25 25 26 26 27 27 28 28 27 27 27 27 27 28 29 29 30 31 32 33

GEFSNGP_500_meanwind_060.txt.gz
Wind_Speed
20 21 22 23 23 24 25 25 26 24 23 22 24 27 28 28 28 29 29 31 32 33 33 34 36 37 38 39 40 41 42 42 43 44 44 44 44 44 43 43 42 42 42 41
20 21 23 23 24 24 25 25 25 25 24 25 26 28 28 28 28 28 29 30 31 32 32 33 34 35 36 37 38 39 40 40 41 41 41 41 41 41 41 41 40 40 39 39
20 21 23 23 23 24 25 25 26 26 25 26 26 27 28 29 28 28 28 30 31 32 32 33 33 34 35 36 37 37 38 38 38 39 39 39 38 37 37 37 37 37 36 36
20 21 23 23 23 24 25 26 27 26 25 26 26 27 28 29 28 28 29 30 30 31 32 33 33 34 35 35 36 36 36 36 37 37 37 36 36 35 35 35 34 35 34 34
20 21 22 23 23 24 26 27 27 26 25 25 25 25 27 28 28 28 29 30 30 31 31 32 32 33 33 34 34 35 35 34 34 34 34 34 34 33 33 32 32 32 32 32
19 20 21 22 22 24 25 26 26 25 25 24 24 24 25 27 27 27 27 28 28 29 29 30 31 31 32 32 32 32 32 32 32 32 32 31 31 31 31 30 30 30 30 29
20 21 22 21 21 22 23 24 24 24 24 24 24 24 24 25 25 25 25 26 26 27 28 28 28 28 29 29 30 29 28 28 29 29 29 29 29 29 29 28 28 28 28 28
20 21 22 21 21 22 22 22 22 22 22 22 23 23 23 23 23 23 24 24 24 25 25 26 27 27 27 27 27 27 27 27 27 27 28 28 28 27 27 27 27 27 26 27
21 21 22 21 21 22 22 23 23 23 23 23 23 23 23 22 22 22 23 23 23 24 24 24 25 26 26 25 25 25 26 26 26 26 26 26 26 26 26 26 26 26 26 27
22 22 22 22 22 22 22 22 23 23 23 23 23 23 23 23 22 22 22 23 23 23 23 23 24 24 24 24 24 24 24 25 25 25 25 25 25 25 25 25 25 26 26 27
23 23 24 24 24 24 24 24 24 24 24 24 24 23 23 23 23 23 23 22 23 23 23 23 23 24 23 23 23 23 23 23 24 24 25 25 25 26 26 26 26 26 27 28
24 25 25 25 26 26 26 26 27 26 26 26 25 25 25 24 24 24 24 23 23 23 23 22 22 23 23 23 23 23 23 23 24 24 24 25 25 25 26 27 27 28 29 30
24 25 26 26 27 27 28 28 28 28 28 27 27 27 26 26 26 26 26 25 24 24 24 23 24 23 23 24 24 25 25 25 25 25 25 26 26 26 27 28 29 30 31 32
23 25 25 26 27 29 29 30 30 30 30 29 29 29 28 28 28 28 27 27 26 26 26 25 25 25 25 25 25 26 26 27 27 28 28 28 29 29 30 30 31 32 32 33
21 23 24 25 27 28 29 30 30 31 31 31 30 30 30 29 29 28 28 28 28 28 28 27 27 27 26 26 27 27 27 28 28 29 29 30 30 31 31 32 33 33 34 35
20 22 24 26 27 27 28 29 30 31 31 31 31 31 31 31 30 30 29 29 29 29 29 29 29 29 28 28 28 28 28 29 29 30 30 31 31 32 32 33 33 34 34 35
22 24 25 26 27 27 27 27 27 28 29 30 31 31 31 31 31 31 31 31 31 30 30 30 30 30 30 29 29 29 29 30 30 30 30 31 32 32 33 33 34 34 35 36
24 25 25 25 25 26 26 27 27 28 28 29 29 30 30 30 30 31 32 33 33 32 32 31 31 30 30 30 30 30 30 30 30 30 30 31 31 32 32 33 34 34 35 36
26 26 27 27 26 26 25 25 25 26 27 28 28 29 29 28 29 29 30 32 32 32 32 32 31 31 31 30 30 30 30 29 29 29 29 30 30 31 32 32 33 34 35 36
30 30 29 29 28 28 26 25 24 23 24 24 24 26 27 28 27 28 29 29 31 31 31 31 31 31 30 29 29 29 28 28 28 29 29 29 30 30 31 32 33 34 34 35
33 32 31 30 29 28 27 26 25 23 23 23 23 24 26 26 27 27 27 27 28 29 29 29 29 29 29 28 28 28 28 28 28 28 28 28 29 29 30 31 31 32 33 34
35 34 33 31 30 29 28 27 26 25 24 24 24 24 24 25 26 26 27 27 27 27 28 27 27 28 28 28 28 28 28 28 27 28 28 28 28 29 30 30 30 31 31 32
36 34 32 31 30 29 28 28 27 27 26 26 26 25 24 25 25 26 26 26 27 27 27 28 28 29 29 29 28 28 27 27 27 27 27 28 28 28 29 29 30 30 31 31
36 34 32 31 30 29 29 28 28 27 27 26 26 26 26 25 25 25 25 25 26 27 27 28 28 28 29 29 28 28 27 27 27 27 27 27 27 28 28 29 29 30 30 31
36 34 32 31 30 29 29 28 27 27 27 26 27 27 26 26 26 25 25 25 26 26 26 26 27 27 27 28 28 28 27 27 27 26 26 27 27 27 28 28 29 29 29 29
35 32 30 29 28 28 28 28 27 27 26 26 26 27 27 27 27 27 26 26 26 26 26 26 26 26 26 27 27 27 27 27 26 26 26 26 26 27 27 28 28 28 28 28
33 31 30 29 28 27 27 27 28 28 27 27 27 27 27 27 27 27 27 26 26 26 26 26 26 26 26 27 27 27 27 27 27 27 27 27 27 27 27 27 27 28 28 29

GEFSNGP_500_meanwind_066.txt.gz
Wind_Speed
14 14 14 15 17 18 20 21 22 21 22 22 24 25 25 26 26 27 27 28 29 30 31 31 31 32 33 34 35 35 36 37 38 39 40 41 42 43 44 44 45 45 45 45
16 17 17 17 18 19 20 21 22 22 22 23 25 25 25 26 26 27 28 29 30 30 31 31 32 32 32 33 34 35 36 36 37 38 39 39 40 41 41 42 42 43 43 43
17 18 19 20 19 21 22 23 23 24 24 25 25 25 26 27 28 29 29 29 30 31 31 31 31 32 32 32 33 34 35 35 36 37 38 38 39 39 40 40 40 40 41 41
19 20 21 21 21 21 23 24 24 25 26 26 26 26 27 28 28 29 29 30 30 31 32 32 32 32 32 32 33 33 34 35 36 36 37 37 38 38 38 38 38 38 38 39
20 22 23 22 21 22 23 24 24 25 26 26 26 27 28 28 28 29 29 30 30 30 31 31 31 32 32 33 33 33 34 35 35 36 36 37 37 37 37 37 37 36 36 36
21 22 23 23 22 23 25 26 25 26 27 27 27 28 29 29 30 30 30 30 30 31 31 31 31 32 32 32 33 33 34 34 35 35 35 35 35 35 35 35 34 34 33 33
21 22 24 23 23 24 25 26 26 27 27 28 29 29 29 30 30 30 30 30 30 31 31 31 31 31 31 31 32 32 33 33 33 33 33 33 33 33 32 32 31 30 30 30
21 22 23 23 23 24 25 26 26 27 28 28 29 29 30 30 30 31 31 30 30 30 30 30 30 30 30 30 30 31 31 31 32 32 32 32 31 30 30 29 28 28 28 27
22 23 24 24 24 25 26 26 27 27 28 28 29 29 30 30 30 31 31 31 31 30 30 30 29 29 29 29 29 29 30 30 31 31 30 29 28 28 27 27 27 27 27 27
21 23 25 26 26 27 28 28 28 28 29 29 29 29 30 30 31 31 31 31 30 30 30 30 30 29 29 29 29 29 29 29 29 28 28 27 27 26 26 26 26 25 25 26
21 23 25 26 27 28 28 29 29 30 30 31 31 30 30 30 31 31 31 31 30 30 30 30 30 30 30 30 29 29 28 28 28 28 27 27 27 26 24 24 24 24 24 25
19 22 24 26 28 29 29 30 30 31 31 32 32 32 32 31 31 31 32 32 32 31 31 31 30 30 30 30 30 29 28 28 27 27 26 26 26 25 25 24 24 24 24 25
19 21 23 25 26 28 29 30 30 31 32 33 33 34 34 33 33 33 33 33 33 33 32 32 31 30 31 30 30 29 29 28 27 27 27 26 26 26 26 25 25 25 26 26
20 22 23 25 26 27 29 29 30 31 32 33 34 35 35 36 35 35 35 34 34 34 33 33 33 32 32 31 30 29 29 29 28 27 26 26 26 27 27 27 27 28 28 29
22 23 24 26 27 28 30 31 32 33 34 35 36 36 36 37 37 37 36 35 34 34 34 33 33 33 33 33 32 31 30 30 30 29 29 28 28 28 28 28 29 29 30 30
25 26 26 27 28 29 30 31 33 34 35 36 37 37 37 37 37 37 37 36 35 35 35 34 34 34 33 33 32 32 31 31 30 30 30 29 29 29 30 30 30 30 31 32
29 29 30 31 32 33 34 35 35 35 35 36 37 37 36 35 35 35 35 35 35 34 34 35 35 35 34 33 32 32 32 32 32 31 31 31 31 31 31 31 31 32 32 32
33 33 34 34 35 36 37 37 37 38 37 37 37 37 36 35 34 34 35 35 34 34 34 34 33 34 34 33 33 33 33 32 32 33 33 33 32 32 32 32 32 32 32 33
36 37 37 38 38 38 38 38 38 38 37 37 36 34 33 33 33 33 34 34 34 34 34 34 34 34 34 34 34 34 33 33 33 33 32 32 32 31 31 31 30 30 31 32
39 39 39 40 40 40 39 38 37 36 35 35 34 33 32 32 32 33 33 33 33 33 33 34 34 34 34 34 34 34 34 34 33 32 32 31 31 30 30 30 30 30 30 30
42 42 42 42 42 41 39 38 37 36 35 34 33 32 32 32 33 34 34 34 34 33 33 33 33 32 32 32 33 33 33 33 33 32 31 31 30 30 30 30 30 30 30 30
44 44 44 43 42 40 40 39 38 37 35 34 33 32 32 32 32 31 31 31 32 33 32 31 31 31 30 30 30 31 31 31 31 31 30 30 30 30 30 30 30 30 30 31
46 46 45 44 43 41 40 39 37 36 34 32 31 30 30 29 28 27 27 28 29 30 31 31 31 30 29 29 28 29 30 30 30 30 30 29 29 30 30 30 30 30 31 31
48 48 47 45 44 42 39 37 35 33 32 30 29 28 27 27 26 26 25 26 27 28 29 29 30 30 29 29 28 28 28 29 29 30 30 29 29 29 29 29 29 29 30 30
50 49 47 45 43 41 37 35 34 32 30 29 28 27 26 25 25 25 25 25 26 27 27 28 29 29 29 29 28 28 27 28 28 29 29 30 30 30 29 29 29 28 28 29
50 47 45 43 41 39 36 34 32 30 29 28 27 26 25 25 25 25 25 25 26 26 27 28 28 28 28 28 28 27 27 27 28 29 29 30 30 30 29 29 29 29 29 29
49 46 44 42 40 38 36 33 31 29 28 27 26 25 25 24 25 25 25 25 25 26 27 28 28 28 28 27 27 27 27 27 27 27 28 28 29 29 28 28 28 28 29 29

GEFSNGP_500_meanwind_072.txt.gz
Wind_Speed
10 11 12 13 14 16 18 18 19 18 19 20 22 23 24 25 26 27 29 31 32 33 34 35 36 36 36 37 37 37 37 37 38 39 39 40 41 41 42 43 43 44 44 44
11 12 13 13 14 16 18 19 20 20 21 22 24 25 26 27 27 29 30 31 32 33 34 35 36 37 37 37 38 38 38 38 38 38 39 40 40 41 41 42 42 43 43 43
12 13 15 15 16 18 18 19 20 21 22 23 25 26 27 28 29 30 31 31 32 33 34 35 36 37 37 37 38 38 38 39 39 39 40 40 40 41 41 42 42 42 42 41
13 15 16 16 18 19 20 21 22 23 24 26 27 28 29 30 30 31 32 33 33 34 35 36 37 37 38 38 38 39 39 39 40 40 40 40 40 40 41 41 41 41 41 41
13 15 17 18 18 20 21 22 23 25 26 27 29 30 31 32 32 33 33 34 34 35 36 36 37 38 38 38 39 39 39 39 40 40 40 40 40 40 40 40 40 40 40 40
13 14 16 18 20 21 23 23 24 25 27 28 29 30 31 33 34 34 35 35 36 36 36 37 37 37 37 38 38 38 39 39 39 39 39 39 39 39 39 39 40 39 39 39
12 14 15 17 19 21 22 23 25 26 28 29 30 31 32 34 35 36 36 37 37 37 37 38 38 37 37 37 38 38 39 39 39 39 39 39 39 39 39 39 38 38 38 37
11 13 14 17 18 20 22 24 25 26 28 29 31 32 33 34 35 36 37 37 38 38 38 39 39 38 38 38 38 38 38 38 39 39 39 38 38 37 37 37 37 37 36 35
10 12 14 16 18 20 22 24 25 27 28 29 30 32 33 34 35 36 37 38 38 39 39 39 39 39 39 39 39 38 38 38 37 37 38 37 37 36 36 36 35 35 34 34
10 11 14 16 18 20 22 25 27 28 29 30 31 32 33 34 35 35 36 37 38 38 38 39 39 39 39 39 39 38 38 38 37 37 37 37 36 35 35 35 34 33 32 31
11 12 14 16 19 21 23 26 28 29 31 32 32 33 33 34 35 35 35 36 36 36 37 37 37 38 38 38 38 38 38 38 37 37 36 36 36 35 35 34 33 32 31 30
13 15 16 18 20 23 25 27 28 30 31 33 33 33 34 35 35 36 35 35 36 36 36 36 37 37 37 38 38 38 38 38 37 37 36 36 35 35 34 33 32 31 30 30
16 17 19 21 23 25 27 29 30 31 32 33 34 35 36 37 38 38 38 37 37 37 37 37 36 36 37 38 38 38 38 37 37 37 36 36 35 35 34 33 31 31 30 30
19 20 22 23 25 27 29 31 32 33 34 35 36 37 38 38 39 40 40 40 39 38 38 38 38 37 37 38 38 38 37 37 36 36 36 36 36 35 34 33 32 31 30 30
22 23 25 26 28 30 31 33 34 35 36 37 39 40 41 42 42 42 42 42 42 41 41 40 39 38 38 38 38 38 37 37 37 37 36 36 36 36 35 34 33 33 32 31
26 27 28 30 31 33 34 35 36 36 38 39 41 42 43 43 44 44 44 44 44 44 43 42 41 40 39 38 38 38 38 37 38 38 37 37 37 37 36 35 35 34 33 32
29 31 33 34 35 36 37 38 38 39 40 41 41 41 42 42 42 43 43 43 43 43 43 43 43 42 41 39 38 38 38 38 38 38 38 38 37 37 36 36 35 34 33 33
33 35 37 38 39 39 40 40 40 41 41 40 39 39 39 39 39 39 39 38 37 38 39 40 41 42 41 41 40 39 39 38 38 37 36 37 37 36 36 35 35 34 34 34
37 39 40 41 42 42 42 42 42 41 41 40 39 38 38 37 37 37 38 37 37 37 36 37 38 39 40 40 40 39 39 39 38 37 36 36 36 36 36 36 36 35 35 35
41 43 43 44 44 44 44 44 44 43 42 40 39 38 37 36 36 36 36 36 36 36 36 36 36 37 38 38 39 39 38 38 38 37 36 35 35 35 35 35 35 35 34 34
45 46 46 46 46 46 46 45 44 43 42 40 39 37 35 34 33 33 33 32 31 31 32 32 33 34 35 36 37 38 38 37 36 36 35 34 33 33 33 34 33 33 33 32
47 48 49 49 48 47 46 45 44 42 40 38 37 36 34 32 31 31 29 28 27 28 28 29 30 31 32 33 34 36 36 36 35 35 34 34 33 32 32 32 32 32 32 32
50 51 51 50 48 47 46 44 42 40 39 37 36 34 33 31 30 28 26 25 24 25 25 27 28 29 30 31 32 34 35 35 35 34 34 33 32 32 32 31 31 32 32 31
52 53 53 51 49 47 45 43 41 39 38 36 35 33 32 30 28 26 24 23 23 23 23 24 26 27 28 29 30 32 32 33 33 32 32 33 32 32 31 31 31 31 31 31
54 54 54 51 49 46 44 42 40 38 36 35 34 32 31 29 27 24 23 22 21 21 21 22 23 25 26 27 28 29 30 30 31 31 31 31 31 31 30 30 30 30 30 30
55 55 53 51 49 46 44 42 39 37 36 34 32 31 29 28 25 23 22 21 20 19 20 20 21 22 24 25 26 26 27 29 29 30 30 30 29 29 29 28 28 28 28 28
55 55 53 51 49 46 44 41 39 36 34 32 30 28 27 26 24 22 21 20 19 18 18 19 19 20 21 23 24 24 25 27 28 28 28 28 27 27 27 27 27 27 27 27

GEFSNGP_500_meanwind_078.txt.gz
Wind_Speed
3 2 2 3 4 5 6 7 9 10 11 13 16 18 21 24 26 28 30 31 34 35 37 39 41 42 44 45 46 46 47 47 47 47 47 47 46 46 47 47 47 46 45 45
5 5 5 5 6 6 7 9 10 12 13 15 17 19 21 24 26 29 31 33 34 36 38 39 41 43 44 45 46 47 47 48 47 47 47 47 47 47 46 46 46 45 45 45
7 7 8 8 9 10 11 12 13 14 16 18 19 21 23 25 27 29 31 33 35 37 39 41 42 43 44 45 46 47 47 48 48 47 47 47 47 47 47 46 46 45 45 45
9 10 10 11 12 13 13 14 16 17 19 21 22 24 26 28 30 32 33 35 37 39 40 42 43 44 45 46 46 47 47 48 48 48 48 48 47 47 47 46 46 46 45 45
9 10 11 12 13 14 16 17 19 20 22 24 25 27 29 31 32 34 35 37 38 40 41 42 43 44 45 46 47 47 47 47 47 47 47 47 47 47 47 47 46 46 45 45
9 11 12 12 14 16 17 18 20 22 24 26 27 29 31 33 34 36 37 39 40 41 42 43 44 45 45 46 46 47 47 47 47 47 46 46 46 46 46 46 45 45 44 44
8 9 10 13 15 16 18 19 21 23 25 27 28 30 32 34 36 38 39 40 41 42 43 44 45 46 46 46 47 47 47 47 47 47 46 46 46 45 45 45 44 44 44 43
7 9 10 13 15 16 18 20 22 24 26 28 30 32 33 35 37 38 40 41 42 43 44 45 45 46 46 46 46 46 46 46 46 46 46 46 45 45 44 44 44 43 42 41
8 9 11 13 15 17 20 22 24 26 28 30 32 34 36 38 39 41 42 42 43 44 44 45 46 46 46 46 46 46 46 46 45 45 45 45 45 44 44 44 43 42 41 41
10 11 13 15 17 19 21 23 26 28 30 32 34 36 37 39 41 43 45 46 46 47 47 47 47 47 46 46 46 46 46 46 46 45 44 44 44 44 43 43 42 42 41 40
13 14 16 17 19 21 23 25 27 29 32 34 36 38 39 41 42 44 46 48 48 49 49 49 48 48 47 46 46 45 45 44 45 45 45 44 43 43 42 42 42 41 40 40
16 18 19 20 22 24 26 28 30 32 34 36 38 39 41 42 43 45 46 47 49 49 49 49 49 49 48 48 47 46 45 44 43 43 43 43 43 42 42 42 41 41 40 40
19 21 22 23 25 27 29 31 33 35 36 38 40 42 43 44 45 46 47 48 49 50 50 49 49 49 49 49 48 46 45 44 43 42 41 41 41 41 41 41 41 41 40 39
22 24 25 26 28 30 32 34 36 37 39 41 43 44 46 47 47 48 48 48 48 48 48 48 48 47 48 48 48 47 46 45 43 43 42 41 41 41 41 41 40 40 39 39
25 27 28 30 32 34 36 38 39 41 43 44 45 46 46 46 46 46 46 45 45 46 46 46 47 47 47 47 48 47 46 45 44 43 43 42 41 40 40 40 40 40 40 39
29 30 32 34 36 38 40 42 43 44 45 46 46 46 46 46 45 44 44 44 44 44 45 45 45 44 45 46 45 45 45 45 44 44 43 42 42 41 40 40 39 39 38 38
31 33 35 37 40 41 43 45 46 46 46 47 47 46 46 45 44 44 44 44 43 42 43 42 42 42 42 43 43 43 43 43 43 43 43 42 42 41 40 39 38 38 37 37
35 37 39 41 43 44 45 47 47 47 47 47 46 45 45 45 44 43 43 41 40 40 40 40 39 39 39 39 40 40 41 42 42 42 42 42 41 41 40 39 38 37 37 37
38 40 43 44 46 47 48 49 49 49 48 47 46 45 44 44 43 42 41 40 38 37 36 36 36 35 34 34 35 36 37 39 40 40 41 41 41 40 40 39 38 36 35 35
41 43 45 47 48 49 50 51 51 50 49 47 46 44 44 43 42 41 39 37 36 34 33 32 31 31 31 31 30 31 33 35 36 37 38 39 39 39 38 38 37 36 35 34
44 46 47 48 49 51 52 52 52 51 49 47 46 44 43 42 41 39 37 35 34 33 32 30 29 28 27 27 28 29 30 31 33 34 35 36 37 37 37 37 37 36 35 34
45 47 48 49 51 52 53 54 53 51 49 47 46 45 43 41 39 38 36 35 33 32 31 30 28 26 25 25 26 27 28 29 31 32 33 34 35 36 36 36 35 34 34 33
47 48 49 51 52 54 55 55 54 52 50 48 47 45 43 41 39 36 34 33 32 30 29 27 26 24 23 23 23 24 25 26 28 30 31 32 33 34 34 34 34 33 33 32
48 49 51 53 54 56 56 56 55 53 51 49 47 45 42 39 37 35 33 32 30 28 27 25 23 21 21 20 21 21 22 24 26 27 29 29 30 31 32 32 32 32 32 32
49 51 53 54 56 58 58 56 54 52 51 49 46 44 41 38 35 33 31 29 27 26 24 22 21 20 18 18 18 19 20 21 23 25 26 27 28 29 30 31 31 31 30 30
51 53 55 57 58 59 58 56 54 52 50 47 44 42 39 37 34 32 29 27 25 22 20 19 18 17 17 16 16 18 19 19 21 22 24 25 26 27 28 29 29 30 29 28
53 55 56 59 60 59 58 56 54 52 49 46 42 40 37 34 32 29 27 25 22 20 18 17 16 15 15 15 15 16 18 18 19 20 22 23 24 25 26 27 27 27 27 27

GEFSNGP_500_meanwind_084.txt.gz
Wind_Speed
7 6 6 6 5 5 5 5 5 5 6 9 10 11 13 14 16 18 20 22 25 27 29 31 33 35 36 38 40 41 42 43 44 45 46 46 46 46 46 46 46 46 46 45
6 5 5 4 3 3 3 3 4 4 6 7 10 12 14 16 17 20 22 24 26 28 30 32 35 36 38 40 42 43 44 45 46 47 48 48 48 48 48 48 48 47 47 46
3 3 2 1 1 1 2 3 4 5 7 8 10 12 15 17 19 22 24 26 28 31 33 35 37 39 41 43 44 46 47 48 49 49 49 49 49 49 49 49 49 49 49 48
0 1 1 1 2 3 3 4 6 8 10 11 13 15 17 19 22 24 27 29 31 34 36 38 40 42 44 46 47 48 49 50 51 52 51 51 51 52 51 51 51 51 50 50
2 2 2 3 4 4 5 6 8 10 12 13 15 17 19 22 24 26 29 32 34 36 39 41 43 44 46 48 49 51 51 52 52 52 52 52 52 52 52 52 51 51 51 50
2 3 3 4 5 6 7 8 10 12 14 16 17 19 21 24 27 29 32 35 37 40 42 43 45 46 48 49 50 51 51 52 52 52 52 52 52 52 51 51 50 50 49 49
3 3 4 5 7 8 9 10 12 14 16 19 21 23 26 28 30 33 35 37 40 41 43 45 47 48 50 51 53 53 52 52 52 52 51 51 51 51 50 50 50 49 49 48
5 5 5 7 9 10 11 13 15 17 19 21 23 26 28 31 33 36 38 40 42 44 46 47 49 50 52 53 54 54 54 53 53 52 51 51 50 50 50 49 49 48 48 48
6 6 8 9 10 12 14 16 18 20 22 24 26 29 31 34 36 38 40 42 44 46 48 50 51 53 54 55 56 56 55 55 54 53 53 52 51 50 49 49 48 47 47 47
8 9 10 12 13 15 17 19 21 23 25 27 29 32 34 36 38 40 42 44 46 48 50 52 54 55 56 57 57 57 57 56 55 55 54 53 52 51 49 48 48 47 47 46
10 12 13 15 17 19 21 22 25 27 29 31 33 35 37 39 41 43 45 46 48 50 51 52 54 55 55 56 55 55 55 54 54 54 53 52 51 50 49 48 48 47 47 46
13 15 16 18 20 22 24 26 28 30 33 35 37 38 40 42 44 45 47 48 49 51 51 52 53 54 53 53 53 53 52 52 51 51 51 51 51 50 49 48 48 47 47 47
16 17 19 21 23 25 27 30 32 34 36 38 40 41 43 45 46 47 48 49 50 50 51 52 53 53 52 52 52 51 51 50 50 50 49 49 49 49 48 48 48 47 47 46
18 20 22 24 26 29 31 33 36 38 40 41 43 44 45 46 47 48 48 49 50 50 50 50 50 50 49 49 49 48 48 48 48 48 48 48 48 48 48 48 47 46 46 46
21 23 25 27 30 32 35 37 39 40 42 44 45 46 47 47 47 48 49 50 49 48 48 48 47 46 45 44 43 43 43 43 44 45 46 46 46 47 48 47 47 46 46 46
24 26 29 31 34 36 38 40 41 43 44 46 47 48 48 48 48 49 49 49 48 47 47 46 44 43 42 40 40 40 40 40 41 42 43 44 45 45 46 47 47 46 46 45
27 29 31 34 36 39 41 42 43 45 46 48 49 49 49 49 49 49 49 49 47 46 46 45 43 41 40 39 37 37 37 38 39 39 40 41 42 43 44 44 45 45 45 44
29 32 34 37 39 41 43 44 45 47 49 50 50 51 51 51 50 50 49 47 46 45 45 43 41 40 39 37 36 35 35 35 36 35 35 36 38 39 41 42 42 43 44 43
31 34 36 39 41 43 44 46 48 50 51 52 53 53 53 52 51 50 48 46 44 43 43 42 40 38 36 35 33 32 31 30 31 31 31 32 34 36 38 39 40 41 41 41
33 35 38 40 43 45 46 48 50 52 53 54 55 55 54 53 52 50 48 45 44 43 41 39 37 35 34 32 30 29 28 27 27 27 28 30 31 32 34 36 37 38 39 39
35 37 40 42 44 47 48 50 52 54 56 56 56 56 54 53 51 49 46 44 42 41 39 36 34 33 30 28 27 26 25 25 24 24 25 27 28 30 32 33 35 36 37 37
36 39 41 44 46 48 51 53 55 56 57 57 57 56 54 52 50 47 45 43 40 38 36 33 31 30 27 26 24 23 22 22 22 22 22 24 25 27 29 31 32 33 34 34
37 40 43 46 48 50 53 55 57 58 58 58 57 56 54 51 49 46 43 41 38 35 33 30 28 27 25 23 22 21 21 20 20 20 21 22 23 25 26 28 29 30 32 32
38 41 44 47 49 52 54 57 58 58 58 58 57 55 53 50 47 44 41 38 34 31 29 28 26 24 22 20 19 19 18 17 18 18 19 20 21 22 23 26 27 29 30 30
40 43 45 48 50 53 56 57 58 58 58 57 56 55 52 48 45 42 38 34 31 28 27 25 23 22 20 18 17 15 14 15 15 16 17 18 19 20 21 23 24 26 27 28
41 44 47 49 52 54 57 58 58 58 57 56 55 52 49 46 43 39 35 31 29 27 25 23 22 20 18 16 14 12 12 12 12 13 14 15 16 17 18 20 21 23 24 25
42 45 48 50 53 55 57 57 57 57 56 54 52 50 47 44 40 37 33 30 28 26 24 22 20 18 16 14 12 10 9 9 9 10 11 12 13 15 17 19 20 21 22 23

GEFSNGP_500_meanwind_090.txt.gz
Wind_Speed
8 8 8 7 6 5 5 4 3 2 2 1 1 1 2 3 4 6 8 9 11 13 14 16 18 20 23 26 28 30 31 33 35 36 37 38 39 40 40 41 42 43 43 42
6 5 5 5 5 4 4 3 2 2 1 1 2 4 5 6 7 8 10 11 13 15 17 19 21 23 25 28 31 33 35 36 38 39 40 41 41 42 43 44 44 45 45 44
4 4 3 3 3 3 3 2 2 3 3 4 5 6 8 9 10 11 12 14 16 18 20 23 25 27 30 33 35 37 39 40 42 44 45 46 46 46 46 47 47 47 46 47
4 3 2 2 2 2 3 3 4 5 6 7 8 9 10 11 13 14 16 18 20 23 25 27 30 32 34 36 38 40 43 44 46 47 48 49 49 50 50 51 50 50 50 50
3 3 3 2 2 3 4 5 6 7 8 9 10 11 13 15 17 19 21 23 25 27 29 32 34 36 38 40 42 44 46 47 49 50 51 52 52 53 53 53 54 54 53 53
3 3 3 4 4 4 5 6 7 9 10 11 13 15 17 19 21 23 25 27 29 31 34 36 38 40 42 44 46 47 49 50 51 53 53 54 55 56 56 56 56 56 55 55
4 4 5 6 6 7 7 9 10 11 13 15 17 19 21 23 25 27 29 31 34 36 38 40 42 44 46 48 49 51 53 54 55 55 56 57 58 58 58 58 58 57 56 56
5 5 6 7 8 9 10 11 13 14 16 18 20 22 24 26 29 31 33 35 37 40 42 44 46 47 49 51 53 55 56 57 58 58 59 59 59 59 59 59 59 58 57 56
6 6 7 8 9 10 12 14 15 17 19 21 23 25 27 29 32 34 36 38 41 43 45 47 50 52 53 55 56 57 58 59 59 59 59 59 59 59 58 58 57 57 57 56
7 8 9 10 11 13 14 16 18 20 22 24 26 29 31 33 35 37 39 41 43 45 48 50 52 54 55 56 58 59 59 59 60 60 59 59 58 57 56 55 55 54 54 54
9 10 11 12 14 15 17 19 21 23 25 27 29 32 34 35 37 39 41 43 46 48 50 51 53 54 56 58 59 60 60 60 60 60 59 58 57 56 55 54 53 52 51 50
11 12 13 15 16 18 20 21 24 26 28 30 32 34 36 38 40 41 44 46 48 50 51 52 54 55 57 58 58 58 58 58 58 58 58 57 56 55 54 53 52 52 50 50
13 14 15 16 18 20 22 24 26 29 31 33 35 37 39 40 42 45 46 48 50 50 51 53 55 56 56 56 56 56 56 55 54 54 53 52 51 51 49 50 50 50 49 49
15 16 17 19 21 23 25 27 29 32 34 36 38 40 41 44 46 47 49 50 51 52 54 55 56 55 56 55 54 54 52 51 50 49 47 46 45 44 44 45 45 46 47 47
18 19 20 22 24 26 28 30 32 34 36 38 40 42 44 46 48 49 51 52 54 55 56 56 56 55 54 53 52 50 48 46 45 44 42 41 41 41 41 40 40 41 43 45
20 21 22 24 26 27 30 32 34 36 38 41 43 45 47 49 50 52 53 55 56 57 57 56 54 53 51 50 48 46 44 43 42 40 38 37 37 37 38 37 37 37 39 41
22 23 25 26 28 30 32 34 36 38 41 43 45 47 49 51 53 54 56 57 58 58 56 54 52 50 48 46 45 43 41 40 40 38 36 35 34 34 34 34 34 35 36 38
24 25 27 28 30 32 34 36 38 41 43 45 48 50 52 53 54 56 57 58 58 56 54 52 49 47 45 43 42 40 39 38 37 35 33 32 31 30 30 30 30 31 32 35
26 27 28 30 31 33 36 38 40 42 45 47 50 52 53 54 56 57 58 58 57 54 51 48 46 44 43 41 39 37 36 34 33 31 29 28 27 26 26 26 27 27 29 31
28 29 30 32 33 35 37 39 41 44 47 49 51 53 54 55 56 57 58 57 55 51 48 44 43 42 40 38 36 35 33 31 29 27 26 25 24 24 24 24 25 26 27 28
30 30 32 33 35 36 38 40 42 45 48 50 52 53 54 55 56 56 56 54 52 48 45 43 41 40 38 36 34 32 30 28 26 24 23 22 22 22 22 22 23 23 25 26
31 32 33 34 36 37 39 41 44 46 49 51 52 53 54 55 55 55 55 53 50 46 42 41 40 38 36 34 32 30 28 25 23 22 21 20 19 20 20 19 20 20 21 23
32 33 34 35 36 38 40 42 45 47 50 51 52 53 54 54 55 55 53 51 47 43 41 40 39 37 35 33 31 29 26 24 22 20 18 17 16 16 16 16 17 17 18 19
32 34 34 35 37 39 41 43 46 48 50 50 51 52 53 54 54 53 52 49 45 42 40 39 38 36 34 32 30 27 25 22 20 17 15 14 13 12 12 12 13 15 16 18
33 34 35 36 37 39 41 44 46 48 49 50 51 52 52 52 52 51 49 46 43 41 40 39 37 34 32 30 28 25 23 20 17 15 14 13 11 10 10 10 11 12 14 15
33 34 35 36 38 40 42 45 47 48 49 50 51 52 51 51 50 49 47 45 43 41 39 37 34 32 30 28 26 23 20 18 16 14 12 11 10 9 9 9 10 11 12 13
33 34 35 37 38 40 43 45 47 48 49 49 50 50 50 49 48 47 45 44 42 40 37 35 32 30 28 26 23 21 18 16 14 12 11 9 8 8 8 8 9 10 10 12

GEFSNGP_500_meanwind_096.txt.gz
Wind_Speed
8 7 7 7 6 6 6 5 4 4 4 4 4 3 3 3 3 3 3 3 3 4 5 5 6 7 9 11 13 15 17 20 22 24 26 29 31 33 35 37 39 40 41 42
6 5 5 5 5 4 4 4 3 3 3 3 3 3 3 3 4 4 4 4 5 6 7 8 10 12 14 16 18 20 22 24 26 28 31 33 35 37 39 41 43 44 45 45
4 4 4 3 3 3 2 2 2 2 3 3 4 4 4 5 5 6 7 8 9 10 12 13 15 17 19 21 23 25 27 29 31 34 36 38 40 42 43 45 46 48 49 50
2 2 2 3 2 2 1 0 1 2 2 3 4 5 6 7 8 10 11 12 13 15 17 19 21 23 24 26 28 31 33 35 37 39 40 43 45 46 47 48 49 50 50 52
2 2 2 1 1 1 1 1 2 3 3 4 6 7 8 10 11 12 14 16 18 20 22 24 26 27 29 31 34 36 38 40 42 43 45 47 49 50 51 52 53 54 55 56
1 1 1 0 1 1 2 2 3 3 5 6 8 9 10 12 14 16 18 20 22 24 26 28 30 32 34 36 38 41 42 44 46 47 49 50 52 53 54 55 56 57 58 59
1 1 1 2 2 3 4 5 6 7 8 9 11 12 14 16 17 20 22 24 26 28 30 32 33 35 37 38 41 43 45 48 50 51 53 54 55 56 57 58 59 60 59 59
3 4 5 5 5 6 7 8 9 10 11 13 14 16 18 20 22 24 26 27 29 31 33 34 36 38 40 42 44 46 49 51 53 55 56 58 59 60 60 61 61 61 61 61
6 6 7 7 8 9 10 10 12 13 14 16 17 19 21 23 25 27 29 31 32 34 36 38 40 41 43 46 49 51 53 54 56 58 58 59 61 62 62 63 63 62 61 60
8 8 9 10 11 11 12 13 14 16 17 18 20 21 23 25 27 29 32 34 35 37 39 41 43 45 48 50 53 54 55 57 58 59 60 60 60 61 61 61 61 60 60 59
10 11 12 12 13 14 15 16 17 18 19 21 22 24 26 28 30 32 35 36 38 39 41 43 46 49 52 54 55 56 57 58 58 58 58 58 58 58 58 58 58 57 56 56
12 13 14 15 16 16 17 18 19 21 22 24 25 27 29 31 33 35 37 38 40 42 44 47 50 52 55 56 57 57 57 56 55 55 55 55 55 55 55 54 54 53 52 52
15 16 17 18 18 19 20 21 22 23 25 26 28 30 32 34 36 37 39 41 43 45 47 50 52 54 55 56 56 56 55 54 54 54 54 53 53 52 51 50 50 50 48 48
19 19 20 21 21 22 22 23 24 26 28 29 31 33 35 36 38 40 42 44 46 48 50 52 54 55 55 56 55 54 54 53 53 53 52 50 49 48 46 44 44 44 45 44
22 22 23 24 24 25 25 26 27 29 30 32 34 35 37 39 41 43 44 46 48 50 52 54 55 55 55 54 53 53 52 52 51 50 48 47 45 43 42 41 40 39 40 41
24 24 25 26 27 27 28 28 29 31 33 34 35 37 39 41 43 45 46 48 50 51 53 54 55 54 54 53 51 51 50 49 48 47 45 44 42 40 38 37 36 35 35 36
26 26 27 27 28 29 29 30 32 33 35 36 37 39 40 42 44 46 48 49 51 52 53 54 54 53 52 51 50 48 48 47 46 45 43 41 38 37 35 34 32 32 31 31
28 29 29 29 30 30 31 32 33 35 36 38 39 40 42 44 45 47 48 50 51 53 54 54 54 52 51 50 48 47 47 46 45 43 41 38 36 34 32 30 29 28 27 27
29 30 30 30 30 31 32 33 34 36 37 39 40 41 43 44 46 47 49 50 52 53 53 54 53 51 49 48 47 46 46 45 43 41 38 36 33 31 29 27 25 24 23 23
30 31 31 32 32 32 33 34 35 37 38 39 41 42 43 44 46 47 49 50 52 52 53 53 51 49 48 46 46 46 45 43 41 39 36 33 30 28 26 24 22 20 20 20
31 31 32 32 33 34 34 35 36 37 39 40 41 42 43 44 46 47 49 50 51 52 52 51 49 47 46 45 45 44 43 41 38 36 33 30 28 25 23 21 20 19 18 18
32 32 32 33 34 35 35 36 36 38 39 40 41 42 43 44 46 47 49 50 51 51 50 49 48 46 45 45 44 43 41 38 36 33 31 28 25 23 21 20 18 17 16 16
32 32 33 33 34 35 36 36 37 38 40 41 42 42 43 44 46 48 49 49 50 50 49 48 46 45 44 43 42 41 39 36 34 31 29 26 23 21 19 17 16 15 13 12
33 33 34 34 35 36 37 37 38 39 40 41 42 42 43 45 46 47 48 49 49 49 48 46 45 43 42 41 39 38 36 34 32 29 26 24 21 19 17 16 14 12 10 9
33 33 34 35 36 37 37 37 38 38 39 41 42 43 44 45 46 47 48 48 48 48 47 46 44 42 40 39 37 36 34 32 30 26 23 21 19 17 15 14 12 10 8 7
34 34 35 36 36 36 37 37 38 38 39 40 42 43 44 45 46 47 47 47 47 47 46 45 42 40 38 37 36 34 32 30 27 24 21 19 17 15 13 11 9 7 6 4
34 35 36 36 36 36 36 37 37 37 38 40 41 43 44 44 45 46 47 47 47 46 45 43 40 37 35 34 33 32 30 27 24 22 19 17 15 12 10 8 7 5 4 3

GEFSNGP_500_meanwind_102.txt.gz
Wind_Speed
3 2 2 3 3 2 3 3 4 5 6 6 6 6 7 7 7 8 8 8 8 8 8 8 9 9 10 11 12 14 15 16 19 21 24 26 28 31 33 36 38 40 41 43
1 2 3 4 4 4 4 5 6 7 7 7 8 8 8 8 9 9 10 10 10 10 11 11 12 13 13 15 16 18 19 21 22 24 26 29 31 33 36 38 40 41 43 45
3 3 4 5 5 6 6 7 8 8 8 8 9 9 9 9 10 11 12 12 13 14 14 14 15 17 18 19 21 23 25 26 27 29 31 33 35 37 39 41 43 45 47 48
4 5 6 5 6 6 7 7 8 8 9 9 10 10 11 12 12 13 14 15 16 17 17 18 19 20 21 22 24 26 28 30 31 33 35 37 39 41 42 44 46 48 49 51
5 6 6 7 7 8 8 9 9 10 10 11 12 12 13 14 15 16 17 18 18 19 20 20 21 23 25 27 28 30 31 33 35 36 38 40 41 43 45 46 47 49 51 53
7 8 8 8 8 9 9 10 11 11 12 13 14 14 15 16 17 18 19 20 21 22 23 24 25 27 29 31 33 34 35 37 39 40 42 43 44 45 47 49 50 52 53 56
10 11 10 10 11 11 12 13 13 14 15 16 16 17 18 19 20 21 22 23 24 25 26 28 29 31 33 35 36 38 39 41 43 44 46 47 48 50 51 53 54 55 56 58
12 12 13 13 13 14 14 15 16 17 17 18 19 20 21 22 23 24 25 26 27 28 30 32 33 35 36 38 40 42 43 45 47 49 50 51 52 53 55 56 57 58 59 59
14 14 15 15 16 17 17 18 19 20 21 21 22 22 23 24 25 27 28 29 31 32 34 36 37 38 40 41 44 46 48 50 51 52 54 54 55 56 56 56 57 58 58 58
16 17 18 18 19 19 20 20 21 22 23 24 24 25 26 27 28 30 31 33 34 35 37 38 40 42 44 46 48 50 51 52 54 54 55 55 56 56 56 56 56 56 56 57
17 18 19 20 21 21 22 22 23 23 25 26 27 28 29 30 31 32 34 35 37 38 40 41 43 45 47 49 51 52 53 54 55 55 55 54 55 55 55 55 55 54 53 53
19 19 20 20 22 23 24 24 25 26 27 28 30 31 32 32 34 35 36 38 39 41 43 44 46 47 49 51 52 53 54 54 54 54 53 54 54 53 54 54 53 53 52 50
21 21 22 22 23 25 26 27 27 28 30 31 32 33 34 35 36 37 38 40 42 43 44 46 47 49 50 52 53 54 54 53 53 53 53 53 53 52 51 51 52 51 50 48
24 25 25 25 26 26 27 28 29 30 31 32 33 34 35 36 38 39 40 41 43 44 46 47 49 50 51 52 53 53 53 53 53 53 53 53 53 52 51 50 48 47 46 46
26 27 27 27 28 28 29 30 31 32 33 34 35 36 37 38 39 40 41 43 44 46 47 48 49 50 51 52 53 53 53 52 52 53 53 53 52 51 50 49 47 45 44 43
28 29 29 29 30 31 32 32 33 34 35 36 37 38 38 39 40 41 42 43 45 46 47 48 49 50 51 52 52 52 52 52 53 53 53 52 51 50 49 48 46 43 41 40
30 30 31 31 32 33 33 34 35 36 36 37 38 39 39 41 41 42 42 43 45 46 47 48 50 51 51 52 52 52 52 52 52 52 52 51 50 49 48 46 43 40 37 36
32 32 32 33 34 34 35 35 36 37 37 38 38 39 40 41 41 42 43 44 46 47 48 49 50 50 51 51 51 51 51 51 51 51 50 50 49 47 45 42 39 36 34 32
33 33 33 34 35 35 36 36 37 37 37 38 38 39 40 41 42 43 44 45 46 47 48 49 50 50 50 50 50 50 50 50 50 50 49 48 47 45 42 38 35 32 30 28
34 35 35 35 36 36 37 37 38 37 37 38 38 39 40 41 42 43 44 45 46 47 48 49 50 49 49 49 50 50 50 49 49 48 48 46 44 41 38 35 32 29 27 25
35 36 37 37 37 37 37 37 37 37 37 38 38 39 41 42 42 43 44 45 46 47 48 48 49 48 48 49 48 49 49 48 48 47 45 43 41 38 35 32 29 27 25 23
37 37 37 37 38 37 37 37 37 37 38 38 39 40 41 42 42 43 43 44 46 47 47 47 48 48 48 48 48 47 47 47 46 44 42 40 37 35 32 29 26 24 22 21
37 37 37 37 37 37 37 37 38 38 38 38 39 41 42 42 42 43 43 45 45 46 46 47 48 48 48 48 47 46 46 45 43 41 39 37 35 32 29 26 24 22 20 19
37 37 37 36 36 37 37 38 38 38 38 39 40 41 41 42 42 43 43 44 44 45 46 46 47 48 47 47 46 45 43 42 41 38 36 34 32 29 26 24 22 20 18 16
37 37 37 37 37 37 37 38 38 38 39 40 40 41 41 42 42 43 43 43 44 45 45 46 47 47 46 46 44 42 40 39 37 35 33 31 29 26 23 21 19 17 15 14
37 37 37 37 37 37 38 37 37 38 39 40 40 41 41 41 42 42 43 43 44 44 45 45 46 45 45 43 41 39 38 36 34 33 31 28 26 23 21 19 17 15 14 12
37 37 37 37 37 38 38 37 38 39 40 40 40 40 40 40 41 42 42 43 43 44 44 44 44 43 43 41 39 37 35 33 31 30 28 25 23 21 19 18 16 14 13 11

GEFSNGP_500_meanwind_108.txt.gz
Wind_Speed
3 3 3 4 4 5 5 6 7 7 8 10 11 12 12 12 12 13 14 14 13 13 13 13 13 13 13 13 14 15 16 17 19 20 22 24 25 28 30 32 34 36 38 40
4 5 5 5 5 5 6 7 8 9 10 11 12 12 13 13 13 14 14 15 15 15 15 15 15 16 16 16 17 17 18 19 20 22 23 25 26 29 31 33 35 37 40 42
4 6 6 6 7 7 8 9 10 10 11 11 12 13 14 14 15 15 16 17 17 17 17 18 19 19 21 21 21 22 22 22 24 25 26 27 29 30 32 34 37 39 41 44
5 6 7 7 8 9 9 10 11 12 12 13 14 15 16 16 16 17 18 18 19 20 20 21 22 23 23 24 24 25 26 27 28 29 30 31 32 34 36 37 39 41 44 46
7 8 8 9 10 10 11 11 13 13 14 15 16 16 17 17 18 19 20 21 22 22 23 24 25 26 26 26 27 28 29 30 32 33 34 35 36 38 39 41 43 45 47 50
10 11 11 11 12 13 13 13 15 15 16 17 17 18 18 19 20 21 22 23 24 25 25 26 27 27 28 29 30 31 32 33 35 36 37 39 40 42 44 45 47 49 50 51
12 12 12 13 14 14 15 16 16 17 17 18 18 19 20 21 22 23 24 25 26 26 27 28 28 29 30 32 33 34 35 36 37 39 41 43 44 46 47 49 50 51 51 52
14 14 14 15 15 16 16 16 17 18 18 19 20 21 22 23 25 26 27 28 29 29 30 31 31 32 34 35 36 37 38 39 40 42 44 46 47 48 50 51 51 52 52 53
16 16 17 17 17 18 18 18 18 19 19 21 22 24 25 26 27 28 30 31 32 32 33 34 35 36 37 38 39 40 41 42 44 45 46 48 49 50 51 52 52 52 53 53
17 18 18 18 19 19 20 20 20 21 22 23 24 26 27 29 30 31 32 33 34 34 35 36 36 37 38 39 40 41 42 44 45 46 48 49 50 51 51 52 52 52 52 52
20 20 20 20 21 21 21 22 23 23 24 25 27 28 29 31 32 32 33 34 35 36 36 36 37 38 39 40 41 43 44 45 46 47 48 49 50 50 51 52 52 52 51 50
21 22 22 22 23 23 23 24 25 25 26 27 29 30 32 32 33 34 34 35 36 36 37 37 38 39 40 42 43 44 45 45 47 48 49 49 50 50 51 51 51 50 50 48
23 24 24 24 25 25 26 26 26 27 28 29 30 32 33 34 34 35 36 36 37 37 37 38 39 41 42 43 44 45 45 46 47 48 49 49 49 49 49 50 50 49 48 48
25 26 26 27 27 28 28 28 28 29 30 31 32 33 34 35 36 36 37 37 37 37 38 39 40 42 43 44 45 45 46 47 47 48 49 49 49 49 49 48 47 47 47 47
27 27 28 28 29 29 30 30 30 31 32 32 33 34 35 36 36 37 37 37 38 38 39 40 41 42 43 45 45 45 46 47 47 48 48 48 48 48 48 48 47 47 46 46
28 29 29 29 30 30 31 31 32 32 33 34 34 35 36 36 37 37 37 38 38 39 40 41 42 43 44 45 45 46 46 47 47 48 48 47 48 48 47 47 47 47 46 45
30 29 30 30 31 31 31 32 33 33 34 35 35 36 36 37 37 37 37 38 38 39 40 42 43 44 44 45 45 45 46 46 46 46 46 46 46 47 47 47 46 46 45 44
31 31 31 31 32 32 32 33 34 34 35 35 36 36 37 37 37 37 38 38 39 39 40 41 42 43 44 44 44 44 45 45 45 45 45 46 46 46 46 46 45 44 43 41
32 32 32 32 33 33 33 34 35 35 35 36 37 37 38 38 38 38 38 38 39 39 40 41 42 43 43 43 43 43 44 44 44 45 45 46 46 45 45 44 43 41 39 37
33 33 33 33 33 34 34 35 35 36 36 37 38 38 39 38 38 38 38 39 39 40 41 41 42 42 43 43 43 43 44 44 44 44 45 45 44 43 42 41 40 39 37 35
34 34 34 34 34 35 35 36 37 37 38 38 39 39 39 38 38 38 39 39 39 40 41 41 42 42 43 43 43 43 43 43 43 44 44 43 42 41 40 39 38 36 34 32
34 34 35 35 35 36 36 37 37 38 38 38 38 39 39 39 38 38 39 39 40 40 41 41 42 42 42 42 42 43 43 43 42 42 42 41 40 39 38 37 35 33 31 29
35 35 36 36 37 37 37 37 37 38 38 38 38 38 38 38 38 38 39 40 40 40 41 41 42 42 42 42 42 42 42 41 41 40 40 40 38 37 35 34 32 31 29 27
37 37 37 37 38 38 37 37 38 38 38 38 38 38 38 38 38 38 39 39 40 40 40 40 42 42 42 42 42 41 40 40 39 39 39 37 35 34 33 32 31 29 27 25
39 38 38 38 38 38 38 38 38 38 38 37 37 37 38 38 38 38 39 39 39 39 39 41 42 42 42 41 40 40 39 39 39 38 36 34 33 32 31 30 28 27 24 22
40 39 39 39 39 38 38 38 38 38 37 37 37 37 37 38 38 38 38 38 38 39 39 40 42 42 41 40 39 39 38 38 37 35 33 32 31 30 29 27 26 24 22 20
40 40 39 39 38 38 38 38 38 37 37 36 37 37 37 37 38 38 38 38 38 39 39 40 41 40 39 39 39 38 38 36 34 33 31 30 29 28 26 25 23 21 19 17

GEFSNGP_500_meanwind_114.txt.gz
Wind_Speed
6 7 7 7 8 9 10 11 12 11 13 13 14 14 14 14 15 15 16 17 18 18 19 19 20 20 21 22 22 22 23 23 23 24 25 25 26 27 28 29 30 32 33 35
8 8 8 8 9 10 10 11 12 12 12 14 14 15 16 16 17 17 17 18 18 19 20 21 22 23 23 24 24 24 25 25 26 26 27 27 28 28 30 31 32 33 35 37
8 10 9 9 10 11 12 13 13 13 13 15 16 17 17 18 18 18 19 19 20 21 22 23 24 24 25 25 26 26 26 27 27 27 28 29 29 30 32 33 35 35 37 38
10 11 10 11 12 13 13 14 15 16 17 18 18 18 18 19 19 20 20 21 22 23 24 25 26 26 27 28 29 29 29 29 29 29 30 30 31 32 33 35 36 38 39 40
13 12 11 12 14 15 15 16 17 17 18 18 18 19 19 20 21 21 22 23 24 25 26 26 27 28 29 30 31 32 31 31 31 31 32 32 33 34 35 37 38 39 41 42
15 15 15 15 16 16 17 17 18 18 19 19 20 20 20 21 22 23 24 25 26 27 28 29 29 30 31 32 33 33 33 33 34 34 34 34 35 36 37 37 38 39 40 42
18 18 17 18 19 19 19 19 19 19 19 20 21 22 22 23 24 24 25 26 28 29 30 30 31 32 33 33 34 34 34 35 35 36 37 37 38 38 38 39 39 40 42 43
20 21 21 21 21 21 21 20 20 21 22 22 23 23 24 24 25 26 27 28 29 30 31 32 33 33 34 35 35 36 36 37 37 38 38 39 39 40 40 40 41 41 42 43
23 23 24 24 23 23 24 23 23 24 24 24 25 25 25 26 26 27 28 29 31 32 33 34 34 35 36 37 37 38 38 39 39 40 40 41 41 42 42 42 42 43 44 44
25 24 26 26 26 26 27 26 26 26 27 27 27 27 27 28 29 29 30 32 33 34 35 35 36 37 38 39 39 40 41 41 41 42 42 43 43 43 42 42 43 44 44 44
27 27 28 27 28 28 29 29 28 29 29 29 29 29 30 30 31 32 33 34 35 36 36 37 38 39 39 40 41 42 42 42 43 44 44 44 44 43 43 43 44 44 44 45
29 29 30 28 29 30 31 31 31 31 31 31 32 32 32 33 33 34 35 36 37 37 38 39 40 40 41 41 42 42 43 44 45 45 45 44 43 43 44 45 45 46 46 46
32 32 32 31 31 31 32 32 33 33 33 33 33 34 34 34 35 36 36 37 38 38 39 40 41 41 42 42 42 43 44 45 45 45 44 44 43 43 43 44 45 45 45 46
34 33 32 32 32 33 33 33 34 34 34 35 35 35 35 35 35 36 37 38 39 39 40 41 41 42 42 42 43 43 44 45 45 44 44 43 43 44 44 43 43 44 45 45
36 35 34 34 34 34 34 35 35 35 35 35 36 36 36 36 36 37 38 39 39 40 40 41 42 42 42 42 43 44 44 45 44 43 43 43 43 43 43 43 43 43 43 44
38 37 36 36 36 36 36 36 36 37 37 37 37 37 37 37 37 38 39 40 40 40 41 41 41 41 41 42 43 44 44 44 43 43 42 42 43 43 43 43 43 43 43 43
39 38 37 37 37 37 37 37 37 38 38 38 37 37 37 37 38 38 39 40 41 41 41 41 40 41 42 43 44 44 44 44 43 42 42 43 43 42 43 43 43 43 43 43
39 39 39 38 38 37 37 37 38 38 38 38 38 38 38 38 39 39 40 41 41 41 41 40 40 41 42 43 44 44 44 44 43 42 43 43 43 43 43 43 43 42 42 43
40 40 40 39 39 39 38 38 39 39 39 39 39 38 39 39 40 40 41 40 40 40 40 40 41 41 42 43 44 44 43 43 43 43 43 43 43 43 43 42 42 42 42 41
40 41 41 40 39 39 39 39 39 39 39 40 39 39 40 40 40 41 41 40 40 40 40 40 41 41 42 43 43 43 42 42 42 42 43 43 43 43 42 42 41 41 40 40
41 41 41 41 40 40 40 40 40 40 41 40 40 40 40 40 40 40 40 40 40 40 40 40 40 41 42 42 42 42 42 42 42 43 43 43 42 42 41 41 40 40 39 38
41 41 41 41 41 41 41 41 41 41 41 41 41 41 41 40 40 40 39 39 40 40 40 40 40 40 40 41 41 41 42 42 43 43 43 42 41 41 40 39 39 38 37 35
41 41 41 41 41 41 41 41 42 42 41 41 40 40 40 40 40 39 39 39 39 39 39 39 39 39 39 40 41 41 42 43 42 42 41 41 40 39 39 38 37 36 35 33
42 42 42 42 42 42 42 42 42 41 41 40 40 40 40 39 39 39 39 39 39 39 39 39 38 38 39 39 40 41 42 42 42 41 40 40 39 38 37 36 35 34 32 31
43 42 42 42 42 42 42 42 42 41 40 40 40 40 39 39 38 38 38 38 38 38 38 37 38 38 39 39 40 41 42 41 41 40 39 38 37 36 35 33 33 32 30 28
43 42 42 42 41 41 41 41 41 40 40 39 39 39 38 37 37 37 37 37 37 36 36 36 37 38 39 39 40 41 41 40 40 39 38 37 36 34 32 31 30 29 28 26
42 42 41 40 40 40 40 40 39 38 38 38 37 37 37 37 36 36 36 36 36 35 35 36 37 38 38 39 40 40 40 39 39 37 36 35 33 32 30 28 27 26 25 25

GEFSNGP_500_meanwind_120.txt.gz
Wind_Speed
7 8 7 8 9 10 10 11 11 11 11 12 13 13 14 15 15 15 16 16 17 18 18 19 20 21 22 23 24 24 24 25 26 27 28 29 30 31 32 33 33 34 35 35
9 9 9 9 10 10 11 12 12 12 12 13 13 14 14 15 15 16 17 18 18 19 19 20 21 22 23 24 24 24 25 26 27 28 29 30 31 32 33 33 34 35 35 36
10 11 11 11 11 11 12 13 14 14 14 15 15 16 16 16 16 17 18 19 19 20 20 21 22 23 24 24 25 25 27 28 28 29 31 32 33 33 34 34 35 36 36 37
13 13 13 13 14 14 14 15 16 16 17 17 17 17 18 19 19 20 20 21 21 22 22 23 23 24 24 25 25 27 28 29 30 32 32 33 33 34 35 36 36 36 36 37
15 15 15 16 17 18 18 18 19 19 19 19 19 19 19 20 21 22 22 23 23 24 24 24 25 26 26 27 27 28 29 30 31 33 33 34 35 35 36 37 37 38 38 39
19 20 19 19 20 21 21 21 21 22 21 21 21 21 22 23 23 24 24 25 25 26 26 26 27 28 28 29 29 30 31 32 33 33 34 34 35 36 37 37 38 39 39 40
22 22 22 23 23 24 24 24 24 24 24 23 24 24 24 25 25 26 26 27 28 28 29 29 29 29 29 30 31 32 34 35 35 35 35 36 36 37 37 38 38 39 39 40
25 25 25 26 26 27 27 27 27 26 26 26 26 26 26 26 27 27 28 29 29 30 30 31 31 31 31 32 33 34 35 36 37 37 37 37 38 38 39 39 40 40 40 41
28 27 27 28 28 29 29 28 28 28 28 28 28 28 28 28 29 30 31 31 32 32 32 32 33 33 34 34 35 36 37 38 38 38 38 39 39 40 40 41 41 41 42 42
30 29 30 31 30 30 29 29 29 29 30 30 30 30 30 31 31 32 32 33 33 33 34 34 34 35 36 37 37 38 39 40 40 40 40 40 40 41 41 42 42 42 43 42
33 32 33 32 33 33 32 32 32 32 31 31 32 32 32 33 33 33 33 34 34 35 35 35 35 36 37 38 39 39 40 40 41 40 41 41 41 41 42 43 43 43 43 42
36 35 36 34 35 35 35 35 35 35 34 34 34 33 34 34 34 34 34 35 35 36 36 36 36 37 38 39 39 40 40 41 41 41 41 41 41 42 43 43 43 43 43 42
40 39 38 37 37 37 37 37 37 36 36 36 35 35 35 35 35 35 36 36 36 36 36 37 37 38 39 39 40 40 41 41 42 41 41 41 41 42 43 43 44 43 43 42
42 42 41 40 40 39 39 38 38 38 37 37 36 36 36 36 36 36 37 37 37 37 37 37 38 39 40 40 41 41 41 41 41 41 41 42 42 42 43 43 43 43 43 42
44 44 43 42 41 41 41 41 40 39 38 38 38 37 38 38 38 38 38 38 38 38 38 39 39 40 40 40 41 41 41 41 41 42 42 42 42 42 43 43 42 42 42 41
44 44 43 43 42 42 42 41 40 40 39 39 39 39 39 39 39 39 39 39 38 39 39 40 40 41 40 40 41 41 41 41 41 41 41 42 42 42 42 42 42 42 41 40
43 43 43 43 43 42 42 41 41 41 40 40 40 41 41 40 40 40 40 40 39 39 40 40 41 41 40 40 41 41 41 41 41 41 40 41 41 41 41 41 41 42 41 41
43 42 42 42 41 41 41 41 41 41 41 41 40 40 41 41 40 40 40 40 40 40 40 40 40 40 40 40 40 40 40 40 40 40 40 40 40 40 41 41 42 42 41 40
41 40 40 41 40 40 40 40 40 41 41 41 40 41 40 40 40 40 40 40 40 40 40 40 40 40 39 39 39 39 39 39 40 40 40 40 40 40 41 41 42 42 40 40
40 40 40 40 40 40 39 40 40 41 41 41 41 41 41 40 40 40 40 40 40 40 40 40 39 39 39 39 38 38 38 38 39 39 39 40 40 40 41 41 42 41 40 39
39 40 41 41 41 41 41 40 40 40 41 40 41 41 41 40 40 40 40 39 39 39 39 39 39 39 39 38 38 37 37 38 38 38 38 39 39 40 40 41 41 40 38 38
40 40 41 41 41 41 41 41 41 41 40 40 40 40 40 40 40 39 39 39 39 38 38 38 38 38 38 38 37 37 37 37 37 37 38 38 39 39 39 40 39 38 37 36
41 41 41 40 41 41 40 40 40 40 39 39 38 39 39 39 38 38 38 38 38 38 37 37 38 38 38 37 36 36 36 36 36 37 37 38 38 38 38 38 38 37 35 34
43 43 43 42 41 41 40 39 39 39 39 38 37 38 37 37 36 37 37 37 37 36 36 36 37 37 37 37 36 35 35 35 36 36 37 37 37 37 37 37 36 34 33 32
46 45 44 43 43 42 41 40 39 39 38 37 37 37 36 36 35 35 35 35 35 35 35 35 36 36 36 35 34 34 34 35 36 36 36 36 36 36 36 35 33 31 31 30
46 44 44 43 42 41 40 39 38 37 36 36 35 35 35 35 34 34 34 34 34 34 34 34 34 34 34 33 33 33 34 35 36 35 35 34 34 34 34 32 31 29 28 27
45 43 42 41 40 40 39 37 37 36 36 35 35 35 35 35 34 34 33 33 33 33 33 34 34 33 33 32 32 33 33 34 34 33 32 32 32 32 31 30 28 26 25 25

GEFSNGP_500_meanwind_126.txt.gz
Wind_Speed
12 13 13 13 13 15 15 16 16 16 17 19 20 20 20 21 21 22 23 23 23 24 25 26 26 26 27 28 29 30 30 30 31 32 33 33 34 35 35 36 36 37 37 38
14 15 15 14 15 16 17 18 18 18 19 21 20 21 21 22 22 23 24 24 24 25 26 26 27 27 28 29 29 29 30 31 32 33 33 33 33 34 35 36 37 38 39 40
16 17 16 16 17 19 19 20 21 21 21 22 22 22 22 23 24 24 25 26 26 27 27 28 28 29 29 29 30 30 31 32 32 32 32 33 34 35 36 37 38 39 40 40
19 20 20 19 20 21 22 23 24 24 24 24 24 24 25 26 26 26 26 27 28 28 29 29 30 30 31 31 31 32 32 32 32 32 33 34 35 36 36 37 39 40 40 40
23 23 23 24 24 25 26 26 27 27 27 27 27 27 28 29 29 29 30 30 30 30 31 32 32 33 33 33 34 33 33 33 34 34 35 36 36 37 38 39 40 40 40 41
27 28 27 28 29 29 29 29 30 30 30 30 31 31 31 31 32 32 33 33 33 33 33 34 34 34 34 34 35 35 35 35 35 36 36 37 38 39 40 40 41 41 41 41
31 31 30 31 32 32 32 32 32 33 33 34 34 34 34 34 34 34 35 35 35 35 35 35 36 36 36 35 35 36 36 37 37 37 37 38 38 39 40 40 41 41 42 41
33 33 33 34 35 35 35 34 35 35 35 36 36 35 36 36 36 36 36 37 37 37 37 37 37 37 37 36 37 37 38 38 38 38 38 39 39 39 39 40 40 41 41 41
36 35 36 37 37 37 38 37 37 37 37 38 38 37 37 37 38 38 39 39 38 38 38 38 38 38 38 38 38 38 39 39 39 39 39 39 40 40 41 41 41 41 41 41
39 38 38 39 39 40 40 40 40 39 39 40 40 40 40 40 40 40 40 39 39 39 38 38 39 39 39 39 39 39 39 39 39 39 40 40 41 41 42 41 41 41 41 41
43 41 42 41 42 42 43 43 42 42 42 42 42 42 42 42 41 41 41 40 40 39 38 39 39 39 40 40 41 40 40 40 40 40 40 41 41 42 42 42 42 41 41 41
45 44 45 44 44 44 44 43 44 44 44 43 43 43 43 43 42 42 42 42 41 41 40 40 40 40 41 41 41 41 41 41 41 41 42 42 42 42 43 42 42 42 42 42
48 48 47 46 46 46 46 46 46 46 46 46 45 45 44 44 44 44 43 42 42 41 41 41 41 41 42 42 41 41 41 41 41 42 42 42 42 43 43 43 43 42 42 42
50 50 49 48 47 47 47 47 46 46 46 46 45 45 45 45 44 44 43 43 42 42 42 42 42 42 42 42 42 42 41 41 41 42 42 43 43 43 43 43 42 42 42 42
50 50 50 49 48 47 47 46 46 46 46 45 46 46 45 45 45 44 44 44 43 43 43 43 43 43 42 42 42 42 42 42 42 42 42 43 43 43 42 42 42 42 42 43
49 49 49 48 48 47 46 46 46 45 45 45 45 45 45 45 44 44 44 44 44 44 44 43 43 43 43 43 43 43 42 42 42 42 42 42 42 42 41 41 41 41 42 42
48 47 47 47 47 46 46 45 44 44 44 44 44 44 44 44 44 44 44 44 44 44 43 43 42 43 43 43 43 43 42 42 42 41 41 41 41 41 41 41 41 41 41 42
48 47 46 46 45 45 44 44 44 44 44 44 43 44 44 44 43 43 43 43 43 42 42 41 42 42 43 43 42 42 41 41 41 41 40 40 40 40 40 40 41 41 41 42
47 46 46 45 45 44 43 43 42 43 43 43 43 43 43 42 42 42 42 42 42 41 41 41 42 42 42 42 41 40 40 40 39 39 39 39 39 39 40 40 40 40 41 41
46 46 46 45 45 45 44 43 43 43 43 43 43 43 42 42 42 42 42 41 42 42 41 41 41 41 40 40 40 39 39 39 38 38 38 38 39 39 39 39 39 39 39 39
46 46 45 45 45 45 45 44 44 44 44 44 44 43 43 43 43 43 42 42 41 42 41 40 40 39 38 38 37 37 37 37 37 37 37 38 38 38 38 38 37 37 36 36
46 45 45 45 45 44 45 46 46 46 45 45 45 44 44 43 42 42 42 42 41 41 40 39 38 37 37 36 36 36 36 36 36 36 36 36 36 36 35 34 34 34 34 35
46 46 46 46 46 46 47 48 48 47 46 45 45 44 43 42 42 42 41 40 40 39 38 37 36 36 35 35 35 35 35 35 35 35 34 34 34 33 32 32 32 33 33 34
47 47 48 48 49 49 49 49 48 47 46 45 44 44 43 42 41 40 40 38 37 37 36 35 35 34 34 34 34 33 33 33 33 33 33 32 31 31 31 31 32 32 33 33
50 50 50 50 51 50 50 49 48 47 46 44 43 43 43 42 40 39 38 37 36 35 34 33 33 33 33 33 32 32 32 31 31 31 31 31 30 30 30 31 31 31 32 32
50 50 51 51 51 50 50 49 47 46 44 43 42 42 41 40 39 38 37 36 35 34 33 32 32 33 32 32 31 31 30 30 29 30 29 29 29 29 30 30 30 30 31 30
51 51 51 50 49 49 49 48 46 44 43 42 41 40 40 39 38 37 37 36 35 34 33 32 32 32 32 31 31 30 29 29 28 28 29 28 28 29 29 29 29 29 29 28

GEFSNGP_500_meanwind_132.txt.gz
Wind_Speed
10 11 12 12 13 15 15 16 16 15 17 19 21 21 22 22 23 23 24 26 27 28 29 30 31 32 33 33 34 34 34 35 35 36 36 37 37 38 38 38 39 40 40 40
14 15 15 15 16 17 18 18 19 19 20 22 23 24 24 25 26 26 27 28 28 29 30 31 32 32 33 34 34 34 35 35 36 36 37 37 37 38 38 39 39 39 40 40
16 17 17 17 18 20 21 21 22 23 23 25 26 26 27 27 28 29 30 30 31 32 32 33 33 33 34 35 35 35 36 36 36 37 37 37 37 38 38 38 39 39 39 39
18 19 20 21 22 23 24 25 26 26 27 27 28 28 29 30 31 31 32 33 34 34 34 35 35 35 36 36 37 37 37 37 37 37 37 38 38 38 38 38 39 39 38 39
23 23 23 23 25 26 27 27 28 29 29 29 30 30 31 33 34 34 35 36 36 36 37 37 37 37 37 37 37 37 38 38 38 38 37 38 38 38 38 38 38 38 39 39
26 27 26 26 27 28 29 30 31 31 32 32 33 33 33 35 36 37 38 38 38 38 38 38 39 38 38 38 38 38 38 38 39 39 39 39 39 39 38 39 39 39 39 39
28 29 29 30 31 32 32 33 34 34 35 35 36 36 36 37 38 39 39 40 40 40 40 39 39 39 39 39 39 39 39 39 39 40 40 39 39 39 39 39 39 39 39 40
32 33 33 34 34 35 35 36 37 37 37 38 38 39 39 40 40 41 41 41 41 41 41 41 41 40 40 40 41 41 41 41 41 41 40 40 39 39 39 39 39 39 39 39
36 35 36 37 38 38 39 39 39 40 40 41 41 41 41 41 41 41 41 41 41 41 41 41 42 42 42 42 43 43 43 42 41 41 41 40 40 40 40 40 40 40 40 40
38 38 39 40 41 41 42 42 42 42 43 43 43 43 43 43 43 43 42 42 42 42 42 42 43 43 43 43 43 43 42 41 41 41 41 41 41 40 40 40 40 40 40 40
42 42 43 42 43 44 45 45 45 45 45 45 44 44 44 44 44 44 43 43 43 43 43 43 43 43 43 43 42 41 41 40 41 41 41 41 41 41 41 41 41 41 41 41
45 45 46 46 46 46 47 47 46 46 46 46 46 46 46 45 45 45 44 44 44 44 43 43 43 43 43 43 42 41 41 40 40 41 41 41 41 41 41 41 41 41 41 40
46 47 48 48 48 48 48 47 47 47 46 46 46 46 45 45 45 45 44 44 44 44 44 43 43 42 42 42 41 41 41 41 41 41 41 41 41 41 41 41 41 41 40 40
47 48 48 48 48 48 47 47 47 46 46 46 45 45 44 44 44 44 44 44 43 43 43 42 41 41 40 41 41 41 42 41 41 41 41 40 40 40 40 40 40 40 40 40
48 49 49 48 48 47 47 46 46 45 45 45 44 44 44 44 43 43 44 43 42 42 42 41 41 40 40 41 41 42 41 41 40 40 40 40 40 39 39 40 39 39 39 39
49 49 49 48 47 46 46 45 45 44 44 44 43 43 43 43 43 43 43 42 41 41 41 41 41 41 41 41 41 40 40 40 39 39 39 39 39 38 39 39 39 39 39 39
49 48 47 46 46 45 45 45 44 44 44 43 43 43 43 43 43 42 41 41 41 41 41 41 41 41 41 41 40 39 39 39 38 38 38 38 38 38 38 38 38 38 38 38
48 47 46 46 45 44 44 44 44 44 43 43 43 43 43 43 42 41 41 41 41 41 41 41 41 40 40 40 40 39 38 38 38 38 38 38 37 37 38 37 37 36 36 36
46 45 44 43 43 44 43 43 43 43 43 43 43 44 44 44 44 43 43 43 42 42 42 41 41 40 40 40 39 39 38 38 38 37 37 37 37 37 37 36 35 35 35 35
44 44 44 44 44 44 44 44 45 45 45 46 46 45 44 44 45 44 44 43 43 44 43 42 41 41 40 39 39 39 38 38 37 37 36 36 36 36 35 34 34 34 33 33
44 44 45 45 45 45 45 46 46 47 47 47 46 46 45 45 45 45 44 44 43 43 43 42 42 41 40 40 39 38 38 37 36 36 36 35 35 34 33 33 32 32 32 32
45 46 46 46 46 46 46 46 47 47 47 47 47 47 47 46 46 46 45 44 44 43 42 41 41 40 40 39 38 37 36 35 35 34 34 33 32 32 31 31 30 30 30 30
46 47 47 47 48 48 48 48 48 48 48 48 48 47 47 47 46 46 45 44 44 43 41 40 40 39 38 37 36 35 34 34 33 33 32 31 31 30 29 29 29 29 29 29
48 49 48 49 49 49 48 48 49 48 48 48 47 47 47 46 44 44 44 43 41 40 39 38 37 37 36 35 34 33 33 32 32 31 31 30 29 29 28 27 27 27 27 28
50 50 51 51 50 49 49 49 49 48 48 47 45 45 45 44 43 42 41 40 39 38 37 36 35 34 33 33 32 32 31 31 30 30 29 28 28 27 26 26 26 26 26 27
51 51 50 50 50 49 49 49 48 47 47 45 43 42 42 42 41 40 38 37 36 35 34 33 32 31 30 30 30 29 29 28 27 27 27 27 26 26 25 25 25 26 26 26
51 50 50 49 49 48 47 46 45 44 43 42 40 40 39 39 38 36 35 34 33 32 31 30 29 28 28 27 27 27 26 25 25 25 25 25 25 25 25 24 25 25 25 25

GEFSNGP_500_meanwind_138.txt.gz
Wind_Speed
15 16 16 16 17 18 19 19 20 19 21 22 24 24 24 25 27 28 29 30 31 32 33 34 35 36 37 38 39 40 40 41 42 43 43 44 44 44 44 44 44 44 43 43
18 19 18 18 19 20 21 22 23 23 23 25 26 26 27 28 30 31 32 33 33 35 36 37 38 38 39 40 40 41 41 42 42 43 44 44 44 44 44 44 44 44 43 43
21 22 22 21 21 23 23 24 25 25 25 27 28 29 30 31 33 34 35 35 36 37 38 38 40 41 41 42 43 43 43 43 43 44 44 44 44 44 44 44 43 43 42 42
24 24 24 23 24 25 26 26 27 28 29 29 30 31 33 34 35 36 37 38 39 40 40 41 42 42 42 43 43 43 44 44 44 44 45 45 45 44 44 44 43 43 43 43
28 29 28 27 27 27 28 29 29 30 32 33 34 35 36 36 37 38 38 39 40 41 42 43 43 44 44 45 45 45 45 45 46 46 46 45 45 45 45 44 44 44 43 43
31 31 31 30 30 31 32 32 33 34 35 36 37 37 37 38 39 39 40 41 42 43 44 44 45 46 46 46 46 46 46 46 46 46 46 45 45 45 45 44 44 44 43 44
32 33 33 33 34 35 35 36 36 37 38 39 39 40 39 40 40 41 42 43 43 44 45 46 46 47 47 47 47 47 47 47 47 47 46 46 45 45 45 44 44 44 43 43
34 35 35 36 37 37 38 39 39 40 40 41 41 41 42 42 42 43 44 44 45 46 46 47 48 48 48 48 48 48 48 47 47 47 46 45 44 44 44 44 43 43 42 42
37 37 37 38 39 39 40 41 41 42 42 43 43 43 43 44 44 45 46 47 47 47 48 48 48 49 49 48 48 48 47 47 47 46 45 45 44 44 43 43 42 42 42 42
38 38 39 40 41 41 42 43 43 43 44 45 45 45 45 45 46 46 48 48 49 49 49 49 49 49 49 49 48 48 47 46 46 45 44 43 43 43 43 42 41 41 41 41
41 41 42 42 43 44 45 45 45 46 46 46 46 46 47 48 48 49 50 50 50 50 50 50 49 49 49 48 48 47 46 45 45 44 43 43 42 42 42 42 41 41 41 41
44 43 45 44 45 45 46 46 47 47 47 47 48 49 49 50 51 51 51 51 51 51 50 49 49 48 47 47 47 46 45 44 44 43 43 42 42 41 41 41 41 41 41 40
46 46 47 47 47 47 48 48 48 48 49 49 50 51 51 52 52 52 52 51 51 50 49 48 48 47 47 46 46 45 44 43 42 42 42 42 41 41 41 40 40 40 40 39
48 48 48 48 49 49 49 49 50 50 50 51 51 52 52 52 52 51 50 50 49 49 48 47 47 46 46 45 44 43 42 42 42 41 42 41 41 41 40 40 39 39 39 38
48 49 49 49 49 50 50 51 51 51 51 51 52 52 52 51 50 49 49 49 48 48 48 47 47 46 46 45 44 43 43 42 42 42 42 41 41 41 40 39 39 39 38 38
49 50 50 50 50 51 51 51 52 51 51 51 51 51 50 49 49 48 48 48 48 47 47 48 47 47 46 46 45 44 44 44 44 43 42 42 41 41 40 40 39 39 38 38
50 50 51 51 51 51 51 51 51 50 50 50 50 49 49 49 48 48 48 48 48 48 48 48 48 47 47 47 46 45 44 44 44 44 43 42 42 41 40 40 39 38 38 38
50 50 51 51 50 50 50 50 50 50 49 49 49 48 49 49 49 49 48 49 49 48 48 49 49 48 47 47 47 46 45 44 44 43 43 42 41 40 40 39 38 37 37 37
50 50 50 49 49 49 49 49 49 48 48 49 49 49 49 49 49 49 48 48 48 48 48 48 48 48 47 47 46 45 45 44 43 42 42 41 40 39 39 38 37 36 36 36
49 49 49 49 49 48 48 48 48 48 48 49 50 50 49 49 49 49 49 48 48 48 48 48 48 48 48 47 46 45 44 43 42 41 41 40 39 38 37 36 35 35 34 34
49 49 49 49 49 48 49 49 50 50 49 50 50 50 50 49 49 49 50 49 48 49 49 48 47 46 46 45 44 43 42 42 41 40 39 38 37 35 35 34 33 33 32 31
49 49 49 50 50 50 50 50 51 51 51 51 51 52 52 51 51 50 50 50 49 48 47 46 45 44 43 42 42 41 40 39 39 37 36 35 34 33 32 31 30 30 29 28
50 50 50 50 51 51 52 52 53 53 53 53 53 53 53 53 52 51 50 48 47 45 44 43 42 41 41 40 39 39 38 37 36 35 34 32 31 30 29 29 27 27 26 26
51 51 52 52 53 53 53 53 54 54 54 54 53 53 52 51 50 48 48 45 43 42 41 40 39 39 38 37 37 36 35 34 33 32 30 29 28 28 27 26 25 25 25 25
52 52 52 53 53 53 53 53 54 53 53 52 51 50 49 49 47 44 42 41 40 40 39 38 37 37 36 35 34 33 32 31 30 29 27 27 26 26 25 24 24 23 23 24
51 51 51 52 52 52 51 51 50 50 50 49 47 46 45 44 43 41 40 39 38 37 37 36 35 34 32 32 31 30 29 28 27 26 25 25 25 24 23 23 22 22 23 23
50 50 50 49 49 49 49 49 48 47 46 45 44 42 41 40 40 39 38 37 36 36 35 33 32 31 30 29 28 27 27 26 25 25 24 23 23 22 22 22 22 22 22 22

GEFSNGP_500_meanwind_144.txt.gz
Wind_Speed
15 15 16 16 17 18 18 19 20 19 20 21 21 21 21 22 23 24 26 26 27 28 30 31 33 34 36 37 38 39 41 42 43 44 45 46 47 48 48 49 49 49 50 50
16 17 18 18 19 20 21 21 21 21 21 23 23 24 24 25 26 27 28 30 31 32 33 34 36 37 39 40 40 41 42 43 44 45 47 48 49 49 50 50 50 51 51 51
19 20 20 19 20 22 22 23 24 24 24 25 25 26 27 28 29 30 31 32 33 35 36 37 38 39 40 41 42 43 44 44 46 47 48 49 50 50 50 51 51 51 51 51
22 22 22 22 22 23 24 25 26 26 26 27 27 28 29 30 31 33 33 34 35 37 38 39 40 41 42 42 43 44 45 46 47 48 49 49 50 50 50 50 51 51 51 51
25 25 24 24 25 25 26 26 27 28 28 29 30 31 32 33 34 35 36 37 38 39 40 41 42 42 43 44 45 46 47 48 49 50 50 50 50 51 51 51 51 51 51 50
27 28 27 27 27 28 29 29 29 30 31 32 33 33 34 35 35 36 38 39 40 41 42 43 44 44 45 46 47 48 49 50 51 51 52 52 52 52 51 51 51 50 50 49
30 31 30 30 30 31 31 32 32 33 33 34 34 36 37 37 38 39 40 41 42 43 44 45 46 47 48 48 49 50 51 51 52 53 53 53 53 52 51 50 50 49 48 47
32 33 32 32 33 33 34 35 36 36 36 37 37 38 39 40 41 42 42 43 44 45 46 47 48 49 50 50 51 51 52 53 53 53 53 53 52 51 51 50 49 48 46 45
34 34 34 35 35 36 37 38 38 38 38 39 40 40 41 41 42 43 44 45 47 47 48 49 49 50 51 51 52 53 53 53 53 53 53 52 51 50 50 49 48 46 45 44
36 35 36 38 39 39 40 41 41 41 41 41 41 42 43 43 44 45 46 47 48 49 50 50 51 51 52 52 53 53 53 53 53 52 52 51 50 49 48 47 47 46 45 44
38 38 39 40 41 41 42 42 42 43 43 43 43 44 44 45 46 47 47 49 50 50 51 51 52 52 52 52 52 53 52 52 51 51 50 49 48 48 47 46 46 45 44 43
41 41 42 42 43 44 44 44 44 44 44 45 45 46 46 47 48 49 49 50 51 51 51 51 51 51 51 51 52 52 51 51 50 50 50 49 48 47 46 45 44 44 43 43
44 45 45 45 45 45 46 46 46 46 46 46 47 47 48 49 50 50 51 51 51 51 51 51 51 51 51 51 51 51 51 51 50 50 49 48 48 47 45 44 44 43 43 42
46 47 46 46 47 47 47 47 47 47 47 47 48 49 50 50 51 51 52 52 52 51 51 51 51 51 51 51 51 51 51 51 50 49 49 48 47 46 45 44 43 42 42 42
47 47 47 47 48 48 48 48 48 48 48 48 49 50 50 51 51 52 52 52 52 51 51 51 51 51 51 51 51 51 51 50 50 49 48 47 47 46 45 45 44 42 42 42
47 47 47 47 47 48 48 48 49 49 49 49 49 49 50 50 51 51 52 52 51 51 50 51 51 50 50 50 50 50 50 50 50 49 48 48 47 46 45 44 44 43 42 41
45 45 45 46 46 47 48 48 48 49 49 49 49 49 50 51 51 51 51 51 51 51 51 51 50 50 50 50 49 49 49 49 49 48 48 47 46 46 45 44 43 42 41 40
44 44 45 45 46 46 47 47 48 48 48 48 49 50 50 51 51 51 51 50 50 50 50 50 50 50 50 49 49 49 49 49 48 47 46 45 45 44 44 43 41 40 39 38
45 45 45 45 46 46 47 47 48 48 48 49 50 50 50 50 50 50 50 50 50 50 49 50 50 50 49 49 49 49 48 47 46 45 44 43 43 42 41 40 39 38 37 36
45 45 45 45 45 46 47 47 48 48 49 49 50 50 50 50 51 51 50 50 50 50 51 50 50 49 48 48 48 47 46 45 44 42 41 41 40 39 38 37 37 36 35 34
44 44 45 45 46 46 47 47 48 48 49 49 50 50 50 50 51 51 50 50 49 50 50 49 48 47 47 46 46 45 43 42 41 40 39 38 37 36 36 35 34 33 32 31
44 44 45 45 46 46 46 47 48 48 49 49 50 50 51 50 50 50 50 50 50 50 49 47 46 46 45 44 43 42 41 40 38 37 37 36 35 34 33 33 32 31 29 28
44 45 45 46 46 46 47 48 49 49 49 50 50 50 50 50 50 50 49 49 49 48 47 46 45 44 43 42 40 39 39 37 36 35 34 33 32 32 31 30 29 28 26 25
44 45 46 46 47 47 48 49 49 50 50 50 50 50 50 50 49 48 48 48 47 47 45 43 42 41 41 39 38 37 36 35 34 34 32 31 31 30 29 28 26 25 24 23
46 47 47 48 48 49 50 50 50 50 50 50 50 49 49 49 48 46 46 46 45 44 42 41 40 39 38 37 37 36 35 33 32 31 30 29 28 27 26 25 23 22 21 21
47 48 48 49 49 49 50 50 50 50 50 50 48 48 47 46 46 45 44 43 42 41 40 38 37 36 36 36 35 33 32 30 29 28 27 26 25 24 23 22 20 20 19 19
47 48 48 48 48 49 49 49 49 49 49 48 47 46 45 44 44 43 42 41 40 39 37 36 35 34 33 32 31 29 28 27 26 26 25 24 23 22 21 20 19 18 18 18

GEFSNGP_500_meanwind_150.txt.gz
Wind_Speed
19 20 20 20 20 21 22 22 23 21 22 22 24 25 26 27 27 28 29 30 30 31 32 32 33 34 36 37 38 39 41 42 43 45 46 46 46 47 48 49 51 51 52 53
21 22 23 22 22 22 23 23 24 24 23 24 26 27 27 28 28 28 29 30 31 32 32 33 34 36 37 38 40 41 42 43 44 45 46 47 47 49 50 51 52 53 53 54
24 23 24 23 22 23 23 24 25 25 25 27 27 28 28 30 30 31 31 32 33 34 35 36 37 38 40 41 42 43 44 45 46 47 48 48 49 51 51 52 53 54 55 55
27 27 27 25 25 25 26 26 27 28 28 28 29 29 30 31 32 32 33 34 35 36 37 38 39 40 42 43 44 45 45 46 47 48 49 50 51 52 53 54 55 56 56 56
30 30 29 28 28 28 29 29 29 30 30 30 31 31 32 33 33 34 35 36 37 39 40 41 42 43 44 45 46 47 47 48 49 50 51 52 54 55 55 56 56 57 57 57
33 33 32 31 31 31 32 32 31 32 32 33 33 33 33 34 35 37 38 39 40 41 42 43 44 45 46 47 48 48 49 50 51 53 54 55 56 56 57 57 57 57 57 58
35 36 35 34 34 34 34 34 34 34 34 35 35 36 36 37 38 39 40 41 42 43 44 46 47 47 48 49 49 50 51 52 53 54 55 56 57 57 58 58 57 58 58 58
37 38 37 36 36 36 36 37 36 36 36 37 37 38 39 40 41 42 43 44 45 46 47 48 49 49 50 51 51 52 53 54 55 56 56 57 57 57 58 58 58 58 59 58
39 39 39 39 38 38 38 38 38 38 39 39 40 41 42 43 44 45 46 46 47 48 49 49 50 51 52 53 53 54 55 56 56 57 57 58 58 58 58 58 58 59 59 58
41 40 40 41 41 40 40 40 40 41 42 42 43 44 45 46 47 47 48 49 50 50 51 51 52 53 54 55 55 56 56 56 57 57 58 58 58 58 58 58 58 57 57 56
43 42 43 44 44 43 43 43 43 44 44 45 46 47 48 48 49 50 50 51 51 52 52 53 54 55 55 56 56 56 56 56 57 57 58 57 57 57 57 57 57 56 56 55
44 44 46 45 45 45 46 46 46 47 47 47 48 49 49 50 51 51 52 52 53 53 53 54 54 55 55 56 56 56 56 56 57 57 57 56 56 56 56 56 55 55 54 54
45 46 46 46 46 47 47 48 48 49 49 49 50 50 50 51 51 52 52 53 53 53 54 54 54 54 54 55 55 56 56 56 56 56 56 56 56 55 54 53 53 52 52 52
46 46 47 47 47 48 48 49 50 50 50 50 50 51 51 52 52 52 52 52 53 53 53 53 53 53 54 55 55 55 55 55 56 56 55 55 55 54 53 52 51 50 50 50
47 48 48 48 48 49 49 50 50 50 50 50 50 51 51 51 51 51 51 52 52 53 52 52 53 53 54 54 54 54 55 55 55 54 54 53 53 52 51 51 50 49 48 47
48 48 48 48 48 48 48 48 48 48 49 49 48 48 49 49 50 50 51 51 52 51 51 52 52 52 53 53 54 54 54 53 53 53 52 51 51 51 50 49 48 47 46 45
46 46 46 46 46 46 46 46 47 47 46 46 47 48 49 49 50 50 50 50 50 50 51 52 52 52 52 53 53 52 52 51 51 50 50 50 49 49 48 47 46 45 44 43
45 45 45 45 45 46 46 46 46 46 46 47 48 48 48 49 49 49 49 49 50 50 51 52 52 52 52 52 52 51 50 50 49 49 49 48 48 47 46 46 44 43 42 40
44 44 44 45 45 45 45 46 46 46 47 47 47 47 48 48 49 49 50 50 50 51 51 52 52 52 51 51 51 50 49 49 49 49 48 47 46 46 45 43 41 40 39 38
43 44 44 44 44 44 45 45 45 45 46 47 47 48 48 48 49 50 50 50 51 52 51 51 50 50 49 50 50 49 49 49 48 47 47 46 45 43 41 39 38 37 36 36
42 42 42 43 43 44 45 45 46 46 46 47 47 48 48 49 49 50 50 50 49 50 49 49 48 48 48 48 48 48 48 47 46 45 44 42 41 39 37 37 36 36 35 34
41 42 42 43 44 44 45 46 46 47 47 48 48 48 48 48 49 49 49 49 48 48 47 47 47 47 48 48 47 46 46 44 43 42 40 39 38 37 36 35 34 34 33 32
42 42 42 43 44 44 45 45 46 47 47 47 47 47 48 48 48 48 47 47 47 47 46 46 47 47 47 46 45 44 42 41 39 38 37 36 35 35 34 33 32 32 30 29
43 43 44 44 45 46 46 46 47 47 47 47 47 47 47 47 47 47 48 47 47 47 46 46 46 45 44 43 41 40 39 38 37 36 35 34 33 33 32 31 29 28 27 26
43 44 45 45 45 45 46 45 45 45 45 45 45 45 46 47 47 47 47 47 47 46 45 45 44 43 42 40 39 37 36 35 34 33 32 31 31 30 28 27 26 25 23 22
45 45 46 46 46 46 46 45 45 45 45 46 46 46 47 48 49 48 47 46 45 44 44 43 42 40 39 38 37 35 34 32 31 31 30 29 28 27 26 25 23 22 21 20
45 45 45 45 45 46 46 47 47 47 48 48 48 48 48 48 48 47 46 45 44 43 42 40 39 38 37 36 34 33 32 30 29 29 28 27 26 25 24 23 21 20 20 19

GEFSNGP_500_meanwind_156.txt.gz
Wind_Speed
18 18 19 19 20 21 21 22 22 21 21 21 24 25 25 26 26 27 27 28 29 30 31 32 32 33 34 35 36 36 37 38 39 40 42 43 45 46 47 48 49 50 51 52
21 22 22 22 22 23 23 24 24 24 23 24 26 26 27 27 27 28 28 29 30 31 32 32 33 34 35 36 37 37 38 40 41 42 43 45 47 48 48 49 51 52 53 54
25 25 26 25 24 26 26 26 27 27 27 27 28 28 28 29 29 29 30 30 31 32 33 33 34 35 37 38 39 39 40 41 43 44 45 47 48 49 50 51 52 54 55 56
28 28 29 27 27 28 28 28 29 29 29 30 30 30 30 30 31 31 31 32 33 33 34 35 35 37 38 39 40 41 42 43 45 46 48 49 50 51 52 53 54 55 56 57
31 31 31 30 29 30 30 30 30 31 31 32 31 31 31 31 32 32 33 34 34 35 36 36 37 38 39 40 42 43 44 45 46 47 49 49 50 52 53 54 55 56 57 57
34 35 34 32 32 32 33 33 32 32 33 33 32 32 33 33 34 34 35 35 36 37 37 38 39 40 41 42 43 45 46 47 48 49 50 51 52 53 54 55 55 56 57 58
36 37 37 35 34 34 35 35 34 34 34 34 34 34 34 35 35 36 37 37 38 39 40 41 42 42 43 44 46 47 48 49 50 50 51 52 53 54 55 56 57 58 58 59
37 38 38 37 37 37 37 37 36 36 36 36 36 36 36 36 37 38 39 40 41 42 42 43 44 45 46 47 48 49 49 50 50 51 52 53 54 55 56 57 58 58 58 58
39 39 39 39 39 39 39 39 39 38 39 39 39 39 39 40 40 41 42 42 43 44 45 46 47 48 48 49 49 50 50 50 51 52 53 54 55 56 56 57 57 57 57 58
41 39 40 41 41 41 41 41 41 41 41 41 41 41 42 42 43 43 44 45 46 47 48 48 49 49 49 50 50 50 50 51 52 53 54 55 55 55 56 56 57 57 57 57
42 41 42 42 43 43 43 43 43 43 43 43 43 43 43 44 44 45 46 47 48 48 48 49 49 49 49 50 50 51 52 52 53 54 54 54 54 55 55 56 56 56 56 56
43 43 44 44 44 45 45 45 45 45 45 45 45 45 45 45 45 46 46 47 47 47 48 48 48 49 49 50 51 52 52 53 53 53 53 54 54 54 54 55 55 56 56 55
45 45 45 45 45 45 46 46 46 46 46 45 45 45 45 45 45 46 46 46 47 48 48 48 49 49 50 51 51 52 52 53 53 53 54 55 55 55 54 54 53 53 54 53
45 46 45 45 45 45 45 45 45 45 45 44 44 44 44 44 45 45 46 46 47 47 48 48 49 50 51 51 52 52 52 53 53 54 54 54 55 54 53 52 51 50 51 51
45 45 45 44 44 44 44 44 44 44 43 44 44 44 44 44 44 45 45 46 46 46 47 48 49 50 51 51 52 52 52 53 53 53 53 53 53 53 52 51 51 50 49 48
46 45 45 45 44 44 44 44 43 43 43 43 43 44 44 44 44 44 45 46 46 47 47 49 49 50 50 51 51 51 51 51 51 52 52 52 51 50 50 49 49 48 47 46
45 44 45 44 44 43 43 42 43 43 43 42 42 43 43 44 44 45 45 46 46 47 48 48 49 49 49 50 50 50 50 49 49 50 50 50 49 48 48 48 47 46 45 44
43 43 43 42 42 42 42 42 42 41 41 41 42 43 43 44 44 45 45 46 46 46 47 48 48 48 48 49 48 48 48 48 48 48 48 47 46 46 46 46 45 44 43 42
41 41 41 40 40 40 39 39 40 40 40 41 41 42 42 43 43 44 44 45 45 46 46 47 47 47 47 47 47 47 47 47 47 46 46 45 45 45 44 44 43 42 41 40
39 38 38 38 38 38 38 38 39 39 40 40 40 41 41 42 43 44 45 45 46 46 46 46 46 45 45 45 45 45 45 45 45 45 44 43 43 43 42 42 41 40 39 38
36 36 37 37 37 37 37 38 39 39 40 40 40 41 41 42 43 44 45 45 45 45 45 45 44 44 44 44 44 44 43 44 44 43 43 42 42 41 40 39 39 38 37 36
34 35 36 37 37 37 37 38 38 39 39 40 40 40 41 42 43 43 44 44 44 43 43 43 43 43 43 43 43 42 42 42 42 42 42 41 40 39 38 37 36 35 34 33
34 34 35 36 36 37 37 38 38 39 39 39 39 40 41 42 42 42 42 42 42 42 42 41 41 42 42 42 42 41 41 41 41 41 40 39 37 36 35 34 33 32 31 29
34 35 36 37 38 38 39 39 39 39 40 40 40 41 42 42 41 41 41 40 41 41 41 41 42 42 43 42 41 41 41 41 40 40 38 37 36 34 33 32 30 29 28 27
37 38 38 39 39 40 40 40 40 41 41 41 41 41 42 42 42 42 42 42 42 42 42 42 43 43 42 42 42 41 41 40 39 38 36 34 33 32 31 29 28 27 26 25
38 38 39 39 40 41 41 42 42 42 42 42 41 42 42 42 43 43 43 43 43 44 44 43 43 43 42 42 41 40 39 37 36 34 32 31 30 29 28 28 26 25 23 22
40 40 41 41 42 42 43 43 42 42 42 42 41 41 42 42 43 43 43 43 43 42 42 42 42 41 41 40 38 36 35 33 31 30 29 29 28 27 27 25 24 22 21 21

GEFSNGP_500_meanwind_162.txt.gz
Wind_Speed
21 21 21 21 22 23 24 24 25 24 24 25 27 27 27 28 28 29 30 30 31 31 32 33 34 34 35 36 37 38 38 39 40 41 42 42 44 45 46 47 48 49 50 50
24 25 25 25 24 25 26 26 27 27 27 27 29 29 30 30 31 31 31 32 33 33 34 34 35 35 36 37 38 38 39 40 41 42 43 44 45 46 47 48 48 49 50 51
28 28 29 28 26 27 28 27 28 29 28 30 31 31 32 32 33 33 34 34 34 35 35 35 36 36 37 38 39 39 40 42 42 44 44 45 46 47 47 48 49 49 50 50
32 31 32 30 30 30 30 30 31 31 31 32 33 33 34 34 35 35 35 36 36 36 37 37 37 38 39 39 40 41 42 43 43 45 46 46 47 48 48 49 49 50 50 51
34 34 34 32 32 32 32 32 32 33 33 34 35 35 35 36 36 36 36 37 37 38 38 38 39 40 40 41 42 42 43 44 45 46 47 48 48 49 49 50 51 51 52 53
36 37 37 35 34 34 35 35 34 35 35 35 36 36 36 37 37 37 37 37 38 39 39 40 41 41 42 43 44 44 45 46 46 47 48 49 49 50 51 52 52 53 53 54
39 39 39 38 37 37 37 37 37 37 37 37 37 37 37 38 38 38 38 39 40 40 41 42 43 43 44 45 45 46 47 47 48 49 49 50 50 51 52 53 53 54 54 55
41 41 40 39 39 39 39 39 39 39 39 39 39 39 39 40 40 40 41 41 41 42 43 44 44 45 45 46 47 48 48 48 49 49 50 50 51 52 53 54 54 55 56 57
43 43 42 41 41 41 41 42 41 41 41 41 41 41 42 42 42 42 42 43 43 44 44 44 45 46 46 47 48 48 48 48 49 50 50 51 52 52 53 55 56 57 57 58
44 43 43 43 43 43 43 43 43 43 43 43 43 43 43 43 43 44 44 44 45 45 45 45 45 46 46 47 47 48 48 49 49 50 51 51 52 53 54 55 57 58 58 59
46 45 45 45 45 44 45 45 46 45 45 45 45 45 45 45 45 45 45 45 46 46 46 46 46 46 46 46 47 47 48 49 50 50 51 52 53 54 55 56 57 58 58 59
47 47 48 47 47 47 47 47 47 47 46 46 46 46 46 46 46 46 46 45 45 45 45 45 45 45 45 46 47 48 48 49 50 51 51 52 53 53 53 54 55 56 56 57
48 48 49 49 48 48 48 48 48 47 47 47 46 46 46 46 46 46 45 45 45 44 44 44 44 45 45 46 47 48 49 50 51 51 51 52 52 52 52 52 52 53 54 54
48 49 49 48 48 48 48 47 47 47 47 47 46 46 46 45 45 45 45 44 44 44 44 45 45 46 47 48 48 49 49 50 50 51 51 51 51 51 51 51 51 51 51 52
48 49 48 47 47 46 47 46 46 46 46 46 46 46 46 45 45 44 44 44 44 45 45 46 46 47 48 48 48 48 49 49 49 49 49 49 50 50 50 51 51 50 50 49
48 48 48 47 45 45 45 45 45 45 45 44 44 44 44 44 44 44 44 44 45 45 46 46 46 47 48 48 48 48 48 48 48 48 48 48 49 49 49 50 50 49 48 47
45 45 45 44 44 44 44 44 44 43 43 42 43 43 43 43 42 42 43 43 44 44 45 46 46 46 46 47 47 48 47 47 47 47 47 48 48 48 48 48 47 46 46 45
42 42 42 42 42 41 41 41 41 41 41 41 42 42 42 41 41 42 43 43 43 44 44 44 45 45 46 46 47 46 46 46 46 46 47 47 47 47 47 46 46 45 43 42
38 39 39 40 40 40 40 40 40 40 41 41 41 41 41 41 41 41 42 42 42 42 42 43 44 45 45 45 45 44 44 45 46 47 47 47 46 46 45 45 44 43 42 40
38 38 38 39 39 39 39 39 39 39 39 39 39 39 39 39 39 40 40 40 41 42 42 43 43 43 43 43 43 44 44 45 46 46 47 46 45 45 45 44 42 41 40 39
38 38 38 37 37 37 37 37 37 36 36 35 35 35 36 37 37 38 39 40 40 41 41 42 43 43 43 43 44 44 44 45 45 45 45 45 44 44 43 41 40 40 39 38
36 35 35 35 35 35 34 34 35 35 35 34 34 34 35 36 37 38 39 40 40 41 42 42 43 43 43 43 43 43 43 44 44 45 44 43 43 41 40 39 38 37 37 36
34 34 33 33 33 34 34 34 34 35 35 35 36 37 37 38 38 38 39 39 40 41 41 42 42 43 43 43 42 42 42 43 44 44 43 41 40 39 38 36 36 36 35 35
33 33 34 34 34 34 35 35 35 36 36 37 38 38 39 39 39 40 40 41 41 41 41 42 42 42 42 42 41 41 42 42 42 41 39 38 38 37 36 36 35 34 34 33
35 35 35 35 35 35 35 35 36 36 37 37 38 39 40 40 41 41 41 41 41 42 42 42 42 41 41 41 41 41 41 41 40 39 38 37 36 35 35 34 34 33 32 30
36 36 36 37 37 37 38 38 38 39 39 39 40 41 42 43 42 42 41 41 42 42 41 41 40 40 40 40 40 40 40 39 38 37 36 35 34 33 32 31 30 29 27 26
36 36 36 37 38 39 39 39 39 40 40 41 41 41 41 41 41 40 40 40 40 40 40 39 39 39 39 39 39 38 37 36 35 34 32 31 30 28 27 26 25 24 23 22

GEFSNGP_500_meanwind_168.txt.gz
Wind_Speed
20 21 21 21 22 22 23 23 24 23 22 21 22 23 23 23 24 24 26 27 28 29 30 31 32 33 34 35 36 37 38 39 40 41 41 42 43 44 44 45 46 47 48 49
22 22 23 23 23 24 25 25 25 25 24 24 25 25 26 26 26 27 28 29 30 31 32 33 34 35 35 36 36 38 39 40 41 41 42 43 44 44 45 46 47 48 49 50
25 25 26 25 24 25 26 26 26 26 25 26 27 28 28 28 29 30 30 31 32 33 33 34 35 36 36 37 38 39 40 41 42 43 43 44 45 45 46 47 47 48 49 50
29 28 28 27 27 27 28 28 29 29 29 29 29 30 30 31 31 32 32 33 34 34 35 36 37 37 38 39 40 41 41 42 43 44 44 45 45 46 47 47 47 48 49 50
31 31 30 29 29 30 30 30 30 30 30 31 31 32 32 32 33 33 34 35 35 36 36 37 39 40 40 40 41 42 42 43 44 44 45 46 46 46 47 47 48 49 49 50
33 33 33 32 32 31 32 32 31 32 32 33 33 33 33 34 34 34 34 35 36 37 37 38 39 40 41 41 42 42 43 44 44 45 45 46 46 47 47 47 48 48 49 50
36 36 35 34 34 34 34 34 34 34 34 35 35 35 35 36 36 36 36 36 37 38 38 39 40 41 41 42 43 44 44 44 45 45 46 46 46 47 47 47 48 49 50 50
38 38 37 36 36 36 36 36 36 36 36 36 36 37 37 37 37 38 38 38 39 39 40 40 41 42 42 43 44 45 45 45 45 46 46 46 47 47 47 48 49 49 50 50
41 40 40 39 39 39 40 40 40 39 39 39 39 39 39 39 39 40 41 41 41 42 42 42 43 43 44 44 44 45 45 45 46 46 46 46 47 47 48 48 49 50 50 51
42 41 41 41 42 42 43 43 42 42 42 42 42 42 42 42 42 43 43 43 43 43 43 43 43 44 44 44 45 45 45 45 45 45 46 46 46 47 48 48 49 50 51 52
44 43 43 43 43 44 45 45 45 45 45 45 45 45 45 45 45 44 44 44 44 44 44 44 44 44 44 44 44 45 45 44 44 45 45 46 47 47 48 49 50 51 52 52
44 44 45 45 44 45 46 46 47 47 47 47 47 47 47 46 46 46 45 45 45 45 45 45 45 45 45 45 45 45 45 45 45 45 46 47 48 48 49 49 50 51 52 52
45 46 47 46 46 46 46 46 47 47 48 48 48 48 47 46 46 46 46 46 45 45 45 45 45 45 45 45 45 45 45 45 45 46 46 47 48 49 49 49 49 50 51 51
47 47 47 47 47 47 47 47 47 47 47 47 47 47 47 46 46 46 46 45 45 45 45 45 45 45 45 44 45 46 46 46 46 46 47 47 48 49 49 49 49 48 49 49
47 47 47 47 47 47 47 47 47 46 46 46 45 45 45 44 44 43 43 43 43 43 43 44 44 43 44 44 44 45 45 45 45 45 46 46 47 47 47 47 47 47 47 47
46 46 45 45 45 45 45 44 44 43 43 43 42 42 42 41 41 41 40 41 41 41 41 41 41 41 42 42 42 42 42 42 43 43 44 44 45 45 45 46 46 46 46 45
42 43 43 43 43 43 42 42 41 41 40 40 40 39 39 39 39 39 39 39 39 40 40 40 40 40 41 41 40 40 40 41 42 42 43 43 44 44 45 45 45 45 45 45
40 40 40 40 39 39 39 39 39 39 39 39 38 38 38 38 38 38 38 38 38 39 39 40 40 40 40 39 39 39 40 40 41 41 42 43 43 44 44 44 44 44 45 45
37 37 36 36 37 37 37 37 37 37 37 38 38 37 37 37 37 37 37 37 37 38 38 39 39 39 38 38 38 39 39 40 41 41 42 42 43 43 44 44 44 44 44 44
34 34 34 35 35 35 35 35 35 36 36 36 36 36 35 35 36 36 36 36 36 36 36 37 37 37 37 37 38 39 39 40 40 41 42 43 43 42 42 43 43 44 43 42
34 34 34 34 34 34 35 34 34 34 33 33 33 34 34 34 34 34 35 34 34 35 35 35 35 36 37 37 38 39 39 40 40 41 41 41 41 41 40 41 41 42 41 39
34 33 33 34 34 33 33 33 32 32 33 33 33 33 34 34 34 34 34 34 34 34 34 35 35 36 37 38 38 39 39 40 40 40 39 39 39 39 39 39 40 39 38 37
32 32 33 33 33 32 32 32 32 33 33 33 34 34 34 35 34 34 34 34 34 35 35 36 36 37 38 38 38 39 39 40 39 39 39 39 38 38 38 37 37 36 35 34
32 32 33 33 33 33 33 33 33 32 32 33 33 34 34 34 34 34 34 35 35 35 36 37 38 38 39 39 39 39 38 38 38 38 38 37 37 36 36 36 34 33 32 31
34 34 34 33 34 34 34 33 33 33 33 34 34 34 35 35 35 35 36 36 36 37 37 37 37 38 38 38 37 37 37 37 36 36 36 35 35 34 33 32 30 29 28 26
34 34 34 34 35 35 35 35 35 35 35 35 35 35 36 36 36 36 36 36 36 36 36 36 36 36 36 36 36 36 36 35 35 35 34 33 32 31 29 28 27 26 25 24
34 34 34 34 34 35 35 35 35 36 36 36 36 36 36 36 36 35 36 36 36 36 36 35 35 35 35 34 34 34 34 34 33 33 31 30 29 28 27 25 24 23 22 21

GEFSNGP_500_meanwind_174.txt.gz
Wind_Speed
25 25 24 24 23 23 23 23 24 23 23 23 24 24 24 24 24 25 26 27 28 29 30 32 33 34 34 36 37 38 38 39 39 40 41 42 43 44 44 45 46 46 46 47
27 27 27 26 26 26 25 25 25 25 24 25 26 26 26 27 27 28 29 29 30 31 32 32 33 34 35 36 37 39 39 40 41 41 42 43 44 44 45 45 46 46 47 48
30 30 30 29 28 28 28 28 28 28 26 27 27 28 28 29 29 30 30 31 32 32 33 34 34 35 36 37 38 39 40 41 42 43 43 44 45 45 46 47 48 48 49 49
33 32 32 31 30 30 30 30 30 30 29 29 29 30 30 31 31 31 31 31 33 33 34 35 36 36 37 38 39 40 41 42 43 43 44 45 46 46 47 48 49 49 49 50
34 34 34 32 32 32 32 32 32 32 31 31 32 32 32 32 32 32 33 33 34 35 36 37 37 38 39 39 40 41 42 42 43 44 45 46 46 47 48 48 49 49 50 50
37 37 37 35 34 34 35 35 34 34 34 35 35 34 34 33 34 34 34 35 35 36 37 38 39 40 40 40 41 42 43 44 44 45 46 47 47 48 48 49 49 49 50 50
38 39 39 38 37 36 36 36 36 36 37 37 37 37 36 36 36 36 36 37 37 38 39 39 39 40 41 41 42 44 45 45 45 46 46 47 48 48 49 49 50 50 51 51
39 39 39 38 38 38 38 38 38 39 39 39 39 39 39 39 39 39 39 39 40 40 41 42 41 42 42 42 44 45 45 45 46 46 47 47 48 49 50 51 51 51 51 51
40 40 40 39 40 40 40 41 41 42 42 41 41 41 41 41 41 41 42 42 43 43 43 43 43 44 44 44 45 45 45 46 46 46 47 47 48 48 49 50 51 51 51 51
42 41 40 40 41 42 42 43 43 43 43 43 44 44 44 44 43 43 44 45 46 46 46 46 46 46 46 46 47 47 47 47 48 48 48 48 48 49 49 50 50 50 50 50
44 43 44 43 43 43 44 44 44 44 45 45 46 46 45 45 45 46 46 46 47 47 48 48 48 48 47 47 48 48 48 48 48 48 49 49 49 49 49 49 49 50 50 51
45 44 45 45 45 46 46 46 46 47 46 47 47 47 47 47 47 47 47 48 48 48 48 48 48 48 48 48 48 48 48 48 48 48 48 48 48 48 48 48 49 49 50 50
46 46 46 47 47 47 48 48 48 48 48 48 48 48 48 48 48 48 48 48 48 48 48 48 48 48 47 47 47 47 47 47 47 46 46 46 47 47 48 48 49 49 49 49
47 48 49 48 48 48 48 48 48 49 49 49 49 48 48 49 49 48 48 48 48 47 47 46 46 45 45 45 46 46 45 45 44 44 45 46 47 47 47 47 47 47 47 48
47 48 49 49 49 49 49 49 49 49 49 49 49 49 48 48 48 47 46 46 46 45 44 44 44 44 44 44 44 44 44 43 44 44 45 45 46 46 46 45 45 45 45 47
45 46 47 48 48 48 47 47 48 48 48 48 47 47 46 46 44 44 43 43 43 42 42 42 42 42 42 42 42 43 43 43 43 43 44 44 44 44 44 44 43 44 45 46
43 43 44 45 45 45 45 45 45 45 45 44 43 43 42 42 41 41 41 41 41 41 41 41 41 41 40 41 41 41 42 42 42 42 42 42 42 42 42 42 43 44 44 45
40 40 41 41 41 41 42 41 41 41 41 41 41 40 40 40 40 40 40 40 40 40 40 40 40 39 39 39 39 39 40 40 40 40 40 40 40 41 41 41 42 42 43 44
36 36 37 38 38 39 39 39 39 39 39 39 39 39 39 39 39 39 39 39 39 39 38 38 38 38 38 38 38 38 39 39 38 38 38 38 39 40 41 42 42 42 43 43
35 36 36 37 37 37 38 38 38 37 38 38 37 38 37 37 37 37 37 37 36 36 35 35 36 36 36 36 37 37 37 37 36 36 37 37 38 39 40 41 41 42 42 41
35 35 35 36 36 36 36 36 36 36 36 37 37 37 37 36 36 35 35 34 34 34 34 34 34 35 35 35 35 35 36 36 36 37 37 38 39 39 40 40 41 40 40 40
34 34 34 34 34 34 35 35 35 36 36 36 37 37 37 36 35 35 35 34 34 34 34 34 34 34 35 35 35 36 36 36 37 38 38 39 39 39 39 39 39 39 38 37
34 34 35 35 35 35 35 35 36 36 36 37 37 36 36 36 35 35 34 34 34 35 34 34 34 35 35 36 36 36 36 37 38 38 39 39 39 38 38 38 37 36 35 35
34 34 35 35 35 35 35 36 36 36 37 37 37 36 36 35 35 34 34 34 34 34 34 35 35 36 36 36 36 37 37 38 38 38 38 37 37 37 37 36 35 34 33 32
35 35 35 35 35 35 35 36 36 36 36 36 36 36 36 36 35 35 34 34 34 34 34 35 36 37 37 37 37 37 38 38 38 37 37 36 36 35 35 34 33 32 31 30
33 34 34 35 35 36 36 36 36 36 36 36 35 35 36 35 35 34 34 34 34 35 35 35 36 37 37 38 38 38 38 37 36 36 35 34 34 33 32 31 30 29 27 27
35 35 36 36 36 37 36 36 36 35 35 35 35 35 35 35 35 35 35 35 36 36 37 37 37 37 36 36 36 35 34 34 33 33 33 32 31 30 29 28 27 26 25 25

GEFSNGP_500_meanwind_180.txt.gz
Wind_Speed
29 28 29 28 27 26 26 25 25 24 24 23 23 23 23 23 23 23 24 24 25 25 26 26 27 29 31 32 32 33 34 35 36 38 39 40 41 42 42 42 43 44 44 45
31 30 30 30 29 28 27 27 27 27 27 26 26 26 26 26 26 26 25 25 26 27 27 28 28 29 31 32 33 34 35 36 37 38 39 41 41 42 43 44 44 45 45 45
33 32 32 31 30 29 28 28 29 29 28 28 28 28 28 28 28 27 28 28 28 28 29 29 29 30 31 33 34 35 36 38 38 39 40 40 41 42 43 44 45 45 45 46
36 35 34 32 30 30 30 29 30 30 30 30 30 30 30 30 30 30 30 30 30 30 30 30 31 32 33 33 34 35 37 38 39 40 40 40 41 42 43 44 45 46 46 47
37 36 35 33 32 31 31 30 30 30 30 30 30 30 30 31 31 31 31 31 31 31 31 31 32 33 34 34 35 36 37 37 38 39 40 40 40 41 42 44 45 46 46 47
38 38 37 35 33 32 32 32 31 30 30 30 30 30 30 31 31 31 32 32 32 33 33 34 34 35 35 36 36 37 38 38 39 39 40 40 41 43 43 45 46 46 47 48
38 38 37 36 35 34 34 34 32 32 32 32 32 32 32 32 32 32 32 33 33 34 34 35 35 36 36 37 37 38 39 39 40 40 41 42 43 44 45 46 47 47 47 48
39 39 38 37 36 36 36 35 35 34 34 34 34 34 34 34 34 34 34 35 35 36 36 37 37 37 38 38 39 39 40 41 41 42 42 43 43 44 45 46 47 47 47 48
39 38 38 38 38 38 38 38 37 36 36 36 36 36 36 36 36 36 37 37 37 38 39 39 39 39 39 40 40 41 42 42 43 43 43 44 44 45 45 46 47 47 47 48
39 38 37 37 38 38 39 39 39 38 38 37 38 37 38 38 38 38 38 39 39 39 40 40 41 41 41 42 42 42 43 43 44 44 45 45 45 45 46 46 47 48 48 49
39 38 38 38 38 38 38 39 39 39 39 39 40 40 40 40 40 40 41 41 41 41 41 41 42 42 42 43 43 43 43 43 44 44 45 45 45 45 45 46 47 48 48 49
39 38 39 39 39 39 39 39 39 40 40 40 41 41 41 42 42 42 43 42 42 43 43 42 42 42 43 43 43 43 43 44 44 44 44 44 45 45 45 46 47 47 47 47
40 40 41 40 40 39 39 39 39 40 40 40 41 42 43 43 43 43 43 43 43 43 43 42 42 42 42 43 43 43 43 44 44 44 43 43 43 43 43 44 44 45 45 45
40 41 41 40 40 40 39 39 39 40 40 41 41 42 42 43 43 43 43 43 43 43 43 42 42 42 43 43 43 43 42 42 43 43 42 42 42 42 42 42 43 43 43 44
39 40 40 40 40 39 39 40 40 40 40 41 41 42 42 42 42 42 42 42 43 43 43 43 42 42 42 42 42 41 41 41 41 41 41 41 42 42 42 42 42 42 43 43
38 38 39 39 39 39 40 40 40 40 40 41 41 41 41 41 41 41 42 42 42 42 42 42 42 42 42 41 41 41 41 41 41 41 41 42 42 42 42 42 42 42 42 42
35 36 36 37 37 38 39 39 39 39 40 40 40 40 40 41 41 41 41 41 41 41 41 41 41 41 40 40 40 40 40 41 41 41 41 41 42 42 41 41 41 40 40 40
33 34 34 35 35 36 36 36 37 37 38 38 39 39 39 39 40 40 39 39 39 39 39 39 39 39 39 39 39 39 39 40 40 40 40 40 40 40 40 40 39 39 39 39
31 32 33 34 34 34 35 35 36 37 37 38 38 38 38 39 39 38 38 38 38 38 38 38 38 38 38 38 38 38 39 39 39 39 39 38 38 38 39 39 38 39 39 39
31 32 32 33 33 34 34 35 36 36 37 37 37 37 37 37 37 37 37 38 38 38 38 37 37 37 37 37 37 37 37 37 37 37 37 36 36 36 37 37 37 37 37 38
30 31 31 32 32 33 34 34 34 35 35 35 36 37 37 37 37 37 37 37 37 37 36 36 36 35 35 35 35 35 35 35 35 35 35 35 35 35 35 35 36 36 36 37
28 29 30 30 31 31 32 33 33 34 34 35 36 36 36 36 36 36 36 36 35 35 35 34 34 34 34 34 34 33 33 33 33 33 34 34 34 34 34 35 35 36 36 36
27 28 28 29 30 30 31 32 33 33 34 34 35 36 36 35 35 35 34 34 34 34 34 33 33 33 33 33 32 32 32 33 33 33 33 34 34 34 34 35 35 35 35 34
27 28 28 29 30 31 32 32 33 33 34 35 35 36 36 35 35 35 34 33 33 33 32 33 33 33 32 32 32 32 33 33 33 33 33 34 34 34 34 34 34 33 33 32
28 29 30 31 32 32 33 33 34 34 35 35 35 36 36 36 35 35 34 34 34 33 33 32 32 32 32 32 32 33 33 33 33 33 34 34 33 33 32 32 31 30 29 28
29 30 31 32 32 33 33 33 33 34 34 35 35 36 35 35 35 34 34 34 33 33 32 31 31 31 31 32 33 33 33 33 33 33 32 31 30 30 30 29 27 26 25 25
30 31 32 32 32 33 33 33 33 33 33 33 33 34 34 33 32 32 31 31 31 31 31 31 31 31 32 32 32 31 31 30 30 29 28 27 27 26 24 23 22 22 22 21

GEFSNGP_500_meanwind_186.txt.gz
Wind_Speed
36 36 35 35 33 33 32 31 32 30 29 28 28 27 26 26 26 25 25 25 26 26 27 28 28 29 29 29 30 31 32 33 34 35 36 37 38 39 40 41 42 42 43 43
38 37 37 37 35 35 34 33 33 32 30 29 30 30 29 28 27 26 26 26 26 26 26 27 27 28 29 29 30 31 32 33 35 36 38 39 40 41 41 42 43 43 44 44
40 39 39 39 36 35 35 34 34 33 30 30 30 30 30 29 28 27 27 26 26 26 26 26 27 28 29 30 31 31 32 33 34 35 37 39 40 41 42 42 43 43 43 44
41 40 41 38 37 36 36 35 34 34 32 31 30 29 29 29 29 28 28 28 28 27 27 27 28 28 29 30 31 32 33 34 35 36 36 38 39 40 40 41 42 42 42 43
41 42 42 39 38 37 37 36 35 34 32 31 31 30 30 29 29 29 29 30 29 29 29 29 29 29 30 30 30 31 33 34 35 36 37 38 39 40 40 41 41 42 42 43
41 42 41 40 38 38 38 38 36 35 34 33 32 32 31 31 31 31 31 31 31 31 31 31 32 32 32 32 33 33 34 35 35 36 37 38 39 39 40 40 41 42 43 43
41 41 42 40 39 39 38 38 37 36 36 36 35 34 32 32 33 33 33 33 33 33 33 33 34 34 34 34 35 35 36 36 37 38 38 39 39 40 41 41 42 42 43 44
40 41 41 40 39 39 39 38 38 37 36 36 36 35 34 34 34 34 34 35 35 35 36 36 36 36 36 36 37 38 38 39 39 40 40 40 41 41 41 42 42 43 43 43
39 39 39 39 39 39 39 39 38 38 37 36 36 36 35 35 36 36 36 37 37 37 38 38 38 37 38 38 39 40 40 40 40 41 41 41 42 42 43 43 43 43 43 44
38 38 38 38 38 38 39 39 38 38 38 38 38 38 38 38 38 38 38 38 39 38 38 39 39 39 39 40 40 41 41 41 41 42 42 42 43 43 43 43 43 43 43 43
39 39 39 39 39 39 39 39 38 39 39 39 39 39 40 39 39 39 39 39 39 39 39 39 40 41 41 41 41 41 42 42 42 42 42 43 42 42 43 43 43 44 44 44
40 40 40 39 39 39 39 39 38 39 39 39 40 40 40 39 39 39 39 39 40 40 40 40 41 41 41 42 42 42 42 42 42 42 42 42 42 42 43 43 44 45 45 45
41 41 41 40 40 39 40 40 39 39 39 40 40 41 40 40 40 40 40 40 40 40 40 40 40 41 41 41 41 41 41 41 42 42 42 42 42 42 43 43 44 45 45 45
42 42 41 41 41 41 41 41 41 41 41 40 40 40 40 40 40 41 40 40 40 40 40 40 40 40 41 41 41 41 41 41 42 42 42 42 42 43 43 44 44 44 44 45
39 40 41 41 40 40 40 40 40 40 41 41 41 40 40 40 40 40 40 40 40 40 40 40 40 40 41 41 41 41 41 41 41 42 42 42 42 43 43 43 43 43 43 44
35 36 37 38 38 38 39 40 40 40 40 41 41 41 41 40 40 40 40 40 40 40 40 40 40 40 40 41 41 41 41 41 41 41 41 42 42 42 42 42 42 42 43 43
33 34 34 35 35 36 37 37 38 38 39 39 39 39 39 39 39 39 39 40 40 40 40 40 40 40 41 41 41 41 41 41 41 41 41 41 41 41 41 42 42 42 42 43
31 31 32 33 34 35 36 37 37 37 38 38 39 39 38 39 39 39 39 40 40 40 41 40 40 41 41 41 41 41 40 40 40 40 40 40 41 41 41 41 41 41 41 41
28 29 30 31 32 33 34 35 36 37 38 38 38 38 38 38 39 39 39 40 40 40 40 41 41 41 41 40 40 40 40 40 40 40 40 40 40 40 40 40 40 40 39 39
27 28 29 30 30 31 32 33 34 34 35 35 36 36 36 37 37 38 38 39 40 40 40 40 40 40 40 39 39 39 39 39 39 38 38 38 38 38 38 38 38 37 36 36
27 28 28 29 29 30 30 30 31 31 32 33 33 34 34 35 36 36 36 37 38 39 39 39 39 38 38 38 38 38 37 37 36 36 36 36 36 35 34 34 34 34 34 34
26 27 28 28 29 29 29 30 30 30 31 32 33 33 33 34 34 35 36 36 36 37 37 37 37 37 37 36 36 35 35 34 34 33 33 33 33 32 32 32 32 32 32 33
27 28 28 28 28 29 29 30 30 31 32 32 33 33 34 34 35 36 36 36 37 36 36 35 35 35 34 34 33 32 32 32 32 32 32 31 31 31 31 31 31 31 31 31
27 27 27 28 28 29 29 30 31 32 32 33 33 34 34 35 35 36 36 36 36 35 34 33 33 32 32 31 31 31 31 31 31 31 30 30 30 30 30 30 30 30 29 29
27 27 28 28 29 29 29 30 31 31 32 32 33 33 34 34 34 34 34 34 34 33 32 32 32 32 31 31 30 30 30 30 30 30 30 30 29 29 29 29 28 28 28 27
26 27 27 28 28 28 29 29 30 31 32 32 33 33 33 33 33 33 33 33 32 32 31 31 31 31 31 31 30 30 30 30 30 29 28 27 27 27 26 26 26 25 25 24
26 26 27 27 28 29 30 30 31 31 32 31 31 32 32 32 32 32 31 31 31 31 30 30 29 29 29 29 29 29 28 28 27 26 26 25 24 24 24 23 23 22 22 22

GEFSNGP_500_meanwind_192.txt.gz
Wind_Speed
36 35 35 34 32 32 33 32 33 31 31 29 29 29 29 29 28 27 27 27 26 26 26 26 26 27 28 29 30 31 31 32 32 33 33 33 34 34 35 36 37 38 38 39
37 35 36 35 33 33 33 33 33 33 31 30 31 31 30 30 29 29 28 28 28 27 27 27 27 27 27 28 29 30 31 32 33 34 34 35 35 35 36 37 38 39 40 41
38 37 38 37 34 35 35 35 34 34 32 31 32 31 31 30 30 29 29 28 28 28 28 28 28 28 28 28 28 29 30 31 31 32 33 34 36 37 38 39 40 40 40 41
39 39 39 35 34 35 35 35 35 34 33 32 32 31 31 31 30 30 29 29 29 28 28 28 28 29 29 29 29 29 30 30 31 32 33 34 36 37 38 38 39 40 40 40
39 40 39 36 35 34 34 34 34 35 34 33 33 33 32 32 31 30 30 29 29 30 29 29 29 30 30 31 31 31 31 31 32 33 33 34 35 36 37 38 39 39 40 40
37 37 37 36 36 36 36 35 35 35 35 34 34 34 33 32 32 31 31 31 31 31 31 31 31 31 32 32 32 32 32 33 33 34 35 35 36 37 37 38 39 40 40 40
36 36 36 35 35 35 36 35 34 35 35 35 35 35 34 34 33 33 33 32 32 32 32 33 33 33 33 33 33 34 34 34 35 35 35 36 37 37 38 39 39 40 40 41
36 37 36 35 35 35 36 35 35 35 36 36 35 35 34 34 34 33 33 33 33 33 33 33 33 33 34 34 34 34 35 35 35 36 36 37 38 38 39 39 40 40 41 41
36 36 36 35 36 36 37 37 37 36 36 36 36 35 35 35 34 34 34 34 34 34 34 33 33 34 34 34 34 35 36 36 37 37 38 38 39 39 39 40 40 41 42 43
34 35 35 36 36 36 37 38 37 36 36 36 36 35 35 35 34 34 35 35 35 35 34 34 34 34 35 35 35 36 37 38 38 39 40 40 40 40 41 41 41 42 43 44
35 34 34 35 36 37 37 37 37 37 37 36 36 36 35 35 35 35 35 35 35 35 35 35 35 36 36 36 37 37 38 39 40 40 41 42 41 41 41 42 42 43 43 44
34 34 34 34 34 35 35 35 36 36 36 36 36 35 36 36 36 36 36 36 36 36 36 36 36 37 37 37 38 38 39 39 40 40 41 41 41 41 41 41 42 43 44 44
33 33 33 33 34 35 35 36 35 34 34 34 35 35 35 36 36 36 36 36 36 36 36 36 36 36 37 37 37 38 38 39 39 39 39 39 39 40 40 41 42 43 44 44
29 29 30 31 33 34 35 35 35 34 34 34 34 34 34 34 35 36 36 36 36 36 36 37 37 37 37 37 37 37 37 37 37 38 38 38 38 39 40 40 41 42 42 43
28 29 30 30 31 32 33 34 34 34 34 34 35 35 35 35 35 36 36 36 36 37 37 37 37 37 37 37 36 36 37 37 37 38 38 39 39 40 40 40 41 41 41 42
28 29 30 31 31 32 32 33 34 34 34 35 36 36 36 37 37 36 36 36 36 37 37 37 37 36 37 37 37 37 37 37 38 38 38 39 39 39 39 39 40 40 41 42
27 27 28 28 28 29 30 31 32 33 34 34 34 35 35 35 35 36 37 37 37 37 37 37 36 36 36 36 36 36 37 37 37 37 37 37 38 38 38 39 40 40 40 41
26 26 27 27 27 28 28 29 30 31 32 32 32 33 34 34 35 36 36 36 36 36 36 36 36 36 36 37 37 37 37 37 37 37 37 37 37 37 38 39 39 39 39 39
24 25 25 25 26 26 27 27 28 29 30 31 32 32 33 34 34 35 35 35 35 35 35 36 36 36 36 37 37 37 37 36 36 37 37 37 37 37 37 38 38 38 37 36
23 24 24 24 25 26 26 26 27 28 29 30 30 31 32 32 33 33 34 34 35 35 35 35 35 35 36 37 36 36 36 36 36 36 36 36 36 36 36 36 36 35 35 34
23 24 24 24 25 26 26 26 26 27 27 27 28 28 29 30 30 31 31 32 32 33 33 34 35 35 36 36 35 35 35 35 34 34 35 35 35 34 34 34 34 34 34 34
23 23 23 23 24 24 24 25 25 26 26 26 26 27 27 28 29 29 30 30 31 31 32 33 34 34 34 34 34 34 34 34 34 33 33 33 33 32 32 32 32 32 32 32
22 22 22 22 23 23 24 24 25 26 26 26 27 27 28 29 29 30 30 31 31 32 32 33 33 33 32 32 32 31 31 31 31 31 31 31 31 30 30 29 29 29 30 30
21 21 21 22 23 24 25 26 26 26 27 27 27 28 28 28 29 30 30 30 30 31 31 32 32 32 31 31 30 30 29 29 29 28 28 28 28 28 28 28 28 28 28 28
21 22 22 23 24 24 25 25 26 27 28 28 29 29 29 29 29 29 30 30 30 30 31 31 31 30 30 30 30 30 29 29 28 28 28 28 27 27 27 27 27 26 26 26
22 22 23 24 24 25 25 26 27 27 28 28 29 29 28 28 28 28 28 29 29 29 29 29 29 29 29 29 28 28 28 28 28 28 27 27 27 26 26 26 25 25 24 23
23 23 24 24 25 25 26 26 27 27 27 27 27 28 27 27 27 27 27 28 28 28 28 28 28 28 28 28 27 27 27 27 26 26 25 25 25 24 24 23 23 22 21 20

GEFSNGP_500_meanwind_198.txt.gz
Wind_Speed
38 37 37 36 35 34 36 37 38 36 35 33 33 34 33 33 31 31 31 31 31 30 30 30 30 30 30 30 31 32 31 31 32 32 32 34 35 35 35 36 37 37 38 39
40 39 38 37 36 35 36 36 37 37 36 35 35 34 34 33 32 32 32 32 32 31 31 31 31 31 31 31 32 32 32 33 33 33 33 34 34 35 35 36 37 38 39 39
39 39 40 39 37 36 36 35 35 36 35 36 36 35 34 34 34 33 32 32 32 32 32 31 32 32 32 32 33 33 34 34 33 34 34 34 35 36 36 37 37 38 38 39
38 38 39 37 36 36 36 36 36 35 35 36 36 35 35 35 35 34 34 33 33 33 33 33 32 33 33 33 34 34 34 34 34 34 34 34 34 35 36 37 37 38 38 39
37 37 37 35 35 35 35 36 36 36 36 36 36 36 35 35 35 35 35 35 35 35 35 34 33 33 34 33 33 33 34 34 34 34 34 33 34 34 35 36 37 38 38 39
35 36 36 34 34 34 36 37 37 37 37 37 37 37 36 36 36 36 36 36 36 37 36 36 35 34 35 35 34 34 34 34 34 35 34 34 34 36 36 37 38 39 39 39
32 34 34 34 34 35 36 37 37 37 37 37 37 38 37 38 38 38 37 37 37 37 37 37 37 36 35 35 35 35 35 35 35 36 36 36 36 37 38 38 39 40 40 41
32 33 33 33 34 35 36 37 37 37 38 38 38 38 38 39 39 39 39 38 38 38 37 37 37 37 37 36 36 36 36 36 36 36 37 37 37 38 39 39 40 40 41 42
33 33 33 34 34 35 37 37 36 37 37 38 39 39 40 40 40 40 40 39 39 38 38 38 37 37 37 36 36 36 36 36 37 37 37 38 38 39 40 40 41 42 42 42
32 33 34 34 35 35 36 37 37 37 37 37 38 39 39 39 40 40 40 40 39 39 38 38 37 37 36 36 36 36 36 37 37 38 38 39 40 41 42 42 42 43 44 43
33 33 34 34 35 35 35 36 36 37 37 37 37 37 37 36 37 37 38 38 38 38 38 38 37 37 36 36 36 36 37 38 38 38 39 40 40 41 41 42 43 43 42 42
32 33 33 33 34 34 34 34 35 35 35 35 35 35 35 35 35 36 36 36 36 37 37 37 36 36 36 36 36 37 37 37 38 38 39 39 39 39 40 41 40 40 40 40
31 31 32 32 31 32 32 31 31 31 32 32 33 33 33 33 33 33 34 34 34 34 35 35 35 35 35 35 36 36 36 36 35 36 37 37 37 37 37 37 37 37 38 39
29 29 29 29 29 29 30 30 30 30 30 30 30 31 31 32 32 32 32 32 32 32 33 33 33 33 34 34 35 35 34 34 34 35 36 36 36 36 35 35 36 36 37 37
27 27 27 26 27 27 28 29 30 30 29 29 29 30 30 31 31 31 31 31 31 31 31 32 32 32 32 33 34 34 34 34 35 35 35 35 35 34 34 34 35 35 36 37
26 27 27 27 27 27 27 28 29 29 29 29 29 30 29 30 30 31 31 31 31 31 31 31 31 32 32 32 33 33 34 34 35 35 35 35 34 33 33 34 35 35 36 36
25 26 27 27 27 27 28 28 28 28 28 29 29 29 29 29 30 30 31 31 32 32 32 32 32 32 33 33 33 33 33 34 34 34 34 33 33 33 34 34 35 35 35 35
25 26 26 26 27 28 28 28 28 28 28 28 28 29 29 30 30 30 31 31 32 32 32 32 32 32 32 32 32 32 33 33 33 32 32 33 33 34 34 34 34 35 35 35
25 25 25 26 26 27 27 27 27 28 28 29 29 29 29 29 30 30 31 31 31 31 31 32 32 32 31 31 31 31 31 32 32 33 33 33 34 34 34 34 34 35 35 35
24 24 25 26 26 27 27 27 27 27 28 28 28 29 29 29 30 30 30 30 31 31 31 30 30 31 30 30 31 31 32 32 33 34 34 34 34 34 34 34 34 34 34 34
23 23 24 25 26 27 27 27 27 28 28 28 28 28 28 29 29 29 30 30 30 30 30 30 31 31 32 32 33 33 34 34 34 35 35 35 35 35 34 34 34 34 33 33
23 23 24 25 25 26 27 27 27 27 27 27 27 28 28 28 29 29 29 29 29 30 30 31 31 32 32 33 33 34 34 35 35 35 35 35 35 35 35 34 34 33 32 32
23 24 24 25 25 25 25 25 26 26 26 27 27 27 27 28 28 28 28 28 28 29 29 30 30 31 31 31 32 32 33 33 33 34 34 34 34 34 34 33 33 32 32 31
23 23 24 24 24 24 24 25 25 25 26 26 26 26 27 27 27 27 27 26 27 27 27 28 28 29 30 30 31 31 32 32 32 32 33 32 32 32 31 30 30 30 30 30
22 22 23 23 23 24 24 25 25 25 26 26 26 26 26 26 26 26 26 26 26 26 27 27 28 28 29 30 30 31 31 31 31 31 30 30 29 29 28 27 27 27 27 27
21 22 22 23 23 23 24 24 25 25 25 25 26 26 25 25 26 26 26 26 26 27 27 28 28 29 29 30 30 30 30 30 30 29 28 27 27 26 25 25 25 25 25 25
21 21 22 22 23 23 24 24 24 24 25 25 25 26 26 26 25 25 26 26 26 27 28 28 29 29 30 29 29 29 29 28 28 28 27 26 25 25 24 24 24 24 23 23

GEFSNGP_500_meanwind_204.txt.gz
Wind_Speed
35 34 34 34 34 34 35 36 36 34 33 33 33 32 32 31 31 32 31 31 31 31 31 30 30 30 30 30 29 30 30 30 32 33 33 33 34 34 35 35 35 36 37 38
35 35 35 35 34 34 35 35 35 34 33 33 33 33 32 32 32 33 33 33 33 33 32 32 32 31 31 31 31 31 31 32 32 33 33 34 34 34 35 35 35 35 35 37
35 35 36 36 33 33 33 34 34 33 33 33 33 33 33 33 33 34 34 34 34 34 34 34 33 33 33 33 32 33 33 33 34 34 34 33 33 34 35 35 35 36 36 37
34 33 34 33 32 32 32 32 32 32 32 33 33 33 33 33 33 33 34 34 35 35 35 35 35 34 34 34 34 34 35 35 36 36 36 35 35 35 34 35 36 36 37 37
31 32 32 32 30 30 31 32 32 32 33 33 33 33 33 33 33 33 34 34 34 34 35 35 35 35 35 35 36 36 36 36 36 36 36 36 36 36 36 36 37 37 38 38
30 31 31 31 30 30 31 31 31 32 32 32 32 33 33 33 33 33 34 34 35 35 35 35 35 36 36 36 37 37 37 36 37 36 36 36 36 37 37 37 37 38 38 39
30 31 31 30 29 29 30 30 30 31 31 31 31 33 33 34 34 35 35 35 35 35 35 35 35 36 36 36 36 36 36 37 37 37 37 37 37 37 38 38 38 38 39 40
30 30 30 29 29 29 29 29 30 31 31 31 31 32 33 34 34 35 36 36 36 35 36 36 36 36 36 36 36 36 36 36 36 36 36 37 37 38 39 39 39 39 39 40
29 30 30 30 29 29 29 29 30 30 31 32 32 33 33 34 35 36 36 37 37 37 37 37 36 36 36 36 36 35 34 34 35 35 36 36 36 36 37 38 38 39 39 39
29 29 29 29 29 29 29 29 30 30 30 31 32 33 34 34 35 36 36 37 37 37 36 36 35 35 35 35 35 35 34 34 34 34 34 35 35 35 36 37 38 38 39 40
28 28 28 28 28 27 28 28 29 29 30 30 31 31 32 33 34 35 35 36 36 36 35 35 34 34 35 35 35 35 35 35 34 34 33 34 34 35 36 37 38 39 39 40
27 27 27 27 27 27 27 27 28 28 28 29 28 28 28 29 30 31 31 32 33 33 33 33 34 34 35 35 35 35 35 34 34 33 33 34 34 35 36 37 38 39 39 39
26 26 26 26 26 26 26 26 26 27 27 27 27 27 27 28 28 28 29 29 29 30 31 31 32 32 33 33 33 32 32 32 31 32 32 33 33 33 34 35 36 37 37 37
24 25 24 24 24 24 25 25 25 25 26 26 26 26 26 27 27 27 27 28 28 29 29 30 30 31 31 31 31 31 31 31 31 31 32 32 32 33 33 33 34 34 35 35
23 23 23 22 23 23 23 23 23 24 25 26 26 26 26 26 27 27 27 28 28 28 28 28 29 30 30 29 30 30 30 30 30 31 32 32 32 33 33 33 33 32 32 32
22 21 21 22 22 23 23 23 23 24 25 26 26 27 27 27 27 27 28 28 27 27 27 28 28 28 28 28 29 29 30 30 31 31 31 31 32 32 32 32 32 32 32 32
21 21 21 22 22 23 24 24 24 25 25 26 26 27 27 28 27 28 28 28 28 28 28 28 28 28 28 28 28 29 29 30 30 30 30 30 30 31 30 30 30 31 32 32
20 21 21 22 22 23 23 24 25 25 26 26 27 27 28 28 28 28 27 27 27 27 27 27 27 26 26 26 27 28 29 29 29 29 30 30 30 30 30 30 30 31 31 31
20 21 21 21 22 23 24 24 25 26 27 27 27 27 27 28 28 27 27 27 27 27 27 27 27 27 27 28 28 28 28 28 28 29 29 29 30 30 30 30 30 31 31 31
18 19 20 21 22 23 24 24 24 25 26 27 27 27 27 27 27 27 27 27 27 27 27 27 28 28 28 28 28 28 28 28 28 28 29 29 29 29 30 30 30 30 30 30
18 18 19 20 21 22 22 23 23 24 25 25 26 26 26 27 27 27 28 28 28 28 27 27 27 28 28 28 28 28 29 28 28 29 29 30 30 31 31 31 31 31 31 31
18 18 19 20 20 21 21 22 23 23 24 24 25 25 26 26 27 27 28 28 28 28 28 27 28 28 28 28 28 28 29 29 29 30 30 30 30 31 31 31 32 32 32 32
19 20 20 20 21 21 22 23 24 24 24 24 24 24 24 25 25 26 26 26 26 27 27 27 27 28 28 28 28 28 29 29 30 30 30 31 31 31 31 31 31 31 31 31
19 19 20 20 21 22 22 23 23 23 23 23 23 23 23 23 24 24 25 25 25 25 25 26 26 26 26 27 27 28 29 29 30 30 30 30 30 30 30 30 30 30 29 29
17 18 19 19 20 21 22 22 23 23 23 23 23 23 23 23 23 23 23 24 24 24 25 25 25 25 26 26 26 27 27 28 28 28 29 29 29 29 29 29 28 28 27 27
17 17 18 19 20 21 21 22 22 22 22 22 23 23 23 23 23 23 23 24 24 24 25 25 25 26 26 26 27 27 27 27 27 26 27 27 27 27 27 26 26 26 25 25
17 18 19 20 20 21 20 20 21 21 21 21 22 23 23 23 23 22 22 23 23 24 25 25 25 26 26 26 26 26 26 26 25 25 26 26 25 25 25 24 24 23 23 23

GEFSNGP_500_meanwind_210.txt.gz
Wind_Speed
33 33 32 33 33 33 35 35 36 35 34 33 33 33 32 33 33 33 33 33 33 33 33 32 32 32 31 31 31 31 31 31 32 32 33 34 34 34 35 35 36 36 37 37
33 33 33 33 33 33 34 35 36 36 36 35 34 34 34 34 34 33 33 33 33 33 33 33 33 32 32 31 31 32 32 32 33 33 33 34 34 34 35 35 35 36 37 37
35 34 35 36 34 34 34 34 35 36 35 34 34 34 34 34 34 34 34 34 34 33 33 34 34 33 33 33 33 33 34 34 35 35 34 34 34 35 35 36 36 36 37 38
34 34 35 35 34 34 34 34 34 35 34 34 33 33 34 33 33 34 34 34 33 34 34 34 34 34 34 34 34 34 34 35 35 36 36 35 35 36 36 36 36 36 37 37
31 31 32 33 33 33 33 34 34 34 33 33 33 33 34 34 34 34 34 34 33 34 35 35 35 35 35 35 35 35 36 36 36 36 36 36 36 36 37 37 38 38 38 38
30 30 31 31 31 31 32 32 32 32 32 32 32 33 33 33 33 34 34 34 34 34 34 35 35 36 36 36 36 36 37 37 38 37 37 37 38 38 38 39 39 39 39 39
28 29 30 30 29 29 30 31 30 31 31 31 31 32 32 33 33 33 34 34 34 35 35 35 35 36 36 36 37 37 37 37 37 37 37 38 38 38 38 39 39 39 39 39
28 29 29 29 29 30 30 31 30 30 30 31 32 32 33 34 34 34 34 34 35 35 35 35 35 36 36 37 37 37 37 37 36 37 37 37 37 37 37 37 38 37 37 38
27 28 29 30 30 29 30 31 31 31 30 31 31 32 34 34 34 34 34 35 35 35 36 36 36 37 37 38 37 37 36 36 36 37 37 37 37 37 37 37 37 37 37 37
27 27 28 30 30 31 31 31 31 32 31 31 31 31 32 33 33 34 34 35 36 37 37 37 37 37 38 38 37 37 37 37 37 36 36 37 37 38 38 38 38 38 37 37
28 28 29 30 30 30 30 31 31 31 30 31 31 32 32 33 32 33 33 34 35 36 36 36 36 37 36 36 36 36 36 37 37 37 36 36 36 36 36 36 37 37 36 37
29 29 29 29 29 29 29 29 29 30 30 30 30 30 30 30 30 30 31 32 32 33 34 34 34 34 35 35 35 35 35 35 36 35 35 35 35 35 35 36 35 36 36 37
29 29 30 29 29 28 28 27 27 27 27 27 27 27 27 28 28 28 29 29 30 30 31 31 31 32 32 32 32 32 32 33 33 33 34 34 34 34 34 34 34 34 35 36
29 29 29 28 28 27 27 26 26 26 26 26 26 26 26 26 27 27 27 28 28 28 29 29 29 29 30 30 30 31 31 31 31 31 32 32 33 33 33 33 34 34 34 35
27 28 27 26 25 25 25 25 25 25 25 25 25 25 25 25 26 26 27 27 27 27 28 28 29 29 29 30 30 30 30 30 30 30 31 31 32 32 32 32 33 33 33 34
24 24 24 24 24 25 25 25 25 24 25 25 25 25 25 26 26 26 27 28 28 28 28 29 29 29 29 29 29 30 30 30 30 31 31 31 31 31 31 31 31 32 32 32
23 22 22 23 23 24 24 25 25 24 24 24 25 25 25 26 26 26 27 27 28 28 28 29 29 29 29 29 29 29 29 29 30 30 30 30 30 30 30 30 30 30 30 31
22 22 22 22 22 23 23 24 24 24 24 25 25 26 26 26 26 26 27 27 27 27 27 27 27 27 28 27 27 28 28 28 28 29 29 29 29 29 29 29 29 29 29 29
21 21 21 22 21 21 21 22 23 23 24 24 25 25 26 26 26 26 26 26 26 26 26 26 26 25 25 25 26 26 27 27 28 28 28 29 29 30 30 29 29 29 29 29
20 20 20 20 21 21 21 22 22 23 24 24 24 25 25 25 26 26 26 26 26 26 26 25 25 24 24 24 25 25 25 26 27 28 28 29 29 29 30 30 29 29 29 29
18 19 19 19 20 20 21 21 22 23 23 24 24 24 24 25 25 25 25 25 25 26 25 25 24 24 24 25 25 26 26 26 27 28 28 29 29 29 29 29 29 29 29 29
19 19 19 19 19 19 20 21 21 22 22 23 24 24 25 25 25 25 25 25 26 26 25 25 26 26 26 26 26 26 27 27 27 27 27 28 28 28 28 29 29 29 29 29
18 18 19 19 20 20 20 21 21 22 22 22 23 23 24 24 25 25 25 26 26 26 26 26 26 26 26 26 27 27 27 27 27 27 27 27 27 27 28 28 28 28 28 28
18 18 19 19 20 20 21 21 22 22 22 22 23 23 24 24 24 24 24 25 25 25 25 25 25 25 25 26 26 27 27 28 28 28 28 27 27 27 27 27 26 26 27 27
18 19 19 19 20 20 21 21 22 22 22 22 22 23 23 23 23 23 23 23 23 23 23 23 24 24 25 25 26 26 27 27 28 28 27 27 27 27 26 26 25 25 26 26
18 19 19 19 19 19 20 20 20 20 20 20 21 21 21 21 21 21 22 22 23 23 23 23 23 23 23 24 24 24 25 25 25 26 26 26 26 26 26 26 25 25 25 26
18 18 18 18 19 19 19 18 18 18 18 19 19 20 20 21 21 21 22 22 22 22 23 23 23 23 23 23 24 24 23 23 23 24 24 24 25 25 25 25 25 25 25 25

GEFSNGP_500_meanwind_216.txt.gz
Wind_Speed
32 32 32 31 31 32 34 34 35 34 33 31 29 29 29 31 31 30 31 32 32 33 34 35 34 35 34 34 34 34 34 34 34 34 34 34 34 34 35 35 35 35 35 36
32 31 32 32 31 31 32 32 33 33 33 32 33 32 31 32 32 31 31 32 33 33 34 34 34 34 34 34 34 34 35 35 35 35 35 35 35 35 36 36 35 35 36 36
31 31 31 31 30 30 30 30 31 32 32 31 32 33 33 32 32 32 31 31 32 33 34 34 34 34 33 33 34 35 35 35 36 36 36 36 36 36 36 36 36 36 37 37
30 29 30 29 28 28 28 28 28 29 29 30 30 32 33 33 32 31 31 31 32 33 33 34 35 34 34 34 34 35 36 36 37 36 37 37 36 36 36 36 37 37 38 38
29 29 29 28 27 27 28 28 28 29 29 29 29 30 31 31 31 31 31 32 33 34 34 34 35 35 34 34 34 35 36 36 36 37 36 36 36 36 37 37 38 38 39 39
27 27 27 27 26 26 27 28 28 29 29 29 30 30 30 30 30 30 31 32 33 34 34 34 35 35 35 35 34 34 35 35 35 35 35 35 36 36 36 37 38 39 39 40
26 27 27 27 27 27 28 28 28 29 30 30 30 30 30 30 31 32 32 32 33 33 34 34 35 35 36 35 35 35 34 34 35 35 35 35 35 36 36 36 37 37 38 38
24 25 25 25 27 28 28 28 28 28 28 29 29 29 30 30 30 31 32 32 32 33 33 34 35 35 36 36 35 35 35 35 36 35 35 35 35 35 35 35 36 36 36 37
24 24 24 25 26 27 28 29 29 30 30 30 30 29 29 30 30 31 32 32 33 33 34 35 35 36 37 37 36 36 36 36 36 35 35 35 35 35 35 35 36 36 37 37
24 24 24 25 26 26 27 28 29 30 30 30 30 31 31 30 30 30 31 32 32 33 34 35 35 36 37 38 37 36 35 35 35 35 35 35 35 35 36 37 37 37 38 38
25 24 25 26 26 25 26 27 28 29 29 29 30 30 30 31 30 30 31 31 32 32 32 33 34 34 35 36 36 35 35 34 35 35 35 35 35 36 36 36 37 37 37 37
24 24 25 25 26 25 24 25 26 27 27 27 28 28 29 29 30 30 30 30 31 31 31 31 31 31 32 33 34 34 34 34 34 35 35 35 36 36 36 36 36 37 37 37
22 22 23 22 23 24 24 24 24 25 26 27 27 27 27 28 28 28 29 29 29 29 29 29 29 30 31 32 32 33 33 33 34 34 35 35 35 35 35 35 36 36 36 36
21 22 22 22 22 22 23 23 23 23 24 25 25 26 27 27 27 27 27 27 27 27 27 28 28 29 29 30 31 32 31 31 32 32 33 34 34 34 34 34 35 35 35 34
20 20 21 21 21 22 22 22 22 22 23 23 24 25 25 25 25 25 26 26 26 26 26 26 27 28 28 28 29 29 29 29 30 30 31 31 32 32 32 33 33 33 34 34
19 19 20 21 21 21 22 22 22 22 23 24 24 24 24 24 24 24 25 25 25 25 26 26 26 26 26 27 27 28 28 29 29 29 29 29 30 31 31 31 31 32 32 33
19 20 20 21 21 21 22 22 22 22 22 23 23 24 23 23 24 24 24 25 25 25 26 26 26 27 27 26 26 27 27 28 28 27 27 27 28 28 29 29 30 30 31 32
20 21 21 21 21 21 21 21 22 22 23 23 23 23 23 24 23 23 23 24 24 25 26 26 26 26 26 25 25 26 26 26 26 27 27 27 28 28 28 29 29 30 31 31
21 21 21 21 21 21 21 21 22 22 23 23 23 24 24 24 24 23 23 23 23 24 25 25 25 25 24 25 24 24 25 25 25 26 26 27 27 27 28 28 29 30 30 31
20 20 21 22 21 21 22 22 22 22 22 23 23 23 24 24 24 23 23 23 23 23 24 24 24 24 24 24 24 24 25 25 25 26 26 27 27 28 29 29 29 30 30 30
20 21 21 21 21 21 22 22 22 22 22 23 23 23 23 23 23 23 23 24 24 24 24 24 24 24 24 24 24 24 25 25 26 26 27 27 28 29 29 30 30 29 29 29
20 21 20 20 20 20 20 20 20 20 20 21 21 21 21 22 23 23 24 24 25 25 24 24 24 24 24 24 24 24 25 25 26 27 27 28 29 29 29 29 29 29 28 28
19 19 19 18 19 19 18 18 18 18 18 19 19 20 21 22 22 23 24 24 24 24 24 24 24 24 24 25 25 25 26 26 27 27 27 28 28 28 28 27 27 27 27 27
18 17 17 17 17 17 18 18 18 18 18 18 19 19 20 21 22 22 23 23 23 24 24 24 25 25 25 25 25 26 26 26 26 26 26 26 26 26 26 26 26 26 25 25
16 16 16 17 17 17 18 18 18 18 18 18 18 19 19 20 20 21 22 22 22 23 23 24 24 24 24 24 25 25 25 26 25 25 25 25 25 25 24 24 23 23 24 24
15 16 16 16 16 16 16 16 16 17 17 17 17 18 18 18 19 20 20 21 21 22 22 22 22 23 23 23 24 24 24 24 24 24 24 24 23 23 23 23 23 23 23 23
15 15 14 14 14 14 14 14 14 15 15 16 16 16 17 17 18 19 19 20 20 21 21 22 22 23 23 23 24 24 24 24 23 23 23 23 22 22 22 23 23 23 23 23

GEFSNGP_500_meanwind_222.txt.gz
Wind_Speed
34 33 33 33 33 33 33 33 34 34 34 33 32 32 32 32 31 32 32 32 33 33 33 34 35 36 36 37 37 38 39 39 40 40 40 40 39 39 39 39 39 39 38 38
32 31 32 32 31 32 32 31 33 33 32 31 32 32 32 32 32 32 33 33 33 33 34 34 34 35 35 36 36 37 38 38 39 39 39 39 39 38 38 39 39 39 38 38
32 30 31 31 29 31 32 31 31 31 30 30 30 30 30 31 31 31 31 32 32 33 33 33 34 34 34 34 34 36 37 37 38 38 39 39 39 39 38 39 39 39 39 39
31 31 31 30 29 29 30 30 30 30 30 31 31 31 31 31 31 32 32 32 32 32 33 32 33 34 33 33 34 35 36 36 36 37 37 37 37 38 38 38 38 39 39 39
30 30 30 29 29 29 29 29 29 29 29 30 30 30 30 30 30 31 31 32 32 33 33 33 33 34 34 34 35 35 35 35 35 36 36 37 37 37 37 37 38 38 39 39
28 27 27 28 29 30 30 30 30 30 30 30 30 30 30 30 30 30 31 31 32 32 33 33 34 35 35 35 35 35 35 36 35 36 36 37 37 38 38 38 39 39 39 39
26 25 25 26 27 28 30 31 30 31 30 30 30 31 30 30 30 30 31 32 32 32 33 34 35 35 36 36 36 36 36 36 36 36 36 37 38 38 39 39 39 39 38 38
25 25 25 25 25 26 27 28 29 29 29 29 29 29 29 29 29 30 31 32 32 33 33 34 35 35 36 37 37 37 37 37 37 37 37 38 39 39 39 39 39 39 39 38
25 25 25 25 25 25 26 27 28 29 30 29 29 29 29 29 29 30 30 31 32 33 33 33 34 34 35 36 37 37 38 38 38 38 38 38 39 39 38 38 38 39 39 38
26 25 25 25 25 26 26 26 27 29 29 29 28 27 28 29 29 29 30 30 31 31 31 32 32 33 34 35 35 36 37 37 38 38 38 37 38 38 37 37 37 37 37 37
25 24 24 24 25 25 25 24 25 26 27 28 27 27 26 26 28 29 29 30 30 30 30 30 30 31 32 33 33 33 34 35 36 36 36 36 36 37 37 36 36 36 36 36
23 24 24 24 24 24 24 24 24 24 25 26 26 26 27 27 27 28 29 29 29 29 29 29 29 30 30 31 31 31 31 32 33 33 34 34 35 35 35 35 35 35 36 36
24 24 24 24 24 24 24 24 24 24 24 24 25 26 27 27 27 28 28 29 30 30 30 30 30 30 30 31 31 30 30 30 31 31 32 33 33 34 34 34 34 34 35 35
23 23 23 23 23 24 24 23 24 24 24 24 24 25 25 25 26 27 28 28 29 30 30 30 30 30 30 30 30 30 30 30 30 31 32 32 32 33 33 33 33 33 34 34
23 23 23 22 23 23 24 24 24 24 25 25 25 25 25 25 26 27 27 27 28 28 29 29 29 29 30 29 30 30 30 30 30 31 31 31 31 32 32 32 33 33 33 33
21 21 21 22 22 23 24 23 23 23 23 24 24 24 24 25 26 27 27 27 27 27 27 28 28 28 28 28 29 29 29 29 29 30 30 30 31 31 31 31 32 33 33 34
20 20 20 21 22 22 23 22 21 21 22 22 22 23 23 24 25 26 27 27 27 27 27 27 27 27 27 27 27 28 28 28 28 28 29 29 29 30 31 31 32 32 33 34
20 20 20 21 21 21 22 22 21 21 22 22 23 23 24 24 24 25 26 27 27 27 26 26 26 26 26 26 27 27 27 27 28 28 28 28 29 29 30 30 31 32 32 32
21 21 21 22 22 23 23 22 22 22 22 23 23 23 24 24 24 24 25 25 25 25 25 25 26 26 26 26 26 26 27 27 27 27 27 27 28 29 29 29 30 30 31 31
21 21 22 23 24 23 23 22 22 22 22 23 24 24 24 24 24 24 24 24 24 25 25 26 26 26 26 26 26 26 26 26 26 26 26 27 27 28 28 28 28 29 30 30
22 22 22 22 22 22 22 21 22 22 23 24 24 24 24 24 24 23 24 24 24 24 24 25 25 26 26 26 25 25 25 25 25 26 26 26 26 26 26 27 27 27 28 28
22 22 22 22 22 22 22 22 22 23 23 24 23 23 23 23 23 23 23 23 23 23 24 24 25 25 26 26 25 25 25 25 25 26 26 25 25 26 26 26 26 27 27 28
22 22 21 22 22 22 22 22 23 23 23 23 23 22 22 22 22 22 22 23 23 23 23 23 24 25 25 26 26 26 26 26 25 25 25 25 26 26 26 26 27 27 27 27
22 22 21 21 21 22 22 22 22 22 22 21 21 20 20 20 21 21 22 23 23 23 23 24 24 25 25 26 26 26 26 26 25 25 25 25 25 26 26 26 26 26 26 26
21 21 21 21 21 21 21 21 20 20 20 20 20 19 19 20 20 21 21 21 22 22 23 23 23 24 25 25 25 25 25 25 25 25 25 25 25 25 25 25 24 24 24 24
20 20 20 20 20 19 19 19 18 18 18 19 19 19 19 19 19 19 20 20 21 21 21 22 22 23 23 23 24 24 25 25 25 25 25 25 25 25 24 24 24 24 23 23
20 19 19 19 19 19 18 18 17 17 18 18 18 18 18 18 18 18 19 19 19 19 20 20 21 21 21 22 22 23 24 24 24 25 25 25 24 24 24 24 24 24 23 23

GEFSNGP_500_meanwind_228.txt.gz
Wind_Speed
30 29 30 29 29 29 30 30 31 31 31 32 31 31 32 32 32 32 33 33 33 33 33 33 34 35 35 35 36 37 38 39 39 39 39 39 39 39 40 41 41 41 40 40
29 29 29 29 28 27 28 29 30 30 30 30 31 31 32 31 31 31 31 31 32 33 33 32 33 34 35 36 36 36 36 37 38 38 38 38 39 39 40 40 41 40 40 40
29 28 28 28 26 26 26 27 27 28 29 29 30 30 31 31 31 30 30 31 31 31 31 32 33 33 34 34 35 36 36 36 37 37 38 38 38 38 39 39 40 40 40 40
28 27 27 26 25 26 25 26 27 27 27 28 28 28 29 29 29 29 29 30 31 31 31 31 32 32 33 34 36 36 37 37 37 38 38 38 38 38 38 39 39 39 40 40
27 26 25 23 24 25 25 25 26 26 28 28 28 28 28 28 28 28 29 29 29 30 30 30 31 32 33 34 35 35 36 37 37 36 36 36 37 37 38 38 38 39 39 39
25 24 23 22 22 23 24 25 25 25 26 27 27 28 27 28 28 28 29 30 30 30 29 30 30 31 32 32 33 34 34 35 35 35 35 36 36 36 37 37 38 38 38 39
23 23 22 21 21 22 23 23 23 24 24 25 25 26 27 27 28 28 28 29 30 30 29 30 30 30 30 31 32 33 33 34 34 35 36 36 36 36 36 36 37 38 39 39
24 23 22 21 21 22 22 23 23 23 24 24 25 25 26 27 28 28 28 28 29 29 30 30 30 30 30 31 31 32 32 33 34 35 35 36 36 36 36 36 37 38 39 39
24 23 22 22 22 22 22 23 24 24 24 24 24 24 24 24 25 26 27 27 28 29 30 30 30 31 31 31 31 31 32 32 33 34 34 34 35 35 35 36 36 37 38 39
23 22 22 22 22 22 23 23 24 24 24 24 24 24 24 23 23 23 24 25 26 27 28 29 29 30 30 30 30 30 30 31 31 31 32 32 33 34 34 35 35 36 36 36
22 22 22 22 23 23 24 24 24 24 24 23 23 23 23 23 23 23 23 23 24 25 25 26 27 28 29 29 29 29 29 30 30 31 31 31 32 33 34 35 35 35 35 36
21 21 22 22 22 22 22 22 22 22 23 23 23 23 23 22 23 23 23 24 24 24 25 26 27 28 28 28 29 29 29 30 30 31 31 32 32 33 33 34 34 34 35 35
20 20 20 21 21 21 21 21 21 21 22 23 24 24 24 23 24 24 24 25 25 25 25 26 26 27 28 28 29 29 30 30 30 30 31 31 31 32 32 33 33 33 33 33
19 19 20 21 21 21 22 21 21 21 22 22 23 23 23 23 23 24 24 25 25 25 25 26 26 26 27 28 29 29 29 30 30 30 30 31 31 31 32 32 33 33 34 34
19 20 20 21 22 22 22 22 22 22 22 22 21 22 22 22 22 23 23 24 25 25 26 26 27 27 27 28 28 28 29 29 29 29 29 30 30 30 31 32 32 33 34 34
20 21 22 22 22 22 22 22 21 21 21 21 21 21 21 21 22 23 23 24 24 24 25 26 27 27 28 28 28 29 29 29 29 29 30 30 30 30 31 31 31 32 33 34
21 21 22 22 22 21 21 22 21 21 20 20 20 19 20 20 21 22 23 23 24 24 25 26 27 27 28 29 29 29 29 29 30 30 30 30 30 30 30 31 31 31 32 33
21 21 22 21 21 21 22 22 22 21 20 20 19 19 19 20 20 21 22 22 23 24 25 26 27 28 29 29 29 29 29 29 30 30 30 30 30 30 30 31 31 31 31 32
21 21 22 21 21 21 21 21 22 21 21 21 21 21 21 22 22 22 23 23 23 24 24 25 26 27 28 29 28 28 29 29 29 29 29 30 30 30 30 30 30 31 31 32
21 22 22 21 21 21 21 21 22 22 22 22 22 22 22 23 23 23 23 24 24 24 24 25 25 26 27 27 28 28 28 28 28 28 29 29 29 29 29 29 30 30 30 30
22 22 22 22 21 21 22 22 22 22 22 23 23 23 23 23 23 23 23 24 24 24 24 25 25 25 26 26 26 27 27 27 27 27 27 27 27 28 28 28 28 29 29 29
22 22 22 22 22 22 22 22 22 22 21 21 22 22 22 22 22 23 23 23 24 24 24 24 24 24 24 25 26 26 26 26 26 26 27 27 27 27 27 27 28 28 28 28
22 22 22 21 21 21 21 21 21 20 20 20 20 21 21 22 21 21 21 22 23 23 23 23 23 23 23 24 25 25 26 26 26 27 26 26 26 26 26 27 27 27 27 27
23 22 21 21 21 21 20 20 20 20 20 20 20 20 20 20 20 20 21 21 21 21 22 22 22 22 23 23 24 24 25 25 26 26 26 26 26 26 26 26 26 26 26 26
23 22 21 21 20 20 20 20 20 20 20 20 20 20 19 19 19 19 20 20 20 20 21 21 21 22 22 22 22 23 24 25 25 25 26 26 26 26 26 26 26 26 25 25
23 22 21 20 20 20 20 21 21 21 20 20 20 20 20 19 19 19 19 19 19 20 20 20 20 21 21 21 21 22 23 24 24 25 25 25 25 25 25 25 25 25 25 24
22 22 21 21 21 21 21 21 21 20 20 20 19 19 19 19 19 19 19 18 19 19 19 19 19 19 19 20 20 21 22 23 23 24 24 24 24 24 24 24 24 24 24 23

GEFSNGP_500_meanwind_234.txt.gz
Wind_Speed
34 34 34 35 33 32 33 33 34 33 34 34 35 34 33 34 35 35 35 35 35 35 36 36 35 36 37 38 38 39 38 39 39 40 41 41 41 42 42 42 42 42 42 42
33 33 34 34 32 31 31 32 33 33 33 33 33 33 33 32 32 33 32 32 32 32 33 34 34 33 34 36 37 38 37 38 39 39 39 40 39 40 41 42 42 41 41 42
33 33 34 33 31 30 30 31 31 31 30 30 30 31 30 31 30 30 29 29 29 30 30 30 31 31 31 32 34 35 36 37 38 38 39 39 38 38 39 40 40 41 41 41
34 33 33 32 30 29 28 28 28 28 28 28 27 27 28 29 29 29 28 28 27 28 29 28 29 30 30 30 31 32 33 34 36 37 38 38 38 38 38 38 39 40 40 40
34 33 32 30 29 28 28 27 27 27 27 27 27 27 27 27 28 28 28 28 28 28 28 28 28 28 29 29 30 31 31 32 34 34 35 36 37 37 37 37 37 38 38 38
33 33 31 29 28 27 28 27 26 26 26 26 26 26 27 27 27 28 28 28 28 28 28 28 28 28 29 30 30 30 31 31 32 33 33 35 36 36 36 37 37 37 38 37
31 31 30 29 28 27 27 27 26 25 25 25 26 26 26 27 28 28 28 29 29 28 28 29 29 28 29 29 30 30 30 30 31 31 32 32 33 34 35 36 36 36 36 37
30 29 29 28 28 27 27 27 26 25 25 26 26 26 26 27 27 28 29 29 29 28 28 28 28 28 28 28 28 29 29 29 30 30 30 31 32 33 34 35 35 34 34 35
30 29 28 28 28 28 28 28 27 27 26 26 26 27 26 26 27 27 27 28 28 28 27 27 27 27 27 27 27 28 28 28 28 29 29 30 30 31 31 32 33 33 33 33
29 29 29 29 28 28 27 27 27 27 27 26 26 26 26 26 26 26 26 26 26 26 26 27 27 27 26 26 27 28 28 28 28 28 29 29 30 30 30 31 32 32 32 32
29 29 29 29 28 27 26 26 27 27 26 26 26 26 26 27 27 26 26 25 25 25 25 25 26 27 27 26 27 27 28 28 28 28 28 29 29 29 29 29 30 31 32 32
29 29 29 28 27 26 26 26 26 25 25 26 26 26 26 26 26 25 24 24 24 24 24 24 24 25 25 26 26 27 27 27 27 27 27 28 29 29 29 29 29 30 31 32
27 27 27 26 26 26 26 26 26 26 25 26 26 26 26 25 25 24 23 23 23 23 23 23 23 23 24 25 26 26 27 27 27 27 27 27 28 28 29 30 30 31 31 31
27 26 25 25 25 25 26 26 26 26 26 26 26 26 26 25 24 24 23 23 23 23 23 23 23 23 24 25 25 26 27 27 28 28 28 28 28 29 29 30 30 31 31 32
26 26 25 25 25 26 27 27 27 26 26 27 27 27 26 26 24 24 23 22 23 23 23 23 23 24 24 25 25 26 27 28 29 29 29 29 30 30 30 30 31 31 32 32
26 26 26 26 26 27 27 26 27 27 27 27 27 27 27 26 24 24 23 23 23 23 24 24 24 25 25 25 25 26 27 28 29 30 31 31 31 31 31 31 31 31 32 32
26 26 27 27 27 27 26 27 27 27 27 26 26 26 26 25 25 25 25 25 25 25 25 25 26 26 27 27 27 27 28 29 29 30 31 31 31 31 31 31 31 31 32 32
26 26 27 27 27 26 26 26 26 26 26 25 25 25 25 25 25 25 25 26 26 26 27 27 27 27 28 28 28 28 29 28 29 29 30 30 31 31 31 31 31 31 32 32
26 26 27 26 27 27 26 26 26 25 25 24 24 25 25 25 24 24 25 25 25 25 26 26 27 28 28 28 28 29 29 29 29 29 29 30 30 31 31 31 31 31 31 32
26 26 26 26 26 26 26 25 25 25 25 25 25 24 24 24 24 24 24 24 24 24 25 25 26 26 27 27 27 28 28 29 29 29 29 30 30 30 30 31 31 31 31 31
25 25 25 26 26 26 26 26 26 26 26 26 25 24 24 24 24 24 23 23 24 23 23 24 24 25 25 26 26 27 27 28 29 29 29 29 29 29 29 29 30 30 31 31
25 25 26 26 26 26 26 26 26 26 25 25 24 24 24 24 24 23 23 23 23 23 23 23 23 24 24 25 25 26 26 26 27 27 27 27 28 28 28 29 29 29 30 30
25 26 26 26 26 27 27 27 26 26 25 25 24 24 23 23 23 23 23 23 23 23 23 23 23 23 24 24 25 25 25 25 25 25 26 26 26 26 27 27 28 28 28 29
26 26 26 26 26 26 26 26 25 25 25 24 23 23 22 22 22 23 23 23 23 23 23 23 24 24 24 24 24 24 25 25 25 25 25 25 25 26 26 26 26 26 27 27
25 25 25 26 26 26 26 25 25 25 24 23 23 23 23 22 22 22 22 23 23 23 23 23 23 23 23 23 23 24 24 25 25 25 25 26 26 26 26 26 26 26 26 26
25 25 26 26 26 26 26 25 25 25 24 24 23 23 23 22 22 22 22 22 22 22 22 22 22 22 22 23 23 23 23 24 24 25 25 25 25 25 25 25 25 25 24 24
26 26 26 27 27 27 27 26 25 25 24 24 23 23 22 22 22 21 20 20 20 20 20 20 20 21 21 21 22 22 22 23 23 23 24 24 24 24 24 24 23 23 23 23